<gpx xmlns="http://www.topografix.com/GPX/1/1" version="1.1" creator="Bryton">
  <metadata>
    <name>LA ST VIGOR</name>
    <bounds maxLng="-0.526875" minLng="-0.691129" maxLat="49.287484" minLat="49.21852"/>
  </metadata>
  <rte>
    <number>6</number>
    <rtept lat="49.276668" lon="-0.690466"/>
    <rtept lat="49.240241" lon="-0.544767"/>
    <rtept lat="49.240281" lon="-0.544801"/>
    <rtept lat="49.255745" lon="-0.556638"/>
    <rtept lat="49.255851" lon="-0.556472"/>
    <rtept lat="49.27644" lon="-0.689943"/>
  </rte>
  <trk>
    <trkseg>
      <trkpt lat="49.276668" lon="-0.690466">
        <ele>100.4</ele>
        <time>2014-12-14T08:20:15Z</time>
      </trkpt>
      <trkpt lat="49.276602" lon="-0.690591">
        <ele>100.1</ele>
        <time>2014-12-14T08:20:19Z</time>
      </trkpt>
      <trkpt lat="49.276496" lon="-0.690757">
        <ele>100.3</ele>
        <time>2014-12-14T08:20:23Z</time>
      </trkpt>
      <trkpt lat="49.276363" lon="-0.690885">
        <ele>99.4</ele>
        <time>2014-12-14T08:20:27Z</time>
      </trkpt>
      <trkpt lat="49.276226" lon="-0.691014">
        <ele>99.7</ele>
        <time>2014-12-14T08:20:31Z</time>
      </trkpt>
      <trkpt lat="49.276084" lon="-0.691129">
        <ele>99.7</ele>
        <time>2014-12-14T08:20:35Z</time>
      </trkpt>
      <trkpt lat="49.27596" lon="-0.691037">
        <ele>99.7</ele>
        <time>2014-12-14T08:20:39Z</time>
      </trkpt>
      <trkpt lat="49.275889" lon="-0.690751">
        <ele>100.2</ele>
        <time>2014-12-14T08:20:43Z</time>
      </trkpt>
      <trkpt lat="49.275816" lon="-0.690457">
        <ele>101.1</ele>
        <time>2014-12-14T08:20:47Z</time>
      </trkpt>
      <trkpt lat="49.275714" lon="-0.690196">
        <ele>101.7</ele>
        <time>2014-12-14T08:20:51Z</time>
      </trkpt>
      <trkpt lat="49.275573" lon="-0.689929">
        <ele>102.0</ele>
        <time>2014-12-14T08:20:55Z</time>
      </trkpt>
      <trkpt lat="49.275403" lon="-0.689729">
        <ele>102.2</ele>
        <time>2014-12-14T08:20:59Z</time>
      </trkpt>
      <trkpt lat="49.275154" lon="-0.689484">
        <ele>102.3</ele>
        <time>2014-12-14T08:21:03Z</time>
      </trkpt>
      <trkpt lat="49.274958" lon="-0.689245">
        <ele>101.3</ele>
        <time>2014-12-14T08:21:07Z</time>
      </trkpt>
      <trkpt lat="49.274737" lon="-0.689016">
        <ele>100.3</ele>
        <time>2014-12-14T08:21:11Z</time>
      </trkpt>
      <trkpt lat="49.274488" lon="-0.688752">
        <ele>100.3</ele>
        <time>2014-12-14T08:21:15Z</time>
      </trkpt>
      <trkpt lat="49.274257" lon="-0.688527">
        <ele>99.6</ele>
        <time>2014-12-14T08:21:19Z</time>
      </trkpt>
      <trkpt lat="49.274001" lon="-0.688427">
        <ele>99.4</ele>
        <time>2014-12-14T08:21:23Z</time>
      </trkpt>
      <trkpt lat="49.273745" lon="-0.688543">
        <ele>98.5</ele>
        <time>2014-12-14T08:21:27Z</time>
      </trkpt>
      <trkpt lat="49.273481" lon="-0.688692">
        <ele>97.9</ele>
        <time>2014-12-14T08:21:31Z</time>
      </trkpt>
      <trkpt lat="49.273258" lon="-0.688791">
        <ele>97.1</ele>
        <time>2014-12-14T08:21:35Z</time>
      </trkpt>
      <trkpt lat="49.273103" lon="-0.688847">
        <ele>96.3</ele>
        <time>2014-12-14T08:21:39Z</time>
      </trkpt>
      <trkpt lat="49.273027" lon="-0.688999">
        <ele>96.3</ele>
        <time>2014-12-14T08:21:43Z</time>
      </trkpt>
      <trkpt lat="49.272936" lon="-0.689011">
        <ele>95.3</ele>
        <time>2014-12-14T08:21:47Z</time>
      </trkpt>
      <trkpt lat="49.272825" lon="-0.689037">
        <ele>95.3</ele>
        <time>2014-12-14T08:21:51Z</time>
      </trkpt>
      <trkpt lat="49.272649" lon="-0.689067">
        <ele>95.5</ele>
        <time>2014-12-14T08:21:55Z</time>
      </trkpt>
      <trkpt lat="49.272442" lon="-0.689154">
        <ele>95.7</ele>
        <time>2014-12-14T08:21:59Z</time>
      </trkpt>
      <trkpt lat="49.272233" lon="-0.689292">
        <ele>95.2</ele>
        <time>2014-12-14T08:22:03Z</time>
      </trkpt>
      <trkpt lat="49.272085" lon="-0.689369">
        <ele>95.2</ele>
        <time>2014-12-14T08:22:07Z</time>
      </trkpt>
      <trkpt lat="49.272026" lon="-0.689161">
        <ele>95.2</ele>
        <time>2014-12-14T08:22:11Z</time>
      </trkpt>
      <trkpt lat="49.271979" lon="-0.688873">
        <ele>96.8</ele>
        <time>2014-12-14T08:22:15Z</time>
      </trkpt>
      <trkpt lat="49.272001" lon="-0.688597">
        <ele>96.9</ele>
        <time>2014-12-14T08:22:19Z</time>
      </trkpt>
      <trkpt lat="49.271978" lon="-0.688321">
        <ele>97.6</ele>
        <time>2014-12-14T08:22:23Z</time>
      </trkpt>
      <trkpt lat="49.271838" lon="-0.688287">
        <ele>97.7</ele>
        <time>2014-12-14T08:22:27Z</time>
      </trkpt>
      <trkpt lat="49.271663" lon="-0.6883">
        <ele>98.4</ele>
        <time>2014-12-14T08:22:31Z</time>
      </trkpt>
      <trkpt lat="49.271527" lon="-0.688097">
        <ele>98.4</ele>
        <time>2014-12-14T08:22:35Z</time>
      </trkpt>
      <trkpt lat="49.271397" lon="-0.687788">
        <ele>97.9</ele>
        <time>2014-12-14T08:22:39Z</time>
      </trkpt>
      <trkpt lat="49.27124" lon="-0.687446">
        <ele>98.1</ele>
        <time>2014-12-14T08:22:43Z</time>
      </trkpt>
      <trkpt lat="49.271091" lon="-0.687131">
        <ele>97.1</ele>
        <time>2014-12-14T08:22:47Z</time>
      </trkpt>
      <trkpt lat="49.270944" lon="-0.686841">
        <ele>97.1</ele>
        <time>2014-12-14T08:22:51Z</time>
      </trkpt>
      <trkpt lat="49.2708" lon="-0.686477">
        <ele>96.1</ele>
        <time>2014-12-14T08:22:55Z</time>
      </trkpt>
      <trkpt lat="49.270646" lon="-0.686094">
        <ele>94.8</ele>
        <time>2014-12-14T08:22:59Z</time>
      </trkpt>
      <trkpt lat="49.270479" lon="-0.685727">
        <ele>93.6</ele>
        <time>2014-12-14T08:23:03Z</time>
      </trkpt>
      <trkpt lat="49.27031" lon="-0.685383">
        <ele>93.6</ele>
        <time>2014-12-14T08:23:07Z</time>
      </trkpt>
      <trkpt lat="49.270188" lon="-0.685346">
        <ele>92.6</ele>
        <time>2014-12-14T08:23:11Z</time>
      </trkpt>
      <trkpt lat="49.270077" lon="-0.685392">
        <ele>91.4</ele>
        <time>2014-12-14T08:23:15Z</time>
      </trkpt>
      <trkpt lat="49.269919" lon="-0.685525">
        <ele>90.3</ele>
        <time>2014-12-14T08:23:19Z</time>
      </trkpt>
      <trkpt lat="49.269835" lon="-0.685352">
        <ele>91.2</ele>
        <time>2014-12-14T08:23:23Z</time>
      </trkpt>
      <trkpt lat="49.269718" lon="-0.68507">
        <ele>91.6</ele>
        <time>2014-12-14T08:23:27Z</time>
      </trkpt>
      <trkpt lat="49.269608" lon="-0.68479">
        <ele>92.5</ele>
        <time>2014-12-14T08:23:31Z</time>
      </trkpt>
      <trkpt lat="49.269443" lon="-0.684495">
        <ele>93.3</ele>
        <time>2014-12-14T08:23:35Z</time>
      </trkpt>
      <trkpt lat="49.269297" lon="-0.684192">
        <ele>93.3</ele>
        <time>2014-12-14T08:23:39Z</time>
      </trkpt>
      <trkpt lat="49.269132" lon="-0.683915">
        <ele>94.1</ele>
        <time>2014-12-14T08:23:43Z</time>
      </trkpt>
      <trkpt lat="49.268958" lon="-0.683852">
        <ele>94.8</ele>
        <time>2014-12-14T08:23:47Z</time>
      </trkpt>
      <trkpt lat="49.268718" lon="-0.683939">
        <ele>91.8</ele>
        <time>2014-12-14T08:23:51Z</time>
      </trkpt>
      <trkpt lat="49.268457" lon="-0.684002">
        <ele>90.5</ele>
        <time>2014-12-14T08:23:55Z</time>
      </trkpt>
      <trkpt lat="49.268148" lon="-0.683994">
        <ele>88.9</ele>
        <time>2014-12-14T08:23:59Z</time>
      </trkpt>
      <trkpt lat="49.267851" lon="-0.684002">
        <ele>88.4</ele>
        <time>2014-12-14T08:24:03Z</time>
      </trkpt>
      <trkpt lat="49.267676" lon="-0.683891">
        <ele>87.9</ele>
        <time>2014-12-14T08:24:07Z</time>
      </trkpt>
      <trkpt lat="49.26764" lon="-0.683629">
        <ele>89.0</ele>
        <time>2014-12-14T08:24:11Z</time>
      </trkpt>
      <trkpt lat="49.267617" lon="-0.683268">
        <ele>89.9</ele>
        <time>2014-12-14T08:24:15Z</time>
      </trkpt>
      <trkpt lat="49.267604" lon="-0.682892">
        <ele>90.0</ele>
        <time>2014-12-14T08:24:19Z</time>
      </trkpt>
      <trkpt lat="49.267545" lon="-0.682506">
        <ele>89.6</ele>
        <time>2014-12-14T08:24:23Z</time>
      </trkpt>
      <trkpt lat="49.267588" lon="-0.682134">
        <ele>90.2</ele>
        <time>2014-12-14T08:24:27Z</time>
      </trkpt>
      <trkpt lat="49.267564" lon="-0.681736">
        <ele>90.8</ele>
        <time>2014-12-14T08:24:31Z</time>
      </trkpt>
      <trkpt lat="49.267561" lon="-0.681418">
        <ele>90.0</ele>
        <time>2014-12-14T08:24:35Z</time>
      </trkpt>
      <trkpt lat="49.267523" lon="-0.681086">
        <ele>90.0</ele>
        <time>2014-12-14T08:24:39Z</time>
      </trkpt>
      <trkpt lat="49.267556" lon="-0.680788">
        <ele>92.2</ele>
        <time>2014-12-14T08:24:43Z</time>
      </trkpt>
      <trkpt lat="49.267523" lon="-0.680458">
        <ele>92.9</ele>
        <time>2014-12-14T08:24:47Z</time>
      </trkpt>
      <trkpt lat="49.267503" lon="-0.680151">
        <ele>92.7</ele>
        <time>2014-12-14T08:24:51Z</time>
      </trkpt>
      <trkpt lat="49.267523" lon="-0.679823">
        <ele>92.7</ele>
        <time>2014-12-14T08:24:55Z</time>
      </trkpt>
      <trkpt lat="49.26743" lon="-0.679503">
        <ele>92.3</ele>
        <time>2014-12-14T08:24:59Z</time>
      </trkpt>
      <trkpt lat="49.267375" lon="-0.67914">
        <ele>91.9</ele>
        <time>2014-12-14T08:25:03Z</time>
      </trkpt>
      <trkpt lat="49.267267" lon="-0.678772">
        <ele>92.7</ele>
        <time>2014-12-14T08:25:07Z</time>
      </trkpt>
      <trkpt lat="49.267181" lon="-0.678459">
        <ele>92.4</ele>
        <time>2014-12-14T08:25:11Z</time>
      </trkpt>
      <trkpt lat="49.267061" lon="-0.678201">
        <ele>92.7</ele>
        <time>2014-12-14T08:25:15Z</time>
      </trkpt>
      <trkpt lat="49.267007" lon="-0.677894">
        <ele>93.2</ele>
        <time>2014-12-14T08:25:19Z</time>
      </trkpt>
      <trkpt lat="49.266904" lon="-0.677616">
        <ele>93.2</ele>
        <time>2014-12-14T08:25:23Z</time>
      </trkpt>
      <trkpt lat="49.266769" lon="-0.677374">
        <ele>93.9</ele>
        <time>2014-12-14T08:25:27Z</time>
      </trkpt>
      <trkpt lat="49.266633" lon="-0.677137">
        <ele>93.1</ele>
        <time>2014-12-14T08:25:31Z</time>
      </trkpt>
      <trkpt lat="49.26646" lon="-0.677146">
        <ele>94.1</ele>
        <time>2014-12-14T08:25:35Z</time>
      </trkpt>
      <trkpt lat="49.266294" lon="-0.67722">
        <ele>95.5</ele>
        <time>2014-12-14T08:25:39Z</time>
      </trkpt>
      <trkpt lat="49.266099" lon="-0.677271">
        <ele>96.2</ele>
        <time>2014-12-14T08:25:43Z</time>
      </trkpt>
      <trkpt lat="49.265894" lon="-0.677362">
        <ele>96.2</ele>
        <time>2014-12-14T08:25:47Z</time>
      </trkpt>
      <trkpt lat="49.265738" lon="-0.67746">
        <ele>97.7</ele>
        <time>2014-12-14T08:25:51Z</time>
      </trkpt>
      <trkpt lat="49.265598" lon="-0.677561">
        <ele>98.3</ele>
        <time>2014-12-14T08:25:55Z</time>
      </trkpt>
      <trkpt lat="49.265398" lon="-0.677651">
        <ele>97.6</ele>
        <time>2014-12-14T08:25:59Z</time>
      </trkpt>
      <trkpt lat="49.265195" lon="-0.677724">
        <ele>97.2</ele>
        <time>2014-12-14T08:26:03Z</time>
      </trkpt>
      <trkpt lat="49.265002" lon="-0.677712">
        <ele>98.1</ele>
        <time>2014-12-14T08:26:07Z</time>
      </trkpt>
      <trkpt lat="49.264877" lon="-0.677479">
        <ele>98.2</ele>
        <time>2014-12-14T08:26:11Z</time>
      </trkpt>
      <trkpt lat="49.264835" lon="-0.677157">
        <ele>98.2</ele>
        <time>2014-12-14T08:26:15Z</time>
      </trkpt>
      <trkpt lat="49.264803" lon="-0.676792">
        <ele>97.6</ele>
        <time>2014-12-14T08:26:19Z</time>
      </trkpt>
      <trkpt lat="49.264792" lon="-0.676463">
        <ele>98.3</ele>
        <time>2014-12-14T08:26:23Z</time>
      </trkpt>
      <trkpt lat="49.264747" lon="-0.676145">
        <ele>97.1</ele>
        <time>2014-12-14T08:26:27Z</time>
      </trkpt>
      <trkpt lat="49.264659" lon="-0.675727">
        <ele>97.0</ele>
        <time>2014-12-14T08:26:31Z</time>
      </trkpt>
      <trkpt lat="49.26456" lon="-0.675399">
        <ele>96.9</ele>
        <time>2014-12-14T08:26:35Z</time>
      </trkpt>
      <trkpt lat="49.264469" lon="-0.675105">
        <ele>98.3</ele>
        <time>2014-12-14T08:26:39Z</time>
      </trkpt>
      <trkpt lat="49.264461" lon="-0.674722">
        <ele>97.1</ele>
        <time>2014-12-14T08:26:43Z</time>
      </trkpt>
      <trkpt lat="49.264398" lon="-0.674348">
        <ele>96.1</ele>
        <time>2014-12-14T08:26:47Z</time>
      </trkpt>
      <trkpt lat="49.264302" lon="-0.673947">
        <ele>95.3</ele>
        <time>2014-12-14T08:26:51Z</time>
      </trkpt>
      <trkpt lat="49.264253" lon="-0.673558">
        <ele>94.6</ele>
        <time>2014-12-14T08:26:55Z</time>
      </trkpt>
      <trkpt lat="49.264179" lon="-0.673217">
        <ele>95.5</ele>
        <time>2014-12-14T08:26:59Z</time>
      </trkpt>
      <trkpt lat="49.26412" lon="-0.672856">
        <ele>96.7</ele>
        <time>2014-12-14T08:27:03Z</time>
      </trkpt>
      <trkpt lat="49.264037" lon="-0.672393">
        <ele>97.0</ele>
        <time>2014-12-14T08:27:07Z</time>
      </trkpt>
      <trkpt lat="49.264" lon="-0.671999">
        <ele>97.8</ele>
        <time>2014-12-14T08:27:11Z</time>
      </trkpt>
      <trkpt lat="49.263934" lon="-0.671659">
        <ele>97.9</ele>
        <time>2014-12-14T08:27:15Z</time>
      </trkpt>
      <trkpt lat="49.263735" lon="-0.671516">
        <ele>97.9</ele>
        <time>2014-12-14T08:27:19Z</time>
      </trkpt>
      <trkpt lat="49.263537" lon="-0.671592">
        <ele>99.0</ele>
        <time>2014-12-14T08:27:23Z</time>
      </trkpt>
      <trkpt lat="49.263318" lon="-0.671683">
        <ele>99.5</ele>
        <time>2014-12-14T08:27:27Z</time>
      </trkpt>
      <trkpt lat="49.263101" lon="-0.671827">
        <ele>99.5</ele>
        <time>2014-12-14T08:27:31Z</time>
      </trkpt>
      <trkpt lat="49.262872" lon="-0.672009">
        <ele>100.0</ele>
        <time>2014-12-14T08:27:35Z</time>
      </trkpt>
      <trkpt lat="49.262626" lon="-0.672157">
        <ele>100.4</ele>
        <time>2014-12-14T08:27:39Z</time>
      </trkpt>
      <trkpt lat="49.262384" lon="-0.672273">
        <ele>101.1</ele>
        <time>2014-12-14T08:27:43Z</time>
      </trkpt>
      <trkpt lat="49.262185" lon="-0.672426">
        <ele>101.1</ele>
        <time>2014-12-14T08:27:47Z</time>
      </trkpt>
      <trkpt lat="49.261972" lon="-0.672559">
        <ele>100.5</ele>
        <time>2014-12-14T08:27:51Z</time>
      </trkpt>
      <trkpt lat="49.261747" lon="-0.672702">
        <ele>100.7</ele>
        <time>2014-12-14T08:27:55Z</time>
      </trkpt>
      <trkpt lat="49.261536" lon="-0.672821">
        <ele>100.7</ele>
        <time>2014-12-14T08:27:59Z</time>
      </trkpt>
      <trkpt lat="49.261309" lon="-0.672946">
        <ele>101.1</ele>
        <time>2014-12-14T08:28:03Z</time>
      </trkpt>
      <trkpt lat="49.261097" lon="-0.673067">
        <ele>101.7</ele>
        <time>2014-12-14T08:28:07Z</time>
      </trkpt>
      <trkpt lat="49.260915" lon="-0.673224">
        <ele>101.7</ele>
        <time>2014-12-14T08:28:11Z</time>
      </trkpt>
      <trkpt lat="49.260701" lon="-0.67336">
        <ele>101.6</ele>
        <time>2014-12-14T08:28:15Z</time>
      </trkpt>
      <trkpt lat="49.260484" lon="-0.6735">
        <ele>101.5</ele>
        <time>2014-12-14T08:28:19Z</time>
      </trkpt>
      <trkpt lat="49.260258" lon="-0.673622">
        <ele>102.2</ele>
        <time>2014-12-14T08:28:23Z</time>
      </trkpt>
      <trkpt lat="49.260037" lon="-0.67374">
        <ele>102.6</ele>
        <time>2014-12-14T08:28:27Z</time>
      </trkpt>
      <trkpt lat="49.259794" lon="-0.67384">
        <ele>102.6</ele>
        <time>2014-12-14T08:28:31Z</time>
      </trkpt>
      <trkpt lat="49.259553" lon="-0.673992">
        <ele>102.3</ele>
        <time>2014-12-14T08:28:35Z</time>
      </trkpt>
      <trkpt lat="49.259341" lon="-0.674115">
        <ele>102.3</ele>
        <time>2014-12-14T08:28:39Z</time>
      </trkpt>
      <trkpt lat="49.259138" lon="-0.674176">
        <ele>103.6</ele>
        <time>2014-12-14T08:28:43Z</time>
      </trkpt>
      <trkpt lat="49.258951" lon="-0.673954">
        <ele>103.8</ele>
        <time>2014-12-14T08:28:47Z</time>
      </trkpt>
      <trkpt lat="49.258722" lon="-0.673672">
        <ele>103.8</ele>
        <time>2014-12-14T08:28:51Z</time>
      </trkpt>
      <trkpt lat="49.25852" lon="-0.673433">
        <ele>105.1</ele>
        <time>2014-12-14T08:28:55Z</time>
      </trkpt>
      <trkpt lat="49.258338" lon="-0.673174">
        <ele>105.9</ele>
        <time>2014-12-14T08:28:59Z</time>
      </trkpt>
      <trkpt lat="49.258184" lon="-0.672963">
        <ele>105.7</ele>
        <time>2014-12-14T08:29:03Z</time>
      </trkpt>
      <trkpt lat="49.258021" lon="-0.672747">
        <ele>105.7</ele>
        <time>2014-12-14T08:29:07Z</time>
      </trkpt>
      <trkpt lat="49.257857" lon="-0.672519">
        <ele>106.2</ele>
        <time>2014-12-14T08:29:11Z</time>
      </trkpt>
      <trkpt lat="49.257731" lon="-0.672276">
        <ele>106.5</ele>
        <time>2014-12-14T08:29:15Z</time>
      </trkpt>
      <trkpt lat="49.25778" lon="-0.671975">
        <ele>106.5</ele>
        <time>2014-12-14T08:29:19Z</time>
      </trkpt>
      <trkpt lat="49.257914" lon="-0.671653">
        <ele>106.5</ele>
        <time>2014-12-14T08:29:23Z</time>
      </trkpt>
      <trkpt lat="49.25806" lon="-0.671354">
        <ele>106.5</ele>
        <time>2014-12-14T08:29:27Z</time>
      </trkpt>
      <trkpt lat="49.258198" lon="-0.671027">
        <ele>106.5</ele>
        <time>2014-12-14T08:29:31Z</time>
      </trkpt>
      <trkpt lat="49.258343" lon="-0.6707">
        <ele>106.6</ele>
        <time>2014-12-14T08:29:35Z</time>
      </trkpt>
      <trkpt lat="49.258507" lon="-0.67037">
        <ele>106.4</ele>
        <time>2014-12-14T08:29:39Z</time>
      </trkpt>
      <trkpt lat="49.258661" lon="-0.670053">
        <ele>105.9</ele>
        <time>2014-12-14T08:29:43Z</time>
      </trkpt>
      <trkpt lat="49.258835" lon="-0.669734">
        <ele>106.2</ele>
        <time>2014-12-14T08:29:47Z</time>
      </trkpt>
      <trkpt lat="49.258979" lon="-0.669367">
        <ele>106.1</ele>
        <time>2014-12-14T08:29:51Z</time>
      </trkpt>
      <trkpt lat="49.259153" lon="-0.669014">
        <ele>104.9</ele>
        <time>2014-12-14T08:29:55Z</time>
      </trkpt>
      <trkpt lat="49.259275" lon="-0.668655">
        <ele>104.9</ele>
        <time>2014-12-14T08:29:59Z</time>
      </trkpt>
      <trkpt lat="49.25935" lon="-0.668291">
        <ele>103.7</ele>
        <time>2014-12-14T08:30:03Z</time>
      </trkpt>
      <trkpt lat="49.259386" lon="-0.667863">
        <ele>103.7</ele>
        <time>2014-12-14T08:30:07Z</time>
      </trkpt>
      <trkpt lat="49.259439" lon="-0.667442">
        <ele>102.7</ele>
        <time>2014-12-14T08:30:11Z</time>
      </trkpt>
      <trkpt lat="49.259505" lon="-0.66704">
        <ele>103.5</ele>
        <time>2014-12-14T08:30:15Z</time>
      </trkpt>
      <trkpt lat="49.259552" lon="-0.666657">
        <ele>103.3</ele>
        <time>2014-12-14T08:30:19Z</time>
      </trkpt>
      <trkpt lat="49.259462" lon="-0.666408">
        <ele>103.3</ele>
        <time>2014-12-14T08:30:23Z</time>
      </trkpt>
      <trkpt lat="49.259306" lon="-0.666248">
        <ele>102.1</ele>
        <time>2014-12-14T08:30:27Z</time>
      </trkpt>
      <trkpt lat="49.259144" lon="-0.666072">
        <ele>102.9</ele>
        <time>2014-12-14T08:30:31Z</time>
      </trkpt>
      <trkpt lat="49.25898" lon="-0.665881">
        <ele>103.8</ele>
        <time>2014-12-14T08:30:35Z</time>
      </trkpt>
      <trkpt lat="49.258824" lon="-0.665709">
        <ele>104.5</ele>
        <time>2014-12-14T08:30:39Z</time>
      </trkpt>
      <trkpt lat="49.258666" lon="-0.665524">
        <ele>104.5</ele>
        <time>2014-12-14T08:30:43Z</time>
      </trkpt>
      <trkpt lat="49.258495" lon="-0.665342">
        <ele>106.0</ele>
        <time>2014-12-14T08:30:47Z</time>
      </trkpt>
      <trkpt lat="49.258357" lon="-0.665171">
        <ele>106.0</ele>
        <time>2014-12-14T08:30:51Z</time>
      </trkpt>
      <trkpt lat="49.258203" lon="-0.665006">
        <ele>106.5</ele>
        <time>2014-12-14T08:30:55Z</time>
      </trkpt>
      <trkpt lat="49.258036" lon="-0.664843">
        <ele>107.6</ele>
        <time>2014-12-14T08:30:59Z</time>
      </trkpt>
      <trkpt lat="49.257915" lon="-0.664703">
        <ele>106.7</ele>
        <time>2014-12-14T08:31:03Z</time>
      </trkpt>
      <trkpt lat="49.257754" lon="-0.66452">
        <ele>106.6</ele>
        <time>2014-12-14T08:31:07Z</time>
      </trkpt>
      <trkpt lat="49.257562" lon="-0.664323">
        <ele>107.5</ele>
        <time>2014-12-14T08:31:11Z</time>
      </trkpt>
      <trkpt lat="49.257425" lon="-0.664158">
        <ele>108.9</ele>
        <time>2014-12-14T08:31:15Z</time>
      </trkpt>
      <trkpt lat="49.257297" lon="-0.664022">
        <ele>107.9</ele>
        <time>2014-12-14T08:31:19Z</time>
      </trkpt>
      <trkpt lat="49.257141" lon="-0.663943">
        <ele>107.9</ele>
        <time>2014-12-14T08:31:23Z</time>
      </trkpt>
      <trkpt lat="49.256978" lon="-0.663851">
        <ele>108.7</ele>
        <time>2014-12-14T08:31:27Z</time>
      </trkpt>
      <trkpt lat="49.256791" lon="-0.663767">
        <ele>108.0</ele>
        <time>2014-12-14T08:31:31Z</time>
      </trkpt>
      <trkpt lat="49.256631" lon="-0.663682">
        <ele>107.9</ele>
        <time>2014-12-14T08:31:35Z</time>
      </trkpt>
      <trkpt lat="49.25647" lon="-0.6636">
        <ele>109.3</ele>
        <time>2014-12-14T08:31:39Z</time>
      </trkpt>
      <trkpt lat="49.256359" lon="-0.663551">
        <ele>109.3</ele>
        <time>2014-12-14T08:31:43Z</time>
      </trkpt>
      <trkpt lat="49.256244" lon="-0.663461">
        <ele>109.3</ele>
        <time>2014-12-14T08:31:47Z</time>
      </trkpt>
      <trkpt lat="49.256091" lon="-0.663378">
        <ele>109.9</ele>
        <time>2014-12-14T08:31:51Z</time>
      </trkpt>
      <trkpt lat="49.255939" lon="-0.663315">
        <ele>109.3</ele>
        <time>2014-12-14T08:31:55Z</time>
      </trkpt>
      <trkpt lat="49.255838" lon="-0.663216">
        <ele>110.3</ele>
        <time>2014-12-14T08:31:59Z</time>
      </trkpt>
      <trkpt lat="49.255713" lon="-0.663085">
        <ele>110.3</ele>
        <time>2014-12-14T08:32:03Z</time>
      </trkpt>
      <trkpt lat="49.25557" lon="-0.663001">
        <ele>110.3</ele>
        <time>2014-12-14T08:32:07Z</time>
      </trkpt>
      <trkpt lat="49.255392" lon="-0.66286">
        <ele>111.5</ele>
        <time>2014-12-14T08:32:11Z</time>
      </trkpt>
      <trkpt lat="49.25527" lon="-0.66275">
        <ele>111.5</ele>
        <time>2014-12-14T08:32:15Z</time>
      </trkpt>
      <trkpt lat="49.255123" lon="-0.662644">
        <ele>111.7</ele>
        <time>2014-12-14T08:32:19Z</time>
      </trkpt>
      <trkpt lat="49.254971" lon="-0.662516">
        <ele>111.0</ele>
        <time>2014-12-14T08:32:23Z</time>
      </trkpt>
      <trkpt lat="49.254822" lon="-0.662409">
        <ele>111.5</ele>
        <time>2014-12-14T08:32:27Z</time>
      </trkpt>
      <trkpt lat="49.25467" lon="-0.662278">
        <ele>112.0</ele>
        <time>2014-12-14T08:32:31Z</time>
      </trkpt>
      <trkpt lat="49.254536" lon="-0.662149">
        <ele>112.3</ele>
        <time>2014-12-14T08:32:35Z</time>
      </trkpt>
      <trkpt lat="49.25439" lon="-0.662005">
        <ele>113.0</ele>
        <time>2014-12-14T08:32:39Z</time>
      </trkpt>
      <trkpt lat="49.254249" lon="-0.661959">
        <ele>112.3</ele>
        <time>2014-12-14T08:32:43Z</time>
      </trkpt>
      <trkpt lat="49.254098" lon="-0.661856">
        <ele>113.6</ele>
        <time>2014-12-14T08:32:47Z</time>
      </trkpt>
      <trkpt lat="49.253964" lon="-0.661731">
        <ele>113.6</ele>
        <time>2014-12-14T08:32:51Z</time>
      </trkpt>
      <trkpt lat="49.253786" lon="-0.661596">
        <ele>112.9</ele>
        <time>2014-12-14T08:32:55Z</time>
      </trkpt>
      <trkpt lat="49.253643" lon="-0.661477">
        <ele>114.0</ele>
        <time>2014-12-14T08:32:59Z</time>
      </trkpt>
      <trkpt lat="49.253502" lon="-0.661374">
        <ele>114.2</ele>
        <time>2014-12-14T08:33:03Z</time>
      </trkpt>
      <trkpt lat="49.253361" lon="-0.661295">
        <ele>113.6</ele>
        <time>2014-12-14T08:33:07Z</time>
      </trkpt>
      <trkpt lat="49.253197" lon="-0.661166">
        <ele>113.3</ele>
        <time>2014-12-14T08:33:11Z</time>
      </trkpt>
      <trkpt lat="49.253055" lon="-0.661087">
        <ele>113.6</ele>
        <time>2014-12-14T08:33:15Z</time>
      </trkpt>
      <trkpt lat="49.252885" lon="-0.660941">
        <ele>113.2</ele>
        <time>2014-12-14T08:33:19Z</time>
      </trkpt>
      <trkpt lat="49.252737" lon="-0.660804">
        <ele>113.5</ele>
        <time>2014-12-14T08:33:23Z</time>
      </trkpt>
      <trkpt lat="49.252594" lon="-0.660625">
        <ele>114.3</ele>
        <time>2014-12-14T08:33:27Z</time>
      </trkpt>
      <trkpt lat="49.252465" lon="-0.660489">
        <ele>114.3</ele>
        <time>2014-12-14T08:33:31Z</time>
      </trkpt>
      <trkpt lat="49.252314" lon="-0.660344">
        <ele>114.7</ele>
        <time>2014-12-14T08:33:35Z</time>
      </trkpt>
      <trkpt lat="49.252155" lon="-0.660218">
        <ele>114.3</ele>
        <time>2014-12-14T08:33:39Z</time>
      </trkpt>
      <trkpt lat="49.252009" lon="-0.660065">
        <ele>114.3</ele>
        <time>2014-12-14T08:33:43Z</time>
      </trkpt>
      <trkpt lat="49.25186" lon="-0.659929">
        <ele>114.2</ele>
        <time>2014-12-14T08:33:47Z</time>
      </trkpt>
      <trkpt lat="49.251708" lon="-0.659783">
        <ele>114.8</ele>
        <time>2014-12-14T08:33:51Z</time>
      </trkpt>
      <trkpt lat="49.251552" lon="-0.65967">
        <ele>114.3</ele>
        <time>2014-12-14T08:33:55Z</time>
      </trkpt>
      <trkpt lat="49.251406" lon="-0.659526">
        <ele>115.0</ele>
        <time>2014-12-14T08:33:59Z</time>
      </trkpt>
      <trkpt lat="49.251331" lon="-0.65933">
        <ele>115.0</ele>
        <time>2014-12-14T08:34:03Z</time>
      </trkpt>
      <trkpt lat="49.251385" lon="-0.65909">
        <ele>113.9</ele>
        <time>2014-12-14T08:34:07Z</time>
      </trkpt>
      <trkpt lat="49.25145" lon="-0.658857">
        <ele>114.4</ele>
        <time>2014-12-14T08:34:11Z</time>
      </trkpt>
      <trkpt lat="49.251523" lon="-0.658652">
        <ele>114.1</ele>
        <time>2014-12-14T08:34:15Z</time>
      </trkpt>
      <trkpt lat="49.25159" lon="-0.658457">
        <ele>113.8</ele>
        <time>2014-12-14T08:34:19Z</time>
      </trkpt>
      <trkpt lat="49.251636" lon="-0.658242">
        <ele>114.4</ele>
        <time>2014-12-14T08:34:23Z</time>
      </trkpt>
      <trkpt lat="49.251706" lon="-0.658007">
        <ele>114.6</ele>
        <time>2014-12-14T08:34:27Z</time>
      </trkpt>
      <trkpt lat="49.251784" lon="-0.657756">
        <ele>113.9</ele>
        <time>2014-12-14T08:34:31Z</time>
      </trkpt>
      <trkpt lat="49.251853" lon="-0.657475">
        <ele>114.5</ele>
        <time>2014-12-14T08:34:35Z</time>
      </trkpt>
      <trkpt lat="49.25192" lon="-0.657211">
        <ele>114.8</ele>
        <time>2014-12-14T08:34:39Z</time>
      </trkpt>
      <trkpt lat="49.25199" lon="-0.656959">
        <ele>113.8</ele>
        <time>2014-12-14T08:34:43Z</time>
      </trkpt>
      <trkpt lat="49.252051" lon="-0.656669">
        <ele>114.5</ele>
        <time>2014-12-14T08:34:47Z</time>
      </trkpt>
      <trkpt lat="49.25213" lon="-0.65638">
        <ele>113.7</ele>
        <time>2014-12-14T08:34:51Z</time>
      </trkpt>
      <trkpt lat="49.252222" lon="-0.656135">
        <ele>114.5</ele>
        <time>2014-12-14T08:34:55Z</time>
      </trkpt>
      <trkpt lat="49.252275" lon="-0.655902">
        <ele>114.1</ele>
        <time>2014-12-14T08:34:59Z</time>
      </trkpt>
      <trkpt lat="49.252333" lon="-0.655631">
        <ele>114.7</ele>
        <time>2014-12-14T08:35:03Z</time>
      </trkpt>
      <trkpt lat="49.252381" lon="-0.655334">
        <ele>114.9</ele>
        <time>2014-12-14T08:35:07Z</time>
      </trkpt>
      <trkpt lat="49.252437" lon="-0.655042">
        <ele>114.9</ele>
        <time>2014-12-14T08:35:11Z</time>
      </trkpt>
      <trkpt lat="49.252492" lon="-0.65478">
        <ele>114.6</ele>
        <time>2014-12-14T08:35:15Z</time>
      </trkpt>
      <trkpt lat="49.252548" lon="-0.654547">
        <ele>114.0</ele>
        <time>2014-12-14T08:35:19Z</time>
      </trkpt>
      <trkpt lat="49.252576" lon="-0.654342">
        <ele>113.8</ele>
        <time>2014-12-14T08:35:23Z</time>
      </trkpt>
      <trkpt lat="49.252638" lon="-0.654107">
        <ele>114.4</ele>
        <time>2014-12-14T08:35:27Z</time>
      </trkpt>
      <trkpt lat="49.252652" lon="-0.653823">
        <ele>113.8</ele>
        <time>2014-12-14T08:35:31Z</time>
      </trkpt>
      <trkpt lat="49.252677" lon="-0.653492">
        <ele>113.4</ele>
        <time>2014-12-14T08:35:35Z</time>
      </trkpt>
      <trkpt lat="49.252748" lon="-0.653164">
        <ele>114.3</ele>
        <time>2014-12-14T08:35:39Z</time>
      </trkpt>
      <trkpt lat="49.25279" lon="-0.652895">
        <ele>113.8</ele>
        <time>2014-12-14T08:35:43Z</time>
      </trkpt>
      <trkpt lat="49.252839" lon="-0.652598">
        <ele>113.7</ele>
        <time>2014-12-14T08:35:47Z</time>
      </trkpt>
      <trkpt lat="49.252879" lon="-0.652308">
        <ele>113.8</ele>
        <time>2014-12-14T08:35:51Z</time>
      </trkpt>
      <trkpt lat="49.252912" lon="-0.651994">
        <ele>113.0</ele>
        <time>2014-12-14T08:35:55Z</time>
      </trkpt>
      <trkpt lat="49.252954" lon="-0.651715">
        <ele>113.4</ele>
        <time>2014-12-14T08:35:59Z</time>
      </trkpt>
      <trkpt lat="49.252993" lon="-0.651389">
        <ele>112.3</ele>
        <time>2014-12-14T08:36:03Z</time>
      </trkpt>
      <trkpt lat="49.253027" lon="-0.65106">
        <ele>113.5</ele>
        <time>2014-12-14T08:36:07Z</time>
      </trkpt>
      <trkpt lat="49.25306" lon="-0.650729">
        <ele>113.5</ele>
        <time>2014-12-14T08:36:11Z</time>
      </trkpt>
      <trkpt lat="49.25318" lon="-0.650455">
        <ele>113.8</ele>
        <time>2014-12-14T08:36:15Z</time>
      </trkpt>
      <trkpt lat="49.253326" lon="-0.650177">
        <ele>113.4</ele>
        <time>2014-12-14T08:36:19Z</time>
      </trkpt>
      <trkpt lat="49.253479" lon="-0.649921">
        <ele>113.4</ele>
        <time>2014-12-14T08:36:23Z</time>
      </trkpt>
      <trkpt lat="49.253685" lon="-0.649812">
        <ele>113.2</ele>
        <time>2014-12-14T08:36:27Z</time>
      </trkpt>
      <trkpt lat="49.253847" lon="-0.649654">
        <ele>113.4</ele>
        <time>2014-12-14T08:36:31Z</time>
      </trkpt>
      <trkpt lat="49.253816" lon="-0.649484">
        <ele>112.9</ele>
        <time>2014-12-14T08:36:35Z</time>
      </trkpt>
      <trkpt lat="49.253656" lon="-0.64946">
        <ele>113.5</ele>
        <time>2014-12-14T08:36:39Z</time>
      </trkpt>
      <trkpt lat="49.253458" lon="-0.649384">
        <ele>114.0</ele>
        <time>2014-12-14T08:36:43Z</time>
      </trkpt>
      <trkpt lat="49.253253" lon="-0.649352">
        <ele>114.2</ele>
        <time>2014-12-14T08:36:47Z</time>
      </trkpt>
      <trkpt lat="49.253033" lon="-0.649404">
        <ele>114.2</ele>
        <time>2014-12-14T08:36:51Z</time>
      </trkpt>
      <trkpt lat="49.252844" lon="-0.649505">
        <ele>114.0</ele>
        <time>2014-12-14T08:36:55Z</time>
      </trkpt>
      <trkpt lat="49.252628" lon="-0.649566">
        <ele>114.5</ele>
        <time>2014-12-14T08:36:59Z</time>
      </trkpt>
      <trkpt lat="49.252402" lon="-0.649639">
        <ele>114.5</ele>
        <time>2014-12-14T08:37:03Z</time>
      </trkpt>
      <trkpt lat="49.252201" lon="-0.649751">
        <ele>114.5</ele>
        <time>2014-12-14T08:37:07Z</time>
      </trkpt>
      <trkpt lat="49.251971" lon="-0.649872">
        <ele>114.1</ele>
        <time>2014-12-14T08:37:11Z</time>
      </trkpt>
      <trkpt lat="49.251729" lon="-0.650039">
        <ele>114.1</ele>
        <time>2014-12-14T08:37:15Z</time>
      </trkpt>
      <trkpt lat="49.251563" lon="-0.650303">
        <ele>114.1</ele>
        <time>2014-12-14T08:37:19Z</time>
      </trkpt>
      <trkpt lat="49.251346" lon="-0.65049">
        <ele>113.2</ele>
        <time>2014-12-14T08:37:23Z</time>
      </trkpt>
      <trkpt lat="49.251185" lon="-0.650719">
        <ele>112.4</ele>
        <time>2014-12-14T08:37:27Z</time>
      </trkpt>
      <trkpt lat="49.251074" lon="-0.651002">
        <ele>112.2</ele>
        <time>2014-12-14T08:37:31Z</time>
      </trkpt>
      <trkpt lat="49.250974" lon="-0.651256">
        <ele>112.7</ele>
        <time>2014-12-14T08:37:35Z</time>
      </trkpt>
      <trkpt lat="49.250879" lon="-0.651543">
        <ele>113.2</ele>
        <time>2014-12-14T08:37:39Z</time>
      </trkpt>
      <trkpt lat="49.250797" lon="-0.651851">
        <ele>113.5</ele>
        <time>2014-12-14T08:37:43Z</time>
      </trkpt>
      <trkpt lat="49.250733" lon="-0.652177">
        <ele>113.6</ele>
        <time>2014-12-14T08:37:47Z</time>
      </trkpt>
      <trkpt lat="49.250724" lon="-0.652518">
        <ele>114.0</ele>
        <time>2014-12-14T08:37:51Z</time>
      </trkpt>
      <trkpt lat="49.250738" lon="-0.6528">
        <ele>113.8</ele>
        <time>2014-12-14T08:37:55Z</time>
      </trkpt>
      <trkpt lat="49.250766" lon="-0.653076">
        <ele>113.8</ele>
        <time>2014-12-14T08:37:59Z</time>
      </trkpt>
      <trkpt lat="49.250796" lon="-0.65339">
        <ele>113.8</ele>
        <time>2014-12-14T08:38:03Z</time>
      </trkpt>
      <trkpt lat="49.250849" lon="-0.653654">
        <ele>114.2</ele>
        <time>2014-12-14T08:38:07Z</time>
      </trkpt>
      <trkpt lat="49.250834" lon="-0.653898">
        <ele>113.9</ele>
        <time>2014-12-14T08:38:11Z</time>
      </trkpt>
      <trkpt lat="49.250673" lon="-0.654048">
        <ele>114.0</ele>
        <time>2014-12-14T08:38:15Z</time>
      </trkpt>
      <trkpt lat="49.250454" lon="-0.654111">
        <ele>114.0</ele>
        <time>2014-12-14T08:38:19Z</time>
      </trkpt>
      <trkpt lat="49.250221" lon="-0.654115">
        <ele>113.5</ele>
        <time>2014-12-14T08:38:23Z</time>
      </trkpt>
      <trkpt lat="49.250007" lon="-0.65406">
        <ele>113.5</ele>
        <time>2014-12-14T08:38:27Z</time>
      </trkpt>
      <trkpt lat="49.249748" lon="-0.654055">
        <ele>113.0</ele>
        <time>2014-12-14T08:38:31Z</time>
      </trkpt>
      <trkpt lat="49.249527" lon="-0.654068">
        <ele>112.1</ele>
        <time>2014-12-14T08:38:35Z</time>
      </trkpt>
      <trkpt lat="49.249295" lon="-0.654112">
        <ele>111.8</ele>
        <time>2014-12-14T08:38:39Z</time>
      </trkpt>
      <trkpt lat="49.249081" lon="-0.654159">
        <ele>111.0</ele>
        <time>2014-12-14T08:38:43Z</time>
      </trkpt>
      <trkpt lat="49.248887" lon="-0.654301">
        <ele>110.6</ele>
        <time>2014-12-14T08:38:47Z</time>
      </trkpt>
      <trkpt lat="49.248698" lon="-0.654229">
        <ele>109.3</ele>
        <time>2014-12-14T08:38:51Z</time>
      </trkpt>
      <trkpt lat="49.248482" lon="-0.654195">
        <ele>108.9</ele>
        <time>2014-12-14T08:38:55Z</time>
      </trkpt>
      <trkpt lat="49.24821" lon="-0.654245">
        <ele>108.9</ele>
        <time>2014-12-14T08:38:59Z</time>
      </trkpt>
      <trkpt lat="49.247963" lon="-0.654291">
        <ele>107.5</ele>
        <time>2014-12-14T08:39:03Z</time>
      </trkpt>
      <trkpt lat="49.24772" lon="-0.654326">
        <ele>106.4</ele>
        <time>2014-12-14T08:39:07Z</time>
      </trkpt>
      <trkpt lat="49.24753" lon="-0.654265">
        <ele>105.1</ele>
        <time>2014-12-14T08:39:11Z</time>
      </trkpt>
      <trkpt lat="49.247455" lon="-0.65409">
        <ele>104.2</ele>
        <time>2014-12-14T08:39:15Z</time>
      </trkpt>
      <trkpt lat="49.247394" lon="-0.653842">
        <ele>105.3</ele>
        <time>2014-12-14T08:39:19Z</time>
      </trkpt>
      <trkpt lat="49.247322" lon="-0.653515">
        <ele>105.6</ele>
        <time>2014-12-14T08:39:23Z</time>
      </trkpt>
      <trkpt lat="49.247258" lon="-0.653177">
        <ele>106.5</ele>
        <time>2014-12-14T08:39:27Z</time>
      </trkpt>
      <trkpt lat="49.247182" lon="-0.652837">
        <ele>107.3</ele>
        <time>2014-12-14T08:39:31Z</time>
      </trkpt>
      <trkpt lat="49.247136" lon="-0.652471">
        <ele>107.8</ele>
        <time>2014-12-14T08:39:35Z</time>
      </trkpt>
      <trkpt lat="49.247032" lon="-0.652118">
        <ele>107.4</ele>
        <time>2014-12-14T08:39:39Z</time>
      </trkpt>
      <trkpt lat="49.246973" lon="-0.65181">
        <ele>106.8</ele>
        <time>2014-12-14T08:39:43Z</time>
      </trkpt>
      <trkpt lat="49.246911" lon="-0.65145">
        <ele>107.8</ele>
        <time>2014-12-14T08:39:47Z</time>
      </trkpt>
      <trkpt lat="49.246856" lon="-0.651141">
        <ele>106.7</ele>
        <time>2014-12-14T08:39:51Z</time>
      </trkpt>
      <trkpt lat="49.246757" lon="-0.650759">
        <ele>106.1</ele>
        <time>2014-12-14T08:39:55Z</time>
      </trkpt>
      <trkpt lat="49.246677" lon="-0.650442">
        <ele>106.2</ele>
        <time>2014-12-14T08:39:59Z</time>
      </trkpt>
      <trkpt lat="49.246633" lon="-0.650083">
        <ele>105.2</ele>
        <time>2014-12-14T08:40:03Z</time>
      </trkpt>
      <trkpt lat="49.246496" lon="-0.649799">
        <ele>104.7</ele>
        <time>2014-12-14T08:40:07Z</time>
      </trkpt>
      <trkpt lat="49.246343" lon="-0.64968">
        <ele>104.6</ele>
        <time>2014-12-14T08:40:11Z</time>
      </trkpt>
      <trkpt lat="49.246136" lon="-0.649597">
        <ele>104.3</ele>
        <time>2014-12-14T08:40:15Z</time>
      </trkpt>
      <trkpt lat="49.245906" lon="-0.649527">
        <ele>104.3</ele>
        <time>2014-12-14T08:40:19Z</time>
      </trkpt>
      <trkpt lat="49.245672" lon="-0.649429">
        <ele>103.6</ele>
        <time>2014-12-14T08:40:23Z</time>
      </trkpt>
      <trkpt lat="49.245465" lon="-0.649337">
        <ele>103.6</ele>
        <time>2014-12-14T08:40:27Z</time>
      </trkpt>
      <trkpt lat="49.245239" lon="-0.649238">
        <ele>102.4</ele>
        <time>2014-12-14T08:40:31Z</time>
      </trkpt>
      <trkpt lat="49.244951" lon="-0.649098">
        <ele>101.0</ele>
        <time>2014-12-14T08:40:35Z</time>
      </trkpt>
      <trkpt lat="49.244645" lon="-0.648932">
        <ele>101.0</ele>
        <time>2014-12-14T08:40:39Z</time>
      </trkpt>
      <trkpt lat="49.244378" lon="-0.648762">
        <ele>98.7</ele>
        <time>2014-12-14T08:40:43Z</time>
      </trkpt>
      <trkpt lat="49.244091" lon="-0.648625">
        <ele>96.2</ele>
        <time>2014-12-14T08:40:47Z</time>
      </trkpt>
      <trkpt lat="49.243823" lon="-0.648486">
        <ele>95.9</ele>
        <time>2014-12-14T08:40:51Z</time>
      </trkpt>
      <trkpt lat="49.243545" lon="-0.648325">
        <ele>91.6</ele>
        <time>2014-12-14T08:40:55Z</time>
      </trkpt>
      <trkpt lat="49.243376" lon="-0.648243">
        <ele>90.5</ele>
        <time>2014-12-14T08:40:59Z</time>
      </trkpt>
      <trkpt lat="49.243299" lon="-0.648431">
        <ele>89.3</ele>
        <time>2014-12-14T08:41:03Z</time>
      </trkpt>
      <trkpt lat="49.243294" lon="-0.64869">
        <ele>89.3</ele>
        <time>2014-12-14T08:41:07Z</time>
      </trkpt>
      <trkpt lat="49.243223" lon="-0.649033">
        <ele>89.6</ele>
        <time>2014-12-14T08:41:11Z</time>
      </trkpt>
      <trkpt lat="49.243166" lon="-0.649353">
        <ele>90.6</ele>
        <time>2014-12-14T08:41:15Z</time>
      </trkpt>
      <trkpt lat="49.243168" lon="-0.649752">
        <ele>89.6</ele>
        <time>2014-12-14T08:41:19Z</time>
      </trkpt>
      <trkpt lat="49.243153" lon="-0.650119">
        <ele>89.6</ele>
        <time>2014-12-14T08:41:23Z</time>
      </trkpt>
      <trkpt lat="49.243093" lon="-0.650413">
        <ele>90.0</ele>
        <time>2014-12-14T08:41:27Z</time>
      </trkpt>
      <trkpt lat="49.242899" lon="-0.650446">
        <ele>88.9</ele>
        <time>2014-12-14T08:41:31Z</time>
      </trkpt>
      <trkpt lat="49.242674" lon="-0.650382">
        <ele>87.8</ele>
        <time>2014-12-14T08:41:35Z</time>
      </trkpt>
      <trkpt lat="49.242477" lon="-0.650361">
        <ele>88.8</ele>
        <time>2014-12-14T08:41:39Z</time>
      </trkpt>
      <trkpt lat="49.242355" lon="-0.650447">
        <ele>89.9</ele>
        <time>2014-12-14T08:41:43Z</time>
      </trkpt>
      <trkpt lat="49.242398" lon="-0.650662">
        <ele>91.0</ele>
        <time>2014-12-14T08:41:47Z</time>
      </trkpt>
      <trkpt lat="49.242435" lon="-0.650945">
        <ele>90.5</ele>
        <time>2014-12-14T08:41:51Z</time>
      </trkpt>
      <trkpt lat="49.242467" lon="-0.65123">
        <ele>91.8</ele>
        <time>2014-12-14T08:41:55Z</time>
      </trkpt>
      <trkpt lat="49.242546" lon="-0.651482">
        <ele>91.8</ele>
        <time>2014-12-14T08:41:59Z</time>
      </trkpt>
      <trkpt lat="49.242573" lon="-0.651761">
        <ele>91.2</ele>
        <time>2014-12-14T08:42:03Z</time>
      </trkpt>
      <trkpt lat="49.242444" lon="-0.652019">
        <ele>92.3</ele>
        <time>2014-12-14T08:42:07Z</time>
      </trkpt>
      <trkpt lat="49.242343" lon="-0.651947">
        <ele>93.7</ele>
        <time>2014-12-14T08:42:11Z</time>
      </trkpt>
      <trkpt lat="49.242211" lon="-0.651805">
        <ele>94.7</ele>
        <time>2014-12-14T08:42:15Z</time>
      </trkpt>
      <trkpt lat="49.242084" lon="-0.651686">
        <ele>94.7</ele>
        <time>2014-12-14T08:42:19Z</time>
      </trkpt>
      <trkpt lat="49.241969" lon="-0.651585">
        <ele>95.8</ele>
        <time>2014-12-14T08:42:23Z</time>
      </trkpt>
      <trkpt lat="49.24188" lon="-0.65146">
        <ele>97.0</ele>
        <time>2014-12-14T08:42:27Z</time>
      </trkpt>
      <trkpt lat="49.241736" lon="-0.65131">
        <ele>97.0</ele>
        <time>2014-12-14T08:42:31Z</time>
      </trkpt>
      <trkpt lat="49.241637" lon="-0.65118">
        <ele>99.4</ele>
        <time>2014-12-14T08:42:35Z</time>
      </trkpt>
      <trkpt lat="49.241522" lon="-0.651041">
        <ele>99.4</ele>
        <time>2014-12-14T08:42:39Z</time>
      </trkpt>
      <trkpt lat="49.241385" lon="-0.650852">
        <ele>98.8</ele>
        <time>2014-12-14T08:42:43Z</time>
      </trkpt>
      <trkpt lat="49.241261" lon="-0.650687">
        <ele>99.7</ele>
        <time>2014-12-14T08:42:47Z</time>
      </trkpt>
      <trkpt lat="49.241082" lon="-0.650468">
        <ele>99.9</ele>
        <time>2014-12-14T08:42:51Z</time>
      </trkpt>
      <trkpt lat="49.240945" lon="-0.650251">
        <ele>99.9</ele>
        <time>2014-12-14T08:42:55Z</time>
      </trkpt>
      <trkpt lat="49.240779" lon="-0.650019">
        <ele>99.9</ele>
        <time>2014-12-14T08:42:59Z</time>
      </trkpt>
      <trkpt lat="49.240662" lon="-0.649837">
        <ele>100.3</ele>
        <time>2014-12-14T08:43:03Z</time>
      </trkpt>
      <trkpt lat="49.240494" lon="-0.649604">
        <ele>99.9</ele>
        <time>2014-12-14T08:43:07Z</time>
      </trkpt>
      <trkpt lat="49.240311" lon="-0.649386">
        <ele>99.9</ele>
        <time>2014-12-14T08:43:11Z</time>
      </trkpt>
      <trkpt lat="49.240124" lon="-0.649133">
        <ele>98.1</ele>
        <time>2014-12-14T08:43:15Z</time>
      </trkpt>
      <trkpt lat="49.239921" lon="-0.648884">
        <ele>96.8</ele>
        <time>2014-12-14T08:43:19Z</time>
      </trkpt>
      <trkpt lat="49.239722" lon="-0.64859">
        <ele>95.5</ele>
        <time>2014-12-14T08:43:23Z</time>
      </trkpt>
      <trkpt lat="49.239555" lon="-0.648285">
        <ele>93.7</ele>
        <time>2014-12-14T08:43:27Z</time>
      </trkpt>
      <trkpt lat="49.239378" lon="-0.647997">
        <ele>91.6</ele>
        <time>2014-12-14T08:43:31Z</time>
      </trkpt>
      <trkpt lat="49.239256" lon="-0.64784">
        <ele>89.5</ele>
        <time>2014-12-14T08:43:35Z</time>
      </trkpt>
      <trkpt lat="49.239127" lon="-0.647633">
        <ele>89.0</ele>
        <time>2014-12-14T08:43:39Z</time>
      </trkpt>
      <trkpt lat="49.238971" lon="-0.647381">
        <ele>89.7</ele>
        <time>2014-12-14T08:43:43Z</time>
      </trkpt>
      <trkpt lat="49.238837" lon="-0.647185">
        <ele>89.7</ele>
        <time>2014-12-14T08:43:47Z</time>
      </trkpt>
      <trkpt lat="49.238687" lon="-0.647032">
        <ele>91.1</ele>
        <time>2014-12-14T08:43:51Z</time>
      </trkpt>
      <trkpt lat="49.238529" lon="-0.646941">
        <ele>91.8</ele>
        <time>2014-12-14T08:43:55Z</time>
      </trkpt>
      <trkpt lat="49.238344" lon="-0.647186">
        <ele>90.5</ele>
        <time>2014-12-14T08:43:59Z</time>
      </trkpt>
      <trkpt lat="49.238254" lon="-0.647534">
        <ele>89.5</ele>
        <time>2014-12-14T08:44:03Z</time>
      </trkpt>
      <trkpt lat="49.238117" lon="-0.647913">
        <ele>89.5</ele>
        <time>2014-12-14T08:44:07Z</time>
      </trkpt>
      <trkpt lat="49.23794" lon="-0.648031">
        <ele>88.4</ele>
        <time>2014-12-14T08:44:11Z</time>
      </trkpt>
      <trkpt lat="49.237738" lon="-0.64794">
        <ele>88.3</ele>
        <time>2014-12-14T08:44:15Z</time>
      </trkpt>
      <trkpt lat="49.237551" lon="-0.647821">
        <ele>88.6</ele>
        <time>2014-12-14T08:44:19Z</time>
      </trkpt>
      <trkpt lat="49.237531" lon="-0.647654">
        <ele>88.1</ele>
        <time>2014-12-14T08:44:23Z</time>
      </trkpt>
      <trkpt lat="49.23752" lon="-0.64759">
        <ele>89.1</ele>
        <time>2014-12-14T08:44:27Z</time>
      </trkpt>
      <trkpt lat="49.237508" lon="-0.647473">
        <ele>89.1</ele>
        <time>2014-12-14T08:44:31Z</time>
      </trkpt>
      <trkpt lat="49.237482" lon="-0.647347">
        <ele>90.4</ele>
        <time>2014-12-14T08:44:35Z</time>
      </trkpt>
      <trkpt lat="49.23746" lon="-0.647218">
        <ele>92.3</ele>
        <time>2014-12-14T08:44:39Z</time>
      </trkpt>
      <trkpt lat="49.23746" lon="-0.647137">
        <ele>92.9</ele>
        <time>2014-12-14T08:44:43Z</time>
      </trkpt>
      <trkpt lat="49.237441" lon="-0.647077">
        <ele>94.1</ele>
        <time>2014-12-14T08:44:47Z</time>
      </trkpt>
      <trkpt lat="49.237383" lon="-0.646941">
        <ele>95.1</ele>
        <time>2014-12-14T08:44:51Z</time>
      </trkpt>
      <trkpt lat="49.23739" lon="-0.646855">
        <ele>95.9</ele>
        <time>2014-12-14T08:44:55Z</time>
      </trkpt>
      <trkpt lat="49.237411" lon="-0.646771">
        <ele>96.7</ele>
        <time>2014-12-14T08:44:59Z</time>
      </trkpt>
      <trkpt lat="49.237385" lon="-0.646575">
        <ele>97.6</ele>
        <time>2014-12-14T08:45:03Z</time>
      </trkpt>
      <trkpt lat="49.237373" lon="-0.64647">
        <ele>98.1</ele>
        <time>2014-12-14T08:45:07Z</time>
      </trkpt>
      <trkpt lat="49.237376" lon="-0.646336">
        <ele>98.1</ele>
        <time>2014-12-14T08:45:11Z</time>
      </trkpt>
      <trkpt lat="49.237406" lon="-0.646264">
        <ele>99.3</ele>
        <time>2014-12-14T08:45:15Z</time>
      </trkpt>
      <trkpt lat="49.237386" lon="-0.646205">
        <ele>99.9</ele>
        <time>2014-12-14T08:45:19Z</time>
      </trkpt>
      <trkpt lat="49.237425" lon="-0.646048">
        <ele>100.4</ele>
        <time>2014-12-14T08:45:23Z</time>
      </trkpt>
      <trkpt lat="49.237331" lon="-0.645929">
        <ele>100.8</ele>
        <time>2014-12-14T08:45:27Z</time>
      </trkpt>
      <trkpt lat="49.237301" lon="-0.645853">
        <ele>101.6</ele>
        <time>2014-12-14T08:45:31Z</time>
      </trkpt>
      <trkpt lat="49.237235" lon="-0.645811">
        <ele>101.7</ele>
        <time>2014-12-14T08:45:35Z</time>
      </trkpt>
      <trkpt lat="49.237155" lon="-0.645753">
        <ele>100.8</ele>
        <time>2014-12-14T08:45:39Z</time>
      </trkpt>
      <trkpt lat="49.237089" lon="-0.645609">
        <ele>100.8</ele>
        <time>2014-12-14T08:45:43Z</time>
      </trkpt>
      <trkpt lat="49.236972" lon="-0.645491">
        <ele>101.8</ele>
        <time>2014-12-14T08:45:47Z</time>
      </trkpt>
      <trkpt lat="49.236889" lon="-0.645328">
        <ele>101.8</ele>
        <time>2014-12-14T08:45:51Z</time>
      </trkpt>
      <trkpt lat="49.236819" lon="-0.645195">
        <ele>102.8</ele>
        <time>2014-12-14T08:45:55Z</time>
      </trkpt>
      <trkpt lat="49.236754" lon="-0.645084">
        <ele>102.8</ele>
        <time>2014-12-14T08:45:59Z</time>
      </trkpt>
      <trkpt lat="49.236664" lon="-0.644977">
        <ele>102.8</ele>
        <time>2014-12-14T08:46:03Z</time>
      </trkpt>
      <trkpt lat="49.236596" lon="-0.644892">
        <ele>103.3</ele>
        <time>2014-12-14T08:46:07Z</time>
      </trkpt>
      <trkpt lat="49.236481" lon="-0.644792">
        <ele>103.1</ele>
        <time>2014-12-14T08:46:11Z</time>
      </trkpt>
      <trkpt lat="49.236417" lon="-0.644695">
        <ele>103.1</ele>
        <time>2014-12-14T08:46:15Z</time>
      </trkpt>
      <trkpt lat="49.236329" lon="-0.644565">
        <ele>102.4</ele>
        <time>2014-12-14T08:46:19Z</time>
      </trkpt>
      <trkpt lat="49.236246" lon="-0.64449">
        <ele>103.0</ele>
        <time>2014-12-14T08:46:23Z</time>
      </trkpt>
      <trkpt lat="49.236159" lon="-0.644436">
        <ele>103.0</ele>
        <time>2014-12-14T08:46:27Z</time>
      </trkpt>
      <trkpt lat="49.236084" lon="-0.644328">
        <ele>103.7</ele>
        <time>2014-12-14T08:46:31Z</time>
      </trkpt>
      <trkpt lat="49.235986" lon="-0.644196">
        <ele>104.0</ele>
        <time>2014-12-14T08:46:35Z</time>
      </trkpt>
      <trkpt lat="49.235901" lon="-0.644053">
        <ele>104.3</ele>
        <time>2014-12-14T08:46:39Z</time>
      </trkpt>
      <trkpt lat="49.235832" lon="-0.643921">
        <ele>104.1</ele>
        <time>2014-12-14T08:46:43Z</time>
      </trkpt>
      <trkpt lat="49.235766" lon="-0.643819">
        <ele>104.6</ele>
        <time>2014-12-14T08:46:47Z</time>
      </trkpt>
      <trkpt lat="49.235699" lon="-0.643703">
        <ele>104.5</ele>
        <time>2014-12-14T08:46:51Z</time>
      </trkpt>
      <trkpt lat="49.235603" lon="-0.643583">
        <ele>104.7</ele>
        <time>2014-12-14T08:46:55Z</time>
      </trkpt>
      <trkpt lat="49.235507" lon="-0.643437">
        <ele>104.7</ele>
        <time>2014-12-14T08:46:59Z</time>
      </trkpt>
      <trkpt lat="49.235402" lon="-0.643362">
        <ele>105.8</ele>
        <time>2014-12-14T08:47:03Z</time>
      </trkpt>
      <trkpt lat="49.235298" lon="-0.643257">
        <ele>105.6</ele>
        <time>2014-12-14T08:47:07Z</time>
      </trkpt>
      <trkpt lat="49.235187" lon="-0.643124">
        <ele>105.7</ele>
        <time>2014-12-14T08:47:11Z</time>
      </trkpt>
      <trkpt lat="49.235094" lon="-0.643015">
        <ele>105.8</ele>
        <time>2014-12-14T08:47:15Z</time>
      </trkpt>
      <trkpt lat="49.234977" lon="-0.642888">
        <ele>105.2</ele>
        <time>2014-12-14T08:47:19Z</time>
      </trkpt>
      <trkpt lat="49.234888" lon="-0.642765">
        <ele>105.8</ele>
        <time>2014-12-14T08:47:23Z</time>
      </trkpt>
      <trkpt lat="49.234793" lon="-0.64266">
        <ele>105.8</ele>
        <time>2014-12-14T08:47:27Z</time>
      </trkpt>
      <trkpt lat="49.234713" lon="-0.642552">
        <ele>107.0</ele>
        <time>2014-12-14T08:47:31Z</time>
      </trkpt>
      <trkpt lat="49.234607" lon="-0.642438">
        <ele>107.0</ele>
        <time>2014-12-14T08:47:35Z</time>
      </trkpt>
      <trkpt lat="49.23448" lon="-0.64228">
        <ele>107.3</ele>
        <time>2014-12-14T08:47:39Z</time>
      </trkpt>
      <trkpt lat="49.234356" lon="-0.642064">
        <ele>106.3</ele>
        <time>2014-12-14T08:47:43Z</time>
      </trkpt>
      <trkpt lat="49.234238" lon="-0.641854">
        <ele>106.3</ele>
        <time>2014-12-14T08:47:47Z</time>
      </trkpt>
      <trkpt lat="49.234111" lon="-0.641683">
        <ele>106.2</ele>
        <time>2014-12-14T08:47:51Z</time>
      </trkpt>
      <trkpt lat="49.233976" lon="-0.641521">
        <ele>106.6</ele>
        <time>2014-12-14T08:47:55Z</time>
      </trkpt>
      <trkpt lat="49.233847" lon="-0.641336">
        <ele>106.3</ele>
        <time>2014-12-14T08:47:59Z</time>
      </trkpt>
      <trkpt lat="49.2337" lon="-0.641138">
        <ele>106.3</ele>
        <time>2014-12-14T08:48:03Z</time>
      </trkpt>
      <trkpt lat="49.233519" lon="-0.640919">
        <ele>106.5</ele>
        <time>2014-12-14T08:48:07Z</time>
      </trkpt>
      <trkpt lat="49.23338" lon="-0.640738">
        <ele>105.9</ele>
        <time>2014-12-14T08:48:11Z</time>
      </trkpt>
      <trkpt lat="49.233234" lon="-0.640573">
        <ele>105.9</ele>
        <time>2014-12-14T08:48:15Z</time>
      </trkpt>
      <trkpt lat="49.233102" lon="-0.64039">
        <ele>105.0</ele>
        <time>2014-12-14T08:48:19Z</time>
      </trkpt>
      <trkpt lat="49.232941" lon="-0.640181">
        <ele>104.8</ele>
        <time>2014-12-14T08:48:23Z</time>
      </trkpt>
      <trkpt lat="49.232814" lon="-0.639999">
        <ele>104.4</ele>
        <time>2014-12-14T08:48:27Z</time>
      </trkpt>
      <trkpt lat="49.232708" lon="-0.639814">
        <ele>103.9</ele>
        <time>2014-12-14T08:48:31Z</time>
      </trkpt>
      <trkpt lat="49.2326" lon="-0.639669">
        <ele>103.6</ele>
        <time>2014-12-14T08:48:35Z</time>
      </trkpt>
      <trkpt lat="49.232482" lon="-0.63957">
        <ele>103.2</ele>
        <time>2014-12-14T08:48:39Z</time>
      </trkpt>
      <trkpt lat="49.232371" lon="-0.639454">
        <ele>103.2</ele>
        <time>2014-12-14T08:48:43Z</time>
      </trkpt>
      <trkpt lat="49.232324" lon="-0.63935">
        <ele>103.8</ele>
        <time>2014-12-14T08:48:47Z</time>
      </trkpt>
      <trkpt lat="49.232272" lon="-0.639276">
        <ele>102.4</ele>
        <time>2014-12-14T08:48:51Z</time>
      </trkpt>
      <trkpt lat="49.232231" lon="-0.639214">
        <ele>102.3</ele>
        <time>2014-12-14T08:48:55Z</time>
      </trkpt>
      <trkpt lat="49.232174" lon="-0.639122">
        <ele>101.9</ele>
        <time>2014-12-14T08:48:59Z</time>
      </trkpt>
      <trkpt lat="49.232107" lon="-0.639047">
        <ele>101.7</ele>
        <time>2014-12-14T08:49:03Z</time>
      </trkpt>
      <trkpt lat="49.232059" lon="-0.638984">
        <ele>102.5</ele>
        <time>2014-12-14T08:49:07Z</time>
      </trkpt>
      <trkpt lat="49.231974" lon="-0.638863">
        <ele>101.7</ele>
        <time>2014-12-14T08:49:11Z</time>
      </trkpt>
      <trkpt lat="49.23186" lon="-0.638713">
        <ele>101.3</ele>
        <time>2014-12-14T08:49:15Z</time>
      </trkpt>
      <trkpt lat="49.231758" lon="-0.63859">
        <ele>100.6</ele>
        <time>2014-12-14T08:49:19Z</time>
      </trkpt>
      <trkpt lat="49.231644" lon="-0.638471">
        <ele>100.4</ele>
        <time>2014-12-14T08:49:23Z</time>
      </trkpt>
      <trkpt lat="49.231598" lon="-0.638373">
        <ele>101.5</ele>
        <time>2014-12-14T08:49:27Z</time>
      </trkpt>
      <trkpt lat="49.231512" lon="-0.638298">
        <ele>100.8</ele>
        <time>2014-12-14T08:49:31Z</time>
      </trkpt>
      <trkpt lat="49.231443" lon="-0.638199">
        <ele>100.8</ele>
        <time>2014-12-14T08:49:35Z</time>
      </trkpt>
      <trkpt lat="49.231355" lon="-0.63808">
        <ele>102.1</ele>
        <time>2014-12-14T08:49:39Z</time>
      </trkpt>
      <trkpt lat="49.231249" lon="-0.637956">
        <ele>102.6</ele>
        <time>2014-12-14T08:49:43Z</time>
      </trkpt>
      <trkpt lat="49.231161" lon="-0.637814">
        <ele>102.1</ele>
        <time>2014-12-14T08:49:47Z</time>
      </trkpt>
      <trkpt lat="49.231089" lon="-0.637721">
        <ele>102.4</ele>
        <time>2014-12-14T08:49:51Z</time>
      </trkpt>
      <trkpt lat="49.230993" lon="-0.637604">
        <ele>103.8</ele>
        <time>2014-12-14T08:49:55Z</time>
      </trkpt>
      <trkpt lat="49.230873" lon="-0.637456">
        <ele>104.1</ele>
        <time>2014-12-14T08:49:59Z</time>
      </trkpt>
      <trkpt lat="49.230774" lon="-0.637363">
        <ele>103.1</ele>
        <time>2014-12-14T08:50:03Z</time>
      </trkpt>
      <trkpt lat="49.230685" lon="-0.637276">
        <ele>103.3</ele>
        <time>2014-12-14T08:50:07Z</time>
      </trkpt>
      <trkpt lat="49.230597" lon="-0.637151">
        <ele>103.3</ele>
        <time>2014-12-14T08:50:11Z</time>
      </trkpt>
      <trkpt lat="49.23049" lon="-0.637027">
        <ele>103.7</ele>
        <time>2014-12-14T08:50:15Z</time>
      </trkpt>
      <trkpt lat="49.230366" lon="-0.636898">
        <ele>102.9</ele>
        <time>2014-12-14T08:50:19Z</time>
      </trkpt>
      <trkpt lat="49.230234" lon="-0.636761">
        <ele>102.7</ele>
        <time>2014-12-14T08:50:23Z</time>
      </trkpt>
      <trkpt lat="49.230081" lon="-0.636618">
        <ele>103.8</ele>
        <time>2014-12-14T08:50:27Z</time>
      </trkpt>
      <trkpt lat="49.229922" lon="-0.636463">
        <ele>103.0</ele>
        <time>2014-12-14T08:50:31Z</time>
      </trkpt>
      <trkpt lat="49.229756" lon="-0.636293">
        <ele>101.8</ele>
        <time>2014-12-14T08:50:35Z</time>
      </trkpt>
      <trkpt lat="49.229592" lon="-0.636149">
        <ele>100.6</ele>
        <time>2014-12-14T08:50:39Z</time>
      </trkpt>
      <trkpt lat="49.229437" lon="-0.636002">
        <ele>99.9</ele>
        <time>2014-12-14T08:50:43Z</time>
      </trkpt>
      <trkpt lat="49.229299" lon="-0.635864">
        <ele>99.9</ele>
        <time>2014-12-14T08:50:47Z</time>
      </trkpt>
      <trkpt lat="49.229127" lon="-0.635706">
        <ele>98.8</ele>
        <time>2014-12-14T08:50:51Z</time>
      </trkpt>
      <trkpt lat="49.228963" lon="-0.635581">
        <ele>98.4</ele>
        <time>2014-12-14T08:50:55Z</time>
      </trkpt>
      <trkpt lat="49.228781" lon="-0.635483">
        <ele>97.7</ele>
        <time>2014-12-14T08:50:59Z</time>
      </trkpt>
      <trkpt lat="49.228635" lon="-0.635382">
        <ele>98.0</ele>
        <time>2014-12-14T08:51:03Z</time>
      </trkpt>
      <trkpt lat="49.228497" lon="-0.635295">
        <ele>97.7</ele>
        <time>2014-12-14T08:51:07Z</time>
      </trkpt>
      <trkpt lat="49.228318" lon="-0.635243">
        <ele>98.9</ele>
        <time>2014-12-14T08:51:11Z</time>
      </trkpt>
      <trkpt lat="49.22814" lon="-0.635122">
        <ele>99.4</ele>
        <time>2014-12-14T08:51:15Z</time>
      </trkpt>
      <trkpt lat="49.227938" lon="-0.635035">
        <ele>99.2</ele>
        <time>2014-12-14T08:51:19Z</time>
      </trkpt>
      <trkpt lat="49.227731" lon="-0.634927">
        <ele>98.1</ele>
        <time>2014-12-14T08:51:23Z</time>
      </trkpt>
      <trkpt lat="49.227511" lon="-0.634873">
        <ele>97.3</ele>
        <time>2014-12-14T08:51:27Z</time>
      </trkpt>
      <trkpt lat="49.227227" lon="-0.634863">
        <ele>95.8</ele>
        <time>2014-12-14T08:51:31Z</time>
      </trkpt>
      <trkpt lat="49.226957" lon="-0.634835">
        <ele>94.6</ele>
        <time>2014-12-14T08:51:35Z</time>
      </trkpt>
      <trkpt lat="49.226695" lon="-0.634864">
        <ele>94.6</ele>
        <time>2014-12-14T08:51:39Z</time>
      </trkpt>
      <trkpt lat="49.226423" lon="-0.634868">
        <ele>93.4</ele>
        <time>2014-12-14T08:51:43Z</time>
      </trkpt>
      <trkpt lat="49.226186" lon="-0.634859">
        <ele>92.3</ele>
        <time>2014-12-14T08:51:47Z</time>
      </trkpt>
      <trkpt lat="49.225952" lon="-0.634872">
        <ele>93.0</ele>
        <time>2014-12-14T08:51:51Z</time>
      </trkpt>
      <trkpt lat="49.225801" lon="-0.634979">
        <ele>94.2</ele>
        <time>2014-12-14T08:51:55Z</time>
      </trkpt>
      <trkpt lat="49.22568" lon="-0.635035">
        <ele>95.2</ele>
        <time>2014-12-14T08:51:59Z</time>
      </trkpt>
      <trkpt lat="49.22555" lon="-0.635104">
        <ele>96.4</ele>
        <time>2014-12-14T08:52:03Z</time>
      </trkpt>
      <trkpt lat="49.225374" lon="-0.635225">
        <ele>97.5</ele>
        <time>2014-12-14T08:52:07Z</time>
      </trkpt>
      <trkpt lat="49.225148" lon="-0.635259">
        <ele>98.7</ele>
        <time>2014-12-14T08:52:11Z</time>
      </trkpt>
      <trkpt lat="49.22496" lon="-0.635267">
        <ele>99.0</ele>
        <time>2014-12-14T08:52:15Z</time>
      </trkpt>
      <trkpt lat="49.224808" lon="-0.635249">
        <ele>99.6</ele>
        <time>2014-12-14T08:52:19Z</time>
      </trkpt>
      <trkpt lat="49.224805" lon="-0.635069">
        <ele>99.6</ele>
        <time>2014-12-14T08:52:23Z</time>
      </trkpt>
      <trkpt lat="49.224829" lon="-0.63503">
        <ele>98.8</ele>
        <time>2014-12-14T08:52:27Z</time>
      </trkpt>
      <trkpt lat="49.224812" lon="-0.635094">
        <ele>98.5</ele>
        <time>2014-12-14T08:52:31Z</time>
      </trkpt>
      <trkpt lat="49.224759" lon="-0.635107">
        <ele>98.5</ele>
        <time>2014-12-14T08:52:35Z</time>
      </trkpt>
      <trkpt lat="49.2247" lon="-0.635055">
        <ele>99.4</ele>
        <time>2014-12-14T08:52:39Z</time>
      </trkpt>
      <trkpt lat="49.224626" lon="-0.634905">
        <ele>99.4</ele>
        <time>2014-12-14T08:52:43Z</time>
      </trkpt>
      <trkpt lat="49.224515" lon="-0.634768">
        <ele>98.6</ele>
        <time>2014-12-14T08:52:47Z</time>
      </trkpt>
      <trkpt lat="49.224394" lon="-0.634684">
        <ele>98.2</ele>
        <time>2014-12-14T08:52:51Z</time>
      </trkpt>
      <trkpt lat="49.22425" lon="-0.634566">
        <ele>97.7</ele>
        <time>2014-12-14T08:52:55Z</time>
      </trkpt>
      <trkpt lat="49.224115" lon="-0.634411">
        <ele>97.9</ele>
        <time>2014-12-14T08:52:59Z</time>
      </trkpt>
      <trkpt lat="49.224099" lon="-0.634092">
        <ele>97.9</ele>
        <time>2014-12-14T08:53:03Z</time>
      </trkpt>
      <trkpt lat="49.224107" lon="-0.633841">
        <ele>97.9</ele>
        <time>2014-12-14T08:53:07Z</time>
      </trkpt>
      <trkpt lat="49.224048" lon="-0.633575">
        <ele>97.9</ele>
        <time>2014-12-14T08:53:11Z</time>
      </trkpt>
      <trkpt lat="49.223855" lon="-0.633437">
        <ele>98.3</ele>
        <time>2014-12-14T08:53:15Z</time>
      </trkpt>
      <trkpt lat="49.22361" lon="-0.633479">
        <ele>95.8</ele>
        <time>2014-12-14T08:53:19Z</time>
      </trkpt>
      <trkpt lat="49.223369" lon="-0.633405">
        <ele>94.2</ele>
        <time>2014-12-14T08:53:23Z</time>
      </trkpt>
      <trkpt lat="49.223102" lon="-0.633177">
        <ele>92.4</ele>
        <time>2014-12-14T08:53:27Z</time>
      </trkpt>
      <trkpt lat="49.222831" lon="-0.632851">
        <ele>91.5</ele>
        <time>2014-12-14T08:53:31Z</time>
      </trkpt>
      <trkpt lat="49.222587" lon="-0.632534">
        <ele>90.2</ele>
        <time>2014-12-14T08:53:35Z</time>
      </trkpt>
      <trkpt lat="49.222373" lon="-0.632161">
        <ele>87.7</ele>
        <time>2014-12-14T08:53:39Z</time>
      </trkpt>
      <trkpt lat="49.222067" lon="-0.631779">
        <ele>84.9</ele>
        <time>2014-12-14T08:53:43Z</time>
      </trkpt>
      <trkpt lat="49.221745" lon="-0.631454">
        <ele>82.1</ele>
        <time>2014-12-14T08:53:47Z</time>
      </trkpt>
      <trkpt lat="49.221402" lon="-0.631185">
        <ele>81.3</ele>
        <time>2014-12-14T08:53:51Z</time>
      </trkpt>
      <trkpt lat="49.221128" lon="-0.630999">
        <ele>80.8</ele>
        <time>2014-12-14T08:53:55Z</time>
      </trkpt>
      <trkpt lat="49.22091" lon="-0.630832">
        <ele>80.8</ele>
        <time>2014-12-14T08:53:59Z</time>
      </trkpt>
      <trkpt lat="49.220712" lon="-0.630639">
        <ele>81.9</ele>
        <time>2014-12-14T08:54:03Z</time>
      </trkpt>
      <trkpt lat="49.220529" lon="-0.630437">
        <ele>82.9</ele>
        <time>2014-12-14T08:54:07Z</time>
      </trkpt>
      <trkpt lat="49.220351" lon="-0.630215">
        <ele>84.3</ele>
        <time>2014-12-14T08:54:11Z</time>
      </trkpt>
      <trkpt lat="49.220162" lon="-0.629976">
        <ele>84.8</ele>
        <time>2014-12-14T08:54:15Z</time>
      </trkpt>
      <trkpt lat="49.219964" lon="-0.629718">
        <ele>83.9</ele>
        <time>2014-12-14T08:54:19Z</time>
      </trkpt>
      <trkpt lat="49.219755" lon="-0.629409">
        <ele>82.9</ele>
        <time>2014-12-14T08:54:23Z</time>
      </trkpt>
      <trkpt lat="49.219561" lon="-0.629115">
        <ele>81.6</ele>
        <time>2014-12-14T08:54:27Z</time>
      </trkpt>
      <trkpt lat="49.219262" lon="-0.628883">
        <ele>80.2</ele>
        <time>2014-12-14T08:54:31Z</time>
      </trkpt>
      <trkpt lat="49.21893" lon="-0.628817">
        <ele>78.2</ele>
        <time>2014-12-14T08:54:35Z</time>
      </trkpt>
      <trkpt lat="49.218622" lon="-0.62876">
        <ele>76.7</ele>
        <time>2014-12-14T08:54:39Z</time>
      </trkpt>
      <trkpt lat="49.21852" lon="-0.628475">
        <ele>75.8</ele>
        <time>2014-12-14T08:54:43Z</time>
      </trkpt>
      <trkpt lat="49.218531" lon="-0.628068">
        <ele>75.3</ele>
        <time>2014-12-14T08:54:47Z</time>
      </trkpt>
      <trkpt lat="49.218545" lon="-0.627602">
        <ele>75.3</ele>
        <time>2014-12-14T08:54:51Z</time>
      </trkpt>
      <trkpt lat="49.218571" lon="-0.627165">
        <ele>75.6</ele>
        <time>2014-12-14T08:54:55Z</time>
      </trkpt>
      <trkpt lat="49.218695" lon="-0.626777">
        <ele>75.0</ele>
        <time>2014-12-14T08:54:59Z</time>
      </trkpt>
      <trkpt lat="49.218788" lon="-0.626409">
        <ele>74.7</ele>
        <time>2014-12-14T08:55:03Z</time>
      </trkpt>
      <trkpt lat="49.218935" lon="-0.626048">
        <ele>74.7</ele>
        <time>2014-12-14T08:55:07Z</time>
      </trkpt>
      <trkpt lat="49.218967" lon="-0.62568">
        <ele>75.3</ele>
        <time>2014-12-14T08:55:11Z</time>
      </trkpt>
      <trkpt lat="49.219" lon="-0.625288">
        <ele>75.3</ele>
        <time>2014-12-14T08:55:15Z</time>
      </trkpt>
      <trkpt lat="49.219" lon="-0.624995">
        <ele>76.2</ele>
        <time>2014-12-14T08:55:19Z</time>
      </trkpt>
      <trkpt lat="49.218993" lon="-0.624664">
        <ele>76.7</ele>
        <time>2014-12-14T08:55:23Z</time>
      </trkpt>
      <trkpt lat="49.218985" lon="-0.624372">
        <ele>77.9</ele>
        <time>2014-12-14T08:55:27Z</time>
      </trkpt>
      <trkpt lat="49.218985" lon="-0.624154">
        <ele>78.9</ele>
        <time>2014-12-14T08:55:31Z</time>
      </trkpt>
      <trkpt lat="49.219087" lon="-0.624027">
        <ele>79.9</ele>
        <time>2014-12-14T08:55:35Z</time>
      </trkpt>
      <trkpt lat="49.219273" lon="-0.624005">
        <ele>80.8</ele>
        <time>2014-12-14T08:55:39Z</time>
      </trkpt>
      <trkpt lat="49.219501" lon="-0.623997">
        <ele>80.5</ele>
        <time>2014-12-14T08:55:43Z</time>
      </trkpt>
      <trkpt lat="49.219716" lon="-0.623983">
        <ele>79.7</ele>
        <time>2014-12-14T08:55:47Z</time>
      </trkpt>
      <trkpt lat="49.219943" lon="-0.623987">
        <ele>79.5</ele>
        <time>2014-12-14T08:55:51Z</time>
      </trkpt>
      <trkpt lat="49.220161" lon="-0.62393">
        <ele>79.5</ele>
        <time>2014-12-14T08:55:55Z</time>
      </trkpt>
      <trkpt lat="49.220347" lon="-0.623882">
        <ele>78.4</ele>
        <time>2014-12-14T08:55:59Z</time>
      </trkpt>
      <trkpt lat="49.220528" lon="-0.623833">
        <ele>78.1</ele>
        <time>2014-12-14T08:56:03Z</time>
      </trkpt>
      <trkpt lat="49.220755" lon="-0.623817">
        <ele>78.5</ele>
        <time>2014-12-14T08:56:07Z</time>
      </trkpt>
      <trkpt lat="49.22101" lon="-0.623803">
        <ele>78.1</ele>
        <time>2014-12-14T08:56:11Z</time>
      </trkpt>
      <trkpt lat="49.22125" lon="-0.623773">
        <ele>77.3</ele>
        <time>2014-12-14T08:56:15Z</time>
      </trkpt>
      <trkpt lat="49.221456" lon="-0.623705">
        <ele>77.3</ele>
        <time>2014-12-14T08:56:19Z</time>
      </trkpt>
      <trkpt lat="49.221692" lon="-0.623655">
        <ele>76.6</ele>
        <time>2014-12-14T08:56:23Z</time>
      </trkpt>
      <trkpt lat="49.221915" lon="-0.62358">
        <ele>76.6</ele>
        <time>2014-12-14T08:56:27Z</time>
      </trkpt>
      <trkpt lat="49.222186" lon="-0.623552">
        <ele>77.6</ele>
        <time>2014-12-14T08:56:31Z</time>
      </trkpt>
      <trkpt lat="49.2224" lon="-0.623495">
        <ele>77.6</ele>
        <time>2014-12-14T08:56:35Z</time>
      </trkpt>
      <trkpt lat="49.222631" lon="-0.623466">
        <ele>77.6</ele>
        <time>2014-12-14T08:56:39Z</time>
      </trkpt>
      <trkpt lat="49.222853" lon="-0.623434">
        <ele>77.0</ele>
        <time>2014-12-14T08:56:43Z</time>
      </trkpt>
      <trkpt lat="49.223048" lon="-0.623467">
        <ele>77.0</ele>
        <time>2014-12-14T08:56:47Z</time>
      </trkpt>
      <trkpt lat="49.223231" lon="-0.62346">
        <ele>78.2</ele>
        <time>2014-12-14T08:56:51Z</time>
      </trkpt>
      <trkpt lat="49.223392" lon="-0.623464">
        <ele>79.3</ele>
        <time>2014-12-14T08:56:55Z</time>
      </trkpt>
      <trkpt lat="49.223531" lon="-0.623431">
        <ele>80.4</ele>
        <time>2014-12-14T08:56:59Z</time>
      </trkpt>
      <trkpt lat="49.223709" lon="-0.623402">
        <ele>80.4</ele>
        <time>2014-12-14T08:57:03Z</time>
      </trkpt>
      <trkpt lat="49.223872" lon="-0.623361">
        <ele>79.0</ele>
        <time>2014-12-14T08:57:07Z</time>
      </trkpt>
      <trkpt lat="49.224039" lon="-0.62338">
        <ele>80.3</ele>
        <time>2014-12-14T08:57:11Z</time>
      </trkpt>
      <trkpt lat="49.22422" lon="-0.623538">
        <ele>80.8</ele>
        <time>2014-12-14T08:57:15Z</time>
      </trkpt>
      <trkpt lat="49.224371" lon="-0.623729">
        <ele>78.6</ele>
        <time>2014-12-14T08:57:19Z</time>
      </trkpt>
      <trkpt lat="49.224513" lon="-0.623942">
        <ele>77.3</ele>
        <time>2014-12-14T08:57:23Z</time>
      </trkpt>
      <trkpt lat="49.22476" lon="-0.623957">
        <ele>75.8</ele>
        <time>2014-12-14T08:57:27Z</time>
      </trkpt>
      <trkpt lat="49.224996" lon="-0.623955">
        <ele>74.4</ele>
        <time>2014-12-14T08:57:31Z</time>
      </trkpt>
      <trkpt lat="49.225195" lon="-0.623948">
        <ele>74.8</ele>
        <time>2014-12-14T08:57:35Z</time>
      </trkpt>
      <trkpt lat="49.225366" lon="-0.623879">
        <ele>74.3</ele>
        <time>2014-12-14T08:57:39Z</time>
      </trkpt>
      <trkpt lat="49.225522" lon="-0.623837">
        <ele>75.7</ele>
        <time>2014-12-14T08:57:43Z</time>
      </trkpt>
      <trkpt lat="49.225717" lon="-0.623793">
        <ele>74.6</ele>
        <time>2014-12-14T08:57:47Z</time>
      </trkpt>
      <trkpt lat="49.225866" lon="-0.623679">
        <ele>74.1</ele>
        <time>2014-12-14T08:57:51Z</time>
      </trkpt>
      <trkpt lat="49.225977" lon="-0.623594">
        <ele>74.0</ele>
        <time>2014-12-14T08:57:55Z</time>
      </trkpt>
      <trkpt lat="49.226072" lon="-0.623524">
        <ele>75.2</ele>
        <time>2014-12-14T08:57:59Z</time>
      </trkpt>
      <trkpt lat="49.226192" lon="-0.623424">
        <ele>75.6</ele>
        <time>2014-12-14T08:58:03Z</time>
      </trkpt>
      <trkpt lat="49.226288" lon="-0.623338">
        <ele>75.2</ele>
        <time>2014-12-14T08:58:07Z</time>
      </trkpt>
      <trkpt lat="49.226312" lon="-0.623327">
        <ele>76.2</ele>
        <time>2014-12-14T08:58:11Z</time>
      </trkpt>
      <trkpt lat="49.226288" lon="-0.62331">
        <ele>76.8</ele>
        <time>2014-12-14T08:58:15Z</time>
      </trkpt>
      <trkpt lat="49.226245" lon="-0.623365">
        <ele>76.5</ele>
        <time>2014-12-14T08:58:23Z</time>
      </trkpt>
      <trkpt lat="49.226171" lon="-0.623443">
        <ele>76.6</ele>
        <time>2014-12-14T08:58:27Z</time>
      </trkpt>
      <trkpt lat="49.226165" lon="-0.623443">
        <ele>75.7</ele>
        <time>2014-12-14T08:58:31Z</time>
      </trkpt>
      <trkpt lat="49.226169" lon="-0.623458">
        <ele>75.4</ele>
        <time>2014-12-14T08:58:35Z</time>
      </trkpt>
      <trkpt lat="49.226217" lon="-0.623392">
        <ele>75.7</ele>
        <time>2014-12-14T08:58:59Z</time>
      </trkpt>
      <trkpt lat="49.226305" lon="-0.62332">
        <ele>76.1</ele>
        <time>2014-12-14T08:59:03Z</time>
      </trkpt>
      <trkpt lat="49.226395" lon="-0.623235">
        <ele>76.5</ele>
        <time>2014-12-14T08:59:07Z</time>
      </trkpt>
      <trkpt lat="49.226494" lon="-0.623177">
        <ele>76.8</ele>
        <time>2014-12-14T08:59:11Z</time>
      </trkpt>
      <trkpt lat="49.226631" lon="-0.623031">
        <ele>76.8</ele>
        <time>2014-12-14T08:59:15Z</time>
      </trkpt>
      <trkpt lat="49.2268" lon="-0.622979">
        <ele>77.3</ele>
        <time>2014-12-14T08:59:19Z</time>
      </trkpt>
      <trkpt lat="49.226986" lon="-0.622865">
        <ele>78.1</ele>
        <time>2014-12-14T08:59:23Z</time>
      </trkpt>
      <trkpt lat="49.227165" lon="-0.622717">
        <ele>77.5</ele>
        <time>2014-12-14T08:59:27Z</time>
      </trkpt>
      <trkpt lat="49.227314" lon="-0.622612">
        <ele>77.2</ele>
        <time>2014-12-14T08:59:31Z</time>
      </trkpt>
      <trkpt lat="49.227492" lon="-0.622533">
        <ele>77.6</ele>
        <time>2014-12-14T08:59:35Z</time>
      </trkpt>
      <trkpt lat="49.227664" lon="-0.622474">
        <ele>77.0</ele>
        <time>2014-12-14T08:59:39Z</time>
      </trkpt>
      <trkpt lat="49.227804" lon="-0.622343">
        <ele>76.7</ele>
        <time>2014-12-14T08:59:43Z</time>
      </trkpt>
      <trkpt lat="49.227953" lon="-0.622231">
        <ele>77.7</ele>
        <time>2014-12-14T08:59:47Z</time>
      </trkpt>
      <trkpt lat="49.228103" lon="-0.622055">
        <ele>77.1</ele>
        <time>2014-12-14T08:59:51Z</time>
      </trkpt>
      <trkpt lat="49.228254" lon="-0.621902">
        <ele>78.2</ele>
        <time>2014-12-14T08:59:55Z</time>
      </trkpt>
      <trkpt lat="49.228351" lon="-0.621648">
        <ele>78.4</ele>
        <time>2014-12-14T08:59:59Z</time>
      </trkpt>
      <trkpt lat="49.228474" lon="-0.62145">
        <ele>77.6</ele>
        <time>2014-12-14T09:00:03Z</time>
      </trkpt>
      <trkpt lat="49.228575" lon="-0.621267">
        <ele>77.6</ele>
        <time>2014-12-14T09:00:07Z</time>
      </trkpt>
      <trkpt lat="49.228691" lon="-0.621118">
        <ele>78.4</ele>
        <time>2014-12-14T09:00:11Z</time>
      </trkpt>
      <trkpt lat="49.228812" lon="-0.620975">
        <ele>79.8</ele>
        <time>2014-12-14T09:00:15Z</time>
      </trkpt>
      <trkpt lat="49.228952" lon="-0.620856">
        <ele>80.2</ele>
        <time>2014-12-14T09:00:19Z</time>
      </trkpt>
      <trkpt lat="49.229117" lon="-0.620732">
        <ele>80.2</ele>
        <time>2014-12-14T09:00:23Z</time>
      </trkpt>
      <trkpt lat="49.229262" lon="-0.620627">
        <ele>81.0</ele>
        <time>2014-12-14T09:00:27Z</time>
      </trkpt>
      <trkpt lat="49.229396" lon="-0.620516">
        <ele>82.2</ele>
        <time>2014-12-14T09:00:31Z</time>
      </trkpt>
      <trkpt lat="49.229525" lon="-0.620403">
        <ele>82.9</ele>
        <time>2014-12-14T09:00:35Z</time>
      </trkpt>
      <trkpt lat="49.229652" lon="-0.620273">
        <ele>82.5</ele>
        <time>2014-12-14T09:00:39Z</time>
      </trkpt>
      <trkpt lat="49.229788" lon="-0.620122">
        <ele>83.3</ele>
        <time>2014-12-14T09:00:43Z</time>
      </trkpt>
      <trkpt lat="49.229937" lon="-0.619994">
        <ele>84.1</ele>
        <time>2014-12-14T09:00:47Z</time>
      </trkpt>
      <trkpt lat="49.230041" lon="-0.619872">
        <ele>84.1</ele>
        <time>2014-12-14T09:00:51Z</time>
      </trkpt>
      <trkpt lat="49.230162" lon="-0.619748">
        <ele>83.7</ele>
        <time>2014-12-14T09:00:55Z</time>
      </trkpt>
      <trkpt lat="49.230136" lon="-0.619583">
        <ele>85.1</ele>
        <time>2014-12-14T09:00:59Z</time>
      </trkpt>
      <trkpt lat="49.230082" lon="-0.619448">
        <ele>86.1</ele>
        <time>2014-12-14T09:01:03Z</time>
      </trkpt>
      <trkpt lat="49.230025" lon="-0.619256">
        <ele>85.9</ele>
        <time>2014-12-14T09:01:07Z</time>
      </trkpt>
      <trkpt lat="49.229956" lon="-0.61906">
        <ele>85.8</ele>
        <time>2014-12-14T09:01:11Z</time>
      </trkpt>
      <trkpt lat="49.2299" lon="-0.618884">
        <ele>86.9</ele>
        <time>2014-12-14T09:01:15Z</time>
      </trkpt>
      <trkpt lat="49.229855" lon="-0.618723">
        <ele>86.9</ele>
        <time>2014-12-14T09:01:19Z</time>
      </trkpt>
      <trkpt lat="49.2298" lon="-0.618509">
        <ele>87.5</ele>
        <time>2014-12-14T09:01:23Z</time>
      </trkpt>
      <trkpt lat="49.229728" lon="-0.618327">
        <ele>87.5</ele>
        <time>2014-12-14T09:01:27Z</time>
      </trkpt>
      <trkpt lat="49.229659" lon="-0.618127">
        <ele>87.3</ele>
        <time>2014-12-14T09:01:31Z</time>
      </trkpt>
      <trkpt lat="49.229564" lon="-0.617976">
        <ele>87.9</ele>
        <time>2014-12-14T09:01:35Z</time>
      </trkpt>
      <trkpt lat="49.229491" lon="-0.617809">
        <ele>86.7</ele>
        <time>2014-12-14T09:01:39Z</time>
      </trkpt>
      <trkpt lat="49.22942" lon="-0.617649">
        <ele>86.4</ele>
        <time>2014-12-14T09:01:43Z</time>
      </trkpt>
      <trkpt lat="49.229322" lon="-0.617512">
        <ele>86.4</ele>
        <time>2014-12-14T09:01:47Z</time>
      </trkpt>
      <trkpt lat="49.229258" lon="-0.617362">
        <ele>87.6</ele>
        <time>2014-12-14T09:01:51Z</time>
      </trkpt>
      <trkpt lat="49.229191" lon="-0.617226">
        <ele>88.0</ele>
        <time>2014-12-14T09:01:55Z</time>
      </trkpt>
      <trkpt lat="49.229119" lon="-0.61707">
        <ele>88.1</ele>
        <time>2014-12-14T09:01:59Z</time>
      </trkpt>
      <trkpt lat="49.229057" lon="-0.616951">
        <ele>88.5</ele>
        <time>2014-12-14T09:02:03Z</time>
      </trkpt>
      <trkpt lat="49.229023" lon="-0.616823">
        <ele>88.8</ele>
        <time>2014-12-14T09:02:07Z</time>
      </trkpt>
      <trkpt lat="49.22895" lon="-0.616678">
        <ele>88.8</ele>
        <time>2014-12-14T09:02:11Z</time>
      </trkpt>
      <trkpt lat="49.228849" lon="-0.616522">
        <ele>89.7</ele>
        <time>2014-12-14T09:02:15Z</time>
      </trkpt>
      <trkpt lat="49.22877" lon="-0.616373">
        <ele>89.7</ele>
        <time>2014-12-14T09:02:19Z</time>
      </trkpt>
      <trkpt lat="49.228695" lon="-0.616242">
        <ele>89.2</ele>
        <time>2014-12-14T09:02:23Z</time>
      </trkpt>
      <trkpt lat="49.228626" lon="-0.616147">
        <ele>90.1</ele>
        <time>2014-12-14T09:02:27Z</time>
      </trkpt>
      <trkpt lat="49.228581" lon="-0.616008">
        <ele>90.4</ele>
        <time>2014-12-14T09:02:31Z</time>
      </trkpt>
      <trkpt lat="49.228522" lon="-0.615886">
        <ele>90.0</ele>
        <time>2014-12-14T09:02:35Z</time>
      </trkpt>
      <trkpt lat="49.228455" lon="-0.615754">
        <ele>91.4</ele>
        <time>2014-12-14T09:02:39Z</time>
      </trkpt>
      <trkpt lat="49.228386" lon="-0.615619">
        <ele>92.0</ele>
        <time>2014-12-14T09:02:43Z</time>
      </trkpt>
      <trkpt lat="49.228294" lon="-0.615432">
        <ele>92.0</ele>
        <time>2014-12-14T09:02:47Z</time>
      </trkpt>
      <trkpt lat="49.228251" lon="-0.615266">
        <ele>93.3</ele>
        <time>2014-12-14T09:02:51Z</time>
      </trkpt>
      <trkpt lat="49.228187" lon="-0.61513">
        <ele>95.1</ele>
        <time>2014-12-14T09:02:55Z</time>
      </trkpt>
      <trkpt lat="49.228205" lon="-0.614984">
        <ele>95.6</ele>
        <time>2014-12-14T09:02:59Z</time>
      </trkpt>
      <trkpt lat="49.228353" lon="-0.614995">
        <ele>95.6</ele>
        <time>2014-12-14T09:03:03Z</time>
      </trkpt>
      <trkpt lat="49.228514" lon="-0.615024">
        <ele>95.0</ele>
        <time>2014-12-14T09:03:07Z</time>
      </trkpt>
      <trkpt lat="49.228711" lon="-0.615096">
        <ele>95.0</ele>
        <time>2014-12-14T09:03:11Z</time>
      </trkpt>
      <trkpt lat="49.228954" lon="-0.615092">
        <ele>93.8</ele>
        <time>2014-12-14T09:03:15Z</time>
      </trkpt>
      <trkpt lat="49.229229" lon="-0.615087">
        <ele>93.1</ele>
        <time>2014-12-14T09:03:19Z</time>
      </trkpt>
      <trkpt lat="49.229533" lon="-0.615132">
        <ele>92.4</ele>
        <time>2014-12-14T09:03:23Z</time>
      </trkpt>
      <trkpt lat="49.229835" lon="-0.615207">
        <ele>91.2</ele>
        <time>2014-12-14T09:03:27Z</time>
      </trkpt>
      <trkpt lat="49.230119" lon="-0.615248">
        <ele>91.2</ele>
        <time>2014-12-14T09:03:31Z</time>
      </trkpt>
      <trkpt lat="49.230369" lon="-0.615293">
        <ele>90.6</ele>
        <time>2014-12-14T09:03:35Z</time>
      </trkpt>
      <trkpt lat="49.230485" lon="-0.615232">
        <ele>90.4</ele>
        <time>2014-12-14T09:03:39Z</time>
      </trkpt>
      <trkpt lat="49.230448" lon="-0.615086">
        <ele>90.7</ele>
        <time>2014-12-14T09:03:43Z</time>
      </trkpt>
      <trkpt lat="49.230366" lon="-0.614947">
        <ele>91.3</ele>
        <time>2014-12-14T09:03:47Z</time>
      </trkpt>
      <trkpt lat="49.230278" lon="-0.614783">
        <ele>90.1</ele>
        <time>2014-12-14T09:03:51Z</time>
      </trkpt>
      <trkpt lat="49.230183" lon="-0.61464">
        <ele>90.6</ele>
        <time>2014-12-14T09:03:55Z</time>
      </trkpt>
      <trkpt lat="49.230093" lon="-0.614464">
        <ele>91.6</ele>
        <time>2014-12-14T09:03:59Z</time>
      </trkpt>
      <trkpt lat="49.230029" lon="-0.614316">
        <ele>92.3</ele>
        <time>2014-12-14T09:04:03Z</time>
      </trkpt>
      <trkpt lat="49.229967" lon="-0.614176">
        <ele>91.4</ele>
        <time>2014-12-14T09:04:07Z</time>
      </trkpt>
      <trkpt lat="49.229969" lon="-0.61401">
        <ele>91.4</ele>
        <time>2014-12-14T09:04:11Z</time>
      </trkpt>
      <trkpt lat="49.230039" lon="-0.613964">
        <ele>92.5</ele>
        <time>2014-12-14T09:04:15Z</time>
      </trkpt>
      <trkpt lat="49.230171" lon="-0.613886">
        <ele>92.5</ele>
        <time>2014-12-14T09:04:19Z</time>
      </trkpt>
      <trkpt lat="49.230295" lon="-0.613778">
        <ele>92.5</ele>
        <time>2014-12-14T09:04:23Z</time>
      </trkpt>
      <trkpt lat="49.23036" lon="-0.613702">
        <ele>93.2</ele>
        <time>2014-12-14T09:04:27Z</time>
      </trkpt>
      <trkpt lat="49.230442" lon="-0.613627">
        <ele>93.8</ele>
        <time>2014-12-14T09:04:31Z</time>
      </trkpt>
      <trkpt lat="49.230548" lon="-0.613572">
        <ele>94.0</ele>
        <time>2014-12-14T09:04:35Z</time>
      </trkpt>
      <trkpt lat="49.230613" lon="-0.613479">
        <ele>95.0</ele>
        <time>2014-12-14T09:04:39Z</time>
      </trkpt>
      <trkpt lat="49.230654" lon="-0.61341">
        <ele>95.2</ele>
        <time>2014-12-14T09:04:43Z</time>
      </trkpt>
      <trkpt lat="49.230739" lon="-0.613353">
        <ele>96.3</ele>
        <time>2014-12-14T09:04:47Z</time>
      </trkpt>
      <trkpt lat="49.230804" lon="-0.613314">
        <ele>96.5</ele>
        <time>2014-12-14T09:04:51Z</time>
      </trkpt>
      <trkpt lat="49.230877" lon="-0.613267">
        <ele>97.0</ele>
        <time>2014-12-14T09:04:55Z</time>
      </trkpt>
      <trkpt lat="49.230902" lon="-0.613223">
        <ele>98.2</ele>
        <time>2014-12-14T09:04:59Z</time>
      </trkpt>
      <trkpt lat="49.230962" lon="-0.613181">
        <ele>99.0</ele>
        <time>2014-12-14T09:05:03Z</time>
      </trkpt>
      <trkpt lat="49.231041" lon="-0.613128">
        <ele>99.5</ele>
        <time>2014-12-14T09:05:07Z</time>
      </trkpt>
      <trkpt lat="49.231087" lon="-0.613064">
        <ele>100.3</ele>
        <time>2014-12-14T09:05:11Z</time>
      </trkpt>
      <trkpt lat="49.23114" lon="-0.613024">
        <ele>101.0</ele>
        <time>2014-12-14T09:05:15Z</time>
      </trkpt>
      <trkpt lat="49.231191" lon="-0.613004">
        <ele>101.2</ele>
        <time>2014-12-14T09:05:19Z</time>
      </trkpt>
      <trkpt lat="49.231258" lon="-0.612986">
        <ele>101.8</ele>
        <time>2014-12-14T09:05:23Z</time>
      </trkpt>
      <trkpt lat="49.231277" lon="-0.612942">
        <ele>102.8</ele>
        <time>2014-12-14T09:05:27Z</time>
      </trkpt>
      <trkpt lat="49.231336" lon="-0.6129">
        <ele>103.3</ele>
        <time>2014-12-14T09:05:31Z</time>
      </trkpt>
      <trkpt lat="49.231387" lon="-0.612865">
        <ele>103.7</ele>
        <time>2014-12-14T09:05:35Z</time>
      </trkpt>
      <trkpt lat="49.231424" lon="-0.612819">
        <ele>104.6</ele>
        <time>2014-12-14T09:05:39Z</time>
      </trkpt>
      <trkpt lat="49.231481" lon="-0.6128">
        <ele>105.2</ele>
        <time>2014-12-14T09:05:43Z</time>
      </trkpt>
      <trkpt lat="49.231552" lon="-0.612762">
        <ele>106.3</ele>
        <time>2014-12-14T09:05:47Z</time>
      </trkpt>
      <trkpt lat="49.231616" lon="-0.612714">
        <ele>106.7</ele>
        <time>2014-12-14T09:05:51Z</time>
      </trkpt>
      <trkpt lat="49.231679" lon="-0.612684">
        <ele>107.1</ele>
        <time>2014-12-14T09:05:55Z</time>
      </trkpt>
      <trkpt lat="49.231733" lon="-0.612617">
        <ele>107.3</ele>
        <time>2014-12-14T09:05:59Z</time>
      </trkpt>
      <trkpt lat="49.231791" lon="-0.61255">
        <ele>107.6</ele>
        <time>2014-12-14T09:06:03Z</time>
      </trkpt>
      <trkpt lat="49.231848" lon="-0.61253">
        <ele>108.2</ele>
        <time>2014-12-14T09:06:07Z</time>
      </trkpt>
      <trkpt lat="49.23191" lon="-0.612506">
        <ele>108.2</ele>
        <time>2014-12-14T09:06:11Z</time>
      </trkpt>
      <trkpt lat="49.231964" lon="-0.612462">
        <ele>109.1</ele>
        <time>2014-12-14T09:06:15Z</time>
      </trkpt>
      <trkpt lat="49.232044" lon="-0.612381">
        <ele>109.3</ele>
        <time>2014-12-14T09:06:19Z</time>
      </trkpt>
      <trkpt lat="49.232091" lon="-0.612321">
        <ele>110.0</ele>
        <time>2014-12-14T09:06:23Z</time>
      </trkpt>
      <trkpt lat="49.232136" lon="-0.612259">
        <ele>110.3</ele>
        <time>2014-12-14T09:06:27Z</time>
      </trkpt>
      <trkpt lat="49.232208" lon="-0.6122">
        <ele>111.3</ele>
        <time>2014-12-14T09:06:31Z</time>
      </trkpt>
      <trkpt lat="49.232293" lon="-0.612117">
        <ele>111.5</ele>
        <time>2014-12-14T09:06:35Z</time>
      </trkpt>
      <trkpt lat="49.232377" lon="-0.61205">
        <ele>112.0</ele>
        <time>2014-12-14T09:06:39Z</time>
      </trkpt>
      <trkpt lat="49.232462" lon="-0.612016">
        <ele>112.1</ele>
        <time>2014-12-14T09:06:43Z</time>
      </trkpt>
      <trkpt lat="49.232571" lon="-0.611976">
        <ele>112.3</ele>
        <time>2014-12-14T09:06:47Z</time>
      </trkpt>
      <trkpt lat="49.232673" lon="-0.611958">
        <ele>111.9</ele>
        <time>2014-12-14T09:06:51Z</time>
      </trkpt>
      <trkpt lat="49.232761" lon="-0.611911">
        <ele>111.8</ele>
        <time>2014-12-14T09:06:55Z</time>
      </trkpt>
      <trkpt lat="49.232901" lon="-0.611891">
        <ele>112.5</ele>
        <time>2014-12-14T09:06:59Z</time>
      </trkpt>
      <trkpt lat="49.232999" lon="-0.611894">
        <ele>111.9</ele>
        <time>2014-12-14T09:07:03Z</time>
      </trkpt>
      <trkpt lat="49.233112" lon="-0.611891">
        <ele>111.8</ele>
        <time>2014-12-14T09:07:07Z</time>
      </trkpt>
      <trkpt lat="49.233098" lon="-0.611887">
        <ele>111.1</ele>
        <time>2014-12-14T09:07:11Z</time>
      </trkpt>
      <trkpt lat="49.233132" lon="-0.611893">
        <ele>110.7</ele>
        <time>2014-12-14T09:07:55Z</time>
      </trkpt>
      <trkpt lat="49.23324" lon="-0.611861">
        <ele>110.7</ele>
        <time>2014-12-14T09:07:59Z</time>
      </trkpt>
      <trkpt lat="49.23335" lon="-0.611798">
        <ele>110.6</ele>
        <time>2014-12-14T09:08:03Z</time>
      </trkpt>
      <trkpt lat="49.23336" lon="-0.611678">
        <ele>110.6</ele>
        <time>2014-12-14T09:08:07Z</time>
      </trkpt>
      <trkpt lat="49.233337" lon="-0.611501">
        <ele>109.8</ele>
        <time>2014-12-14T09:08:11Z</time>
      </trkpt>
      <trkpt lat="49.233283" lon="-0.611369">
        <ele>109.9</ele>
        <time>2014-12-14T09:08:15Z</time>
      </trkpt>
      <trkpt lat="49.233236" lon="-0.611176">
        <ele>110.0</ele>
        <time>2014-12-14T09:08:19Z</time>
      </trkpt>
      <trkpt lat="49.233193" lon="-0.610942">
        <ele>110.7</ele>
        <time>2014-12-14T09:08:23Z</time>
      </trkpt>
      <trkpt lat="49.233138" lon="-0.610803">
        <ele>111.8</ele>
        <time>2014-12-14T09:08:27Z</time>
      </trkpt>
      <trkpt lat="49.233188" lon="-0.61061">
        <ele>111.8</ele>
        <time>2014-12-14T09:08:31Z</time>
      </trkpt>
      <trkpt lat="49.233347" lon="-0.610481">
        <ele>111.0</ele>
        <time>2014-12-14T09:08:35Z</time>
      </trkpt>
      <trkpt lat="49.23354" lon="-0.610376">
        <ele>110.6</ele>
        <time>2014-12-14T09:08:39Z</time>
      </trkpt>
      <trkpt lat="49.233707" lon="-0.610297">
        <ele>109.7</ele>
        <time>2014-12-14T09:08:43Z</time>
      </trkpt>
      <trkpt lat="49.23383" lon="-0.61022">
        <ele>110.9</ele>
        <time>2014-12-14T09:08:47Z</time>
      </trkpt>
      <trkpt lat="49.233931" lon="-0.610164">
        <ele>111.9</ele>
        <time>2014-12-14T09:08:51Z</time>
      </trkpt>
      <trkpt lat="49.234071" lon="-0.610089">
        <ele>111.9</ele>
        <time>2014-12-14T09:08:55Z</time>
      </trkpt>
      <trkpt lat="49.234182" lon="-0.610012">
        <ele>111.3</ele>
        <time>2014-12-14T09:08:59Z</time>
      </trkpt>
      <trkpt lat="49.234334" lon="-0.609933">
        <ele>112.4</ele>
        <time>2014-12-14T09:09:03Z</time>
      </trkpt>
      <trkpt lat="49.234455" lon="-0.609848">
        <ele>113.1</ele>
        <time>2014-12-14T09:09:07Z</time>
      </trkpt>
      <trkpt lat="49.23452" lon="-0.60973">
        <ele>113.7</ele>
        <time>2014-12-14T09:09:11Z</time>
      </trkpt>
      <trkpt lat="49.23448" lon="-0.60961">
        <ele>113.7</ele>
        <time>2014-12-14T09:09:15Z</time>
      </trkpt>
      <trkpt lat="49.234404" lon="-0.609453">
        <ele>114.1</ele>
        <time>2014-12-14T09:09:19Z</time>
      </trkpt>
      <trkpt lat="49.234366" lon="-0.609231">
        <ele>114.1</ele>
        <time>2014-12-14T09:09:23Z</time>
      </trkpt>
      <trkpt lat="49.234286" lon="-0.609032">
        <ele>114.1</ele>
        <time>2014-12-14T09:09:27Z</time>
      </trkpt>
      <trkpt lat="49.234234" lon="-0.608861">
        <ele>114.0</ele>
        <time>2014-12-14T09:09:31Z</time>
      </trkpt>
      <trkpt lat="49.234138" lon="-0.608668">
        <ele>114.3</ele>
        <time>2014-12-14T09:09:35Z</time>
      </trkpt>
      <trkpt lat="49.23405" lon="-0.608477">
        <ele>115.4</ele>
        <time>2014-12-14T09:09:39Z</time>
      </trkpt>
      <trkpt lat="49.23395" lon="-0.60829">
        <ele>115.8</ele>
        <time>2014-12-14T09:09:43Z</time>
      </trkpt>
      <trkpt lat="49.23386" lon="-0.60808">
        <ele>115.7</ele>
        <time>2014-12-14T09:09:47Z</time>
      </trkpt>
      <trkpt lat="49.233795" lon="-0.607836">
        <ele>116.3</ele>
        <time>2014-12-14T09:09:51Z</time>
      </trkpt>
      <trkpt lat="49.23376" lon="-0.607576">
        <ele>116.1</ele>
        <time>2014-12-14T09:09:55Z</time>
      </trkpt>
      <trkpt lat="49.233755" lon="-0.607316">
        <ele>116.5</ele>
        <time>2014-12-14T09:09:59Z</time>
      </trkpt>
      <trkpt lat="49.233748" lon="-0.607085">
        <ele>116.4</ele>
        <time>2014-12-14T09:10:03Z</time>
      </trkpt>
      <trkpt lat="49.233737" lon="-0.606865">
        <ele>116.9</ele>
        <time>2014-12-14T09:10:07Z</time>
      </trkpt>
      <trkpt lat="49.233723" lon="-0.606738">
        <ele>116.2</ele>
        <time>2014-12-14T09:10:11Z</time>
      </trkpt>
      <trkpt lat="49.233713" lon="-0.606593">
        <ele>116.7</ele>
        <time>2014-12-14T09:10:15Z</time>
      </trkpt>
      <trkpt lat="49.233688" lon="-0.606406">
        <ele>117.4</ele>
        <time>2014-12-14T09:10:19Z</time>
      </trkpt>
      <trkpt lat="49.233659" lon="-0.606201">
        <ele>117.4</ele>
        <time>2014-12-14T09:10:23Z</time>
      </trkpt>
      <trkpt lat="49.233633" lon="-0.605997">
        <ele>117.6</ele>
        <time>2014-12-14T09:10:27Z</time>
      </trkpt>
      <trkpt lat="49.233612" lon="-0.60581">
        <ele>117.9</ele>
        <time>2014-12-14T09:10:31Z</time>
      </trkpt>
      <trkpt lat="49.233599" lon="-0.60566">
        <ele>117.1</ele>
        <time>2014-12-14T09:10:35Z</time>
      </trkpt>
      <trkpt lat="49.233592" lon="-0.605518">
        <ele>117.1</ele>
        <time>2014-12-14T09:10:39Z</time>
      </trkpt>
      <trkpt lat="49.233596" lon="-0.605388">
        <ele>118.1</ele>
        <time>2014-12-14T09:10:43Z</time>
      </trkpt>
      <trkpt lat="49.233594" lon="-0.605226">
        <ele>117.6</ele>
        <time>2014-12-14T09:10:47Z</time>
      </trkpt>
      <trkpt lat="49.233565" lon="-0.605018">
        <ele>118.8</ele>
        <time>2014-12-14T09:10:51Z</time>
      </trkpt>
      <trkpt lat="49.233543" lon="-0.604838">
        <ele>118.8</ele>
        <time>2014-12-14T09:10:55Z</time>
      </trkpt>
      <trkpt lat="49.233505" lon="-0.604685">
        <ele>118.2</ele>
        <time>2014-12-14T09:10:59Z</time>
      </trkpt>
      <trkpt lat="49.233475" lon="-0.604487">
        <ele>119.2</ele>
        <time>2014-12-14T09:11:03Z</time>
      </trkpt>
      <trkpt lat="49.23345" lon="-0.604331">
        <ele>119.2</ele>
        <time>2014-12-14T09:11:07Z</time>
      </trkpt>
      <trkpt lat="49.233425" lon="-0.604139">
        <ele>118.2</ele>
        <time>2014-12-14T09:11:11Z</time>
      </trkpt>
      <trkpt lat="49.233401" lon="-0.603963">
        <ele>119.2</ele>
        <time>2014-12-14T09:11:15Z</time>
      </trkpt>
      <trkpt lat="49.233385" lon="-0.603823">
        <ele>119.8</ele>
        <time>2014-12-14T09:11:19Z</time>
      </trkpt>
      <trkpt lat="49.233346" lon="-0.603671">
        <ele>118.9</ele>
        <time>2014-12-14T09:11:23Z</time>
      </trkpt>
      <trkpt lat="49.233319" lon="-0.603545">
        <ele>119.5</ele>
        <time>2014-12-14T09:11:27Z</time>
      </trkpt>
      <trkpt lat="49.233287" lon="-0.603398">
        <ele>119.4</ele>
        <time>2014-12-14T09:11:31Z</time>
      </trkpt>
      <trkpt lat="49.233267" lon="-0.603271">
        <ele>118.7</ele>
        <time>2014-12-14T09:11:35Z</time>
      </trkpt>
      <trkpt lat="49.233222" lon="-0.603136">
        <ele>118.5</ele>
        <time>2014-12-14T09:11:39Z</time>
      </trkpt>
      <trkpt lat="49.233223" lon="-0.603004">
        <ele>119.2</ele>
        <time>2014-12-14T09:11:43Z</time>
      </trkpt>
      <trkpt lat="49.233194" lon="-0.602852">
        <ele>118.8</ele>
        <time>2014-12-14T09:11:47Z</time>
      </trkpt>
      <trkpt lat="49.233189" lon="-0.602688">
        <ele>119.3</ele>
        <time>2014-12-14T09:11:51Z</time>
      </trkpt>
      <trkpt lat="49.233149" lon="-0.602575">
        <ele>119.4</ele>
        <time>2014-12-14T09:11:55Z</time>
      </trkpt>
      <trkpt lat="49.233112" lon="-0.602466">
        <ele>118.6</ele>
        <time>2014-12-14T09:11:59Z</time>
      </trkpt>
      <trkpt lat="49.23309" lon="-0.602335">
        <ele>118.3</ele>
        <time>2014-12-14T09:12:03Z</time>
      </trkpt>
      <trkpt lat="49.233046" lon="-0.602206">
        <ele>118.4</ele>
        <time>2014-12-14T09:12:07Z</time>
      </trkpt>
      <trkpt lat="49.23303" lon="-0.602026">
        <ele>117.7</ele>
        <time>2014-12-14T09:12:11Z</time>
      </trkpt>
      <trkpt lat="49.232983" lon="-0.601861">
        <ele>118.5</ele>
        <time>2014-12-14T09:12:15Z</time>
      </trkpt>
      <trkpt lat="49.23296" lon="-0.601758">
        <ele>118.5</ele>
        <time>2014-12-14T09:12:19Z</time>
      </trkpt>
      <trkpt lat="49.232936" lon="-0.601609">
        <ele>118.2</ele>
        <time>2014-12-14T09:12:23Z</time>
      </trkpt>
      <trkpt lat="49.232923" lon="-0.601487">
        <ele>118.5</ele>
        <time>2014-12-14T09:12:27Z</time>
      </trkpt>
      <trkpt lat="49.232913" lon="-0.60134">
        <ele>119.3</ele>
        <time>2014-12-14T09:12:31Z</time>
      </trkpt>
      <trkpt lat="49.232881" lon="-0.60121">
        <ele>119.3</ele>
        <time>2014-12-14T09:12:35Z</time>
      </trkpt>
      <trkpt lat="49.23285" lon="-0.601094">
        <ele>119.0</ele>
        <time>2014-12-14T09:12:39Z</time>
      </trkpt>
      <trkpt lat="49.232815" lon="-0.600988">
        <ele>118.9</ele>
        <time>2014-12-14T09:12:43Z</time>
      </trkpt>
      <trkpt lat="49.232781" lon="-0.60088">
        <ele>119.3</ele>
        <time>2014-12-14T09:12:47Z</time>
      </trkpt>
      <trkpt lat="49.232759" lon="-0.600754">
        <ele>119.0</ele>
        <time>2014-12-14T09:12:51Z</time>
      </trkpt>
      <trkpt lat="49.232755" lon="-0.60059">
        <ele>119.0</ele>
        <time>2014-12-14T09:12:55Z</time>
      </trkpt>
      <trkpt lat="49.232719" lon="-0.600462">
        <ele>119.8</ele>
        <time>2014-12-14T09:12:59Z</time>
      </trkpt>
      <trkpt lat="49.23269" lon="-0.600295">
        <ele>120.1</ele>
        <time>2014-12-14T09:13:03Z</time>
      </trkpt>
      <trkpt lat="49.23266" lon="-0.600136">
        <ele>119.6</ele>
        <time>2014-12-14T09:13:07Z</time>
      </trkpt>
      <trkpt lat="49.232628" lon="-0.600035">
        <ele>119.7</ele>
        <time>2014-12-14T09:13:11Z</time>
      </trkpt>
      <trkpt lat="49.232597" lon="-0.599923">
        <ele>119.3</ele>
        <time>2014-12-14T09:13:15Z</time>
      </trkpt>
      <trkpt lat="49.232582" lon="-0.599823">
        <ele>119.3</ele>
        <time>2014-12-14T09:13:19Z</time>
      </trkpt>
      <trkpt lat="49.232555" lon="-0.599722">
        <ele>119.1</ele>
        <time>2014-12-14T09:13:23Z</time>
      </trkpt>
      <trkpt lat="49.232559" lon="-0.599642">
        <ele>118.7</ele>
        <time>2014-12-14T09:13:27Z</time>
      </trkpt>
      <trkpt lat="49.232552" lon="-0.59951">
        <ele>119.1</ele>
        <time>2014-12-14T09:13:31Z</time>
      </trkpt>
      <trkpt lat="49.23253" lon="-0.599352">
        <ele>119.3</ele>
        <time>2014-12-14T09:13:35Z</time>
      </trkpt>
      <trkpt lat="49.232502" lon="-0.599228">
        <ele>119.2</ele>
        <time>2014-12-14T09:13:39Z</time>
      </trkpt>
      <trkpt lat="49.232468" lon="-0.599086">
        <ele>119.6</ele>
        <time>2014-12-14T09:13:43Z</time>
      </trkpt>
      <trkpt lat="49.232438" lon="-0.599008">
        <ele>119.1</ele>
        <time>2014-12-14T09:13:47Z</time>
      </trkpt>
      <trkpt lat="49.232456" lon="-0.598858">
        <ele>119.4</ele>
        <time>2014-12-14T09:13:51Z</time>
      </trkpt>
      <trkpt lat="49.232422" lon="-0.598687">
        <ele>119.4</ele>
        <time>2014-12-14T09:13:55Z</time>
      </trkpt>
      <trkpt lat="49.232404" lon="-0.598532">
        <ele>119.9</ele>
        <time>2014-12-14T09:13:59Z</time>
      </trkpt>
      <trkpt lat="49.232382" lon="-0.598384">
        <ele>118.8</ele>
        <time>2014-12-14T09:14:03Z</time>
      </trkpt>
      <trkpt lat="49.232373" lon="-0.598211">
        <ele>118.8</ele>
        <time>2014-12-14T09:14:07Z</time>
      </trkpt>
      <trkpt lat="49.232344" lon="-0.598019">
        <ele>119.4</ele>
        <time>2014-12-14T09:14:11Z</time>
      </trkpt>
      <trkpt lat="49.232315" lon="-0.597829">
        <ele>119.6</ele>
        <time>2014-12-14T09:14:15Z</time>
      </trkpt>
      <trkpt lat="49.232288" lon="-0.597599">
        <ele>118.6</ele>
        <time>2014-12-14T09:14:19Z</time>
      </trkpt>
      <trkpt lat="49.232254" lon="-0.597397">
        <ele>118.4</ele>
        <time>2014-12-14T09:14:23Z</time>
      </trkpt>
      <trkpt lat="49.232226" lon="-0.597178">
        <ele>119.1</ele>
        <time>2014-12-14T09:14:27Z</time>
      </trkpt>
      <trkpt lat="49.23221" lon="-0.596949">
        <ele>119.1</ele>
        <time>2014-12-14T09:14:31Z</time>
      </trkpt>
      <trkpt lat="49.232187" lon="-0.596759">
        <ele>118.2</ele>
        <time>2014-12-14T09:14:35Z</time>
      </trkpt>
      <trkpt lat="49.232167" lon="-0.596559">
        <ele>118.7</ele>
        <time>2014-12-14T09:14:39Z</time>
      </trkpt>
      <trkpt lat="49.232153" lon="-0.596336">
        <ele>118.0</ele>
        <time>2014-12-14T09:14:43Z</time>
      </trkpt>
      <trkpt lat="49.232118" lon="-0.596114">
        <ele>117.8</ele>
        <time>2014-12-14T09:14:47Z</time>
      </trkpt>
      <trkpt lat="49.232102" lon="-0.595916">
        <ele>118.7</ele>
        <time>2014-12-14T09:14:51Z</time>
      </trkpt>
      <trkpt lat="49.232088" lon="-0.595711">
        <ele>117.6</ele>
        <time>2014-12-14T09:14:55Z</time>
      </trkpt>
      <trkpt lat="49.232074" lon="-0.595514">
        <ele>117.9</ele>
        <time>2014-12-14T09:14:59Z</time>
      </trkpt>
      <trkpt lat="49.232043" lon="-0.595327">
        <ele>117.9</ele>
        <time>2014-12-14T09:15:03Z</time>
      </trkpt>
      <trkpt lat="49.232005" lon="-0.595142">
        <ele>117.3</ele>
        <time>2014-12-14T09:15:07Z</time>
      </trkpt>
      <trkpt lat="49.231961" lon="-0.594936">
        <ele>117.6</ele>
        <time>2014-12-14T09:15:11Z</time>
      </trkpt>
      <trkpt lat="49.231937" lon="-0.594725">
        <ele>117.3</ele>
        <time>2014-12-14T09:15:15Z</time>
      </trkpt>
      <trkpt lat="49.231905" lon="-0.594525">
        <ele>117.6</ele>
        <time>2014-12-14T09:15:19Z</time>
      </trkpt>
      <trkpt lat="49.231885" lon="-0.594317">
        <ele>117.6</ele>
        <time>2014-12-14T09:15:23Z</time>
      </trkpt>
      <trkpt lat="49.231857" lon="-0.594126">
        <ele>117.4</ele>
        <time>2014-12-14T09:15:27Z</time>
      </trkpt>
      <trkpt lat="49.231829" lon="-0.593935">
        <ele>117.4</ele>
        <time>2014-12-14T09:15:31Z</time>
      </trkpt>
      <trkpt lat="49.231809" lon="-0.59375">
        <ele>116.5</ele>
        <time>2014-12-14T09:15:35Z</time>
      </trkpt>
      <trkpt lat="49.231758" lon="-0.593623">
        <ele>116.8</ele>
        <time>2014-12-14T09:15:39Z</time>
      </trkpt>
      <trkpt lat="49.231716" lon="-0.593488">
        <ele>117.2</ele>
        <time>2014-12-14T09:15:43Z</time>
      </trkpt>
      <trkpt lat="49.23168" lon="-0.593299">
        <ele>117.3</ele>
        <time>2014-12-14T09:15:47Z</time>
      </trkpt>
      <trkpt lat="49.231638" lon="-0.593085">
        <ele>116.6</ele>
        <time>2014-12-14T09:15:51Z</time>
      </trkpt>
      <trkpt lat="49.231592" lon="-0.592903">
        <ele>116.2</ele>
        <time>2014-12-14T09:15:55Z</time>
      </trkpt>
      <trkpt lat="49.231549" lon="-0.592752">
        <ele>117.0</ele>
        <time>2014-12-14T09:15:59Z</time>
      </trkpt>
      <trkpt lat="49.231486" lon="-0.592565">
        <ele>117.0</ele>
        <time>2014-12-14T09:16:03Z</time>
      </trkpt>
      <trkpt lat="49.231448" lon="-0.592408">
        <ele>116.3</ele>
        <time>2014-12-14T09:16:07Z</time>
      </trkpt>
      <trkpt lat="49.231403" lon="-0.592268">
        <ele>117.1</ele>
        <time>2014-12-14T09:16:11Z</time>
      </trkpt>
      <trkpt lat="49.231362" lon="-0.592121">
        <ele>116.9</ele>
        <time>2014-12-14T09:16:15Z</time>
      </trkpt>
      <trkpt lat="49.231294" lon="-0.591928">
        <ele>116.6</ele>
        <time>2014-12-14T09:16:19Z</time>
      </trkpt>
      <trkpt lat="49.231243" lon="-0.591735">
        <ele>115.6</ele>
        <time>2014-12-14T09:16:23Z</time>
      </trkpt>
      <trkpt lat="49.231185" lon="-0.591599">
        <ele>117.1</ele>
        <time>2014-12-14T09:16:27Z</time>
      </trkpt>
      <trkpt lat="49.231121" lon="-0.591415">
        <ele>116.0</ele>
        <time>2014-12-14T09:16:31Z</time>
      </trkpt>
      <trkpt lat="49.231071" lon="-0.591235">
        <ele>115.6</ele>
        <time>2014-12-14T09:16:35Z</time>
      </trkpt>
      <trkpt lat="49.231035" lon="-0.591053">
        <ele>116.4</ele>
        <time>2014-12-14T09:16:39Z</time>
      </trkpt>
      <trkpt lat="49.230992" lon="-0.590913">
        <ele>116.5</ele>
        <time>2014-12-14T09:16:43Z</time>
      </trkpt>
      <trkpt lat="49.230938" lon="-0.590758">
        <ele>116.2</ele>
        <time>2014-12-14T09:16:47Z</time>
      </trkpt>
      <trkpt lat="49.230871" lon="-0.590577">
        <ele>115.8</ele>
        <time>2014-12-14T09:16:51Z</time>
      </trkpt>
      <trkpt lat="49.23082" lon="-0.590386">
        <ele>115.7</ele>
        <time>2014-12-14T09:16:55Z</time>
      </trkpt>
      <trkpt lat="49.230754" lon="-0.590218">
        <ele>115.3</ele>
        <time>2014-12-14T09:16:59Z</time>
      </trkpt>
      <trkpt lat="49.23071" lon="-0.590017">
        <ele>116.0</ele>
        <time>2014-12-14T09:17:03Z</time>
      </trkpt>
      <trkpt lat="49.230651" lon="-0.58982">
        <ele>115.5</ele>
        <time>2014-12-14T09:17:07Z</time>
      </trkpt>
      <trkpt lat="49.230592" lon="-0.589637">
        <ele>115.1</ele>
        <time>2014-12-14T09:17:11Z</time>
      </trkpt>
      <trkpt lat="49.230526" lon="-0.589426">
        <ele>114.6</ele>
        <time>2014-12-14T09:17:15Z</time>
      </trkpt>
      <trkpt lat="49.230477" lon="-0.589237">
        <ele>114.8</ele>
        <time>2014-12-14T09:17:19Z</time>
      </trkpt>
      <trkpt lat="49.230422" lon="-0.589056">
        <ele>114.2</ele>
        <time>2014-12-14T09:17:23Z</time>
      </trkpt>
      <trkpt lat="49.230371" lon="-0.58887">
        <ele>115.1</ele>
        <time>2014-12-14T09:17:27Z</time>
      </trkpt>
      <trkpt lat="49.230313" lon="-0.588723">
        <ele>115.2</ele>
        <time>2014-12-14T09:17:31Z</time>
      </trkpt>
      <trkpt lat="49.230261" lon="-0.588545">
        <ele>115.0</ele>
        <time>2014-12-14T09:17:35Z</time>
      </trkpt>
      <trkpt lat="49.230191" lon="-0.588324">
        <ele>115.7</ele>
        <time>2014-12-14T09:17:39Z</time>
      </trkpt>
      <trkpt lat="49.230121" lon="-0.588144">
        <ele>114.7</ele>
        <time>2014-12-14T09:17:43Z</time>
      </trkpt>
      <trkpt lat="49.23006" lon="-0.587946">
        <ele>114.7</ele>
        <time>2014-12-14T09:17:47Z</time>
      </trkpt>
      <trkpt lat="49.230019" lon="-0.587762">
        <ele>114.7</ele>
        <time>2014-12-14T09:17:51Z</time>
      </trkpt>
      <trkpt lat="49.229964" lon="-0.587603">
        <ele>113.5</ele>
        <time>2014-12-14T09:17:55Z</time>
      </trkpt>
      <trkpt lat="49.22989" lon="-0.587415">
        <ele>114.7</ele>
        <time>2014-12-14T09:17:59Z</time>
      </trkpt>
      <trkpt lat="49.229854" lon="-0.587224">
        <ele>115.4</ele>
        <time>2014-12-14T09:18:03Z</time>
      </trkpt>
      <trkpt lat="49.229783" lon="-0.587056">
        <ele>115.4</ele>
        <time>2014-12-14T09:18:07Z</time>
      </trkpt>
      <trkpt lat="49.229729" lon="-0.58684">
        <ele>115.4</ele>
        <time>2014-12-14T09:18:11Z</time>
      </trkpt>
      <trkpt lat="49.22966" lon="-0.586599">
        <ele>114.2</ele>
        <time>2014-12-14T09:18:15Z</time>
      </trkpt>
      <trkpt lat="49.229599" lon="-0.586366">
        <ele>114.7</ele>
        <time>2014-12-14T09:18:19Z</time>
      </trkpt>
      <trkpt lat="49.229546" lon="-0.586183">
        <ele>114.7</ele>
        <time>2014-12-14T09:18:23Z</time>
      </trkpt>
      <trkpt lat="49.229464" lon="-0.586008">
        <ele>114.7</ele>
        <time>2014-12-14T09:18:27Z</time>
      </trkpt>
      <trkpt lat="49.229403" lon="-0.585826">
        <ele>114.3</ele>
        <time>2014-12-14T09:18:31Z</time>
      </trkpt>
      <trkpt lat="49.229363" lon="-0.585623">
        <ele>114.9</ele>
        <time>2014-12-14T09:18:35Z</time>
      </trkpt>
      <trkpt lat="49.229309" lon="-0.585428">
        <ele>115.1</ele>
        <time>2014-12-14T09:18:39Z</time>
      </trkpt>
      <trkpt lat="49.229253" lon="-0.585253">
        <ele>115.3</ele>
        <time>2014-12-14T09:18:43Z</time>
      </trkpt>
      <trkpt lat="49.229157" lon="-0.585062">
        <ele>114.3</ele>
        <time>2014-12-14T09:18:47Z</time>
      </trkpt>
      <trkpt lat="49.229052" lon="-0.584824">
        <ele>114.9</ele>
        <time>2014-12-14T09:18:51Z</time>
      </trkpt>
      <trkpt lat="49.228962" lon="-0.584626">
        <ele>114.1</ele>
        <time>2014-12-14T09:18:55Z</time>
      </trkpt>
      <trkpt lat="49.22889" lon="-0.584417">
        <ele>114.1</ele>
        <time>2014-12-14T09:18:59Z</time>
      </trkpt>
      <trkpt lat="49.228807" lon="-0.584224">
        <ele>114.1</ele>
        <time>2014-12-14T09:19:03Z</time>
      </trkpt>
      <trkpt lat="49.228719" lon="-0.584001">
        <ele>114.6</ele>
        <time>2014-12-14T09:19:07Z</time>
      </trkpt>
      <trkpt lat="49.228652" lon="-0.583761">
        <ele>113.7</ele>
        <time>2014-12-14T09:19:11Z</time>
      </trkpt>
      <trkpt lat="49.228543" lon="-0.583569">
        <ele>113.7</ele>
        <time>2014-12-14T09:19:15Z</time>
      </trkpt>
      <trkpt lat="49.228469" lon="-0.58336">
        <ele>113.9</ele>
        <time>2014-12-14T09:19:19Z</time>
      </trkpt>
      <trkpt lat="49.228386" lon="-0.583147">
        <ele>113.4</ele>
        <time>2014-12-14T09:19:23Z</time>
      </trkpt>
      <trkpt lat="49.228287" lon="-0.582923">
        <ele>113.9</ele>
        <time>2014-12-14T09:19:27Z</time>
      </trkpt>
      <trkpt lat="49.228239" lon="-0.582743">
        <ele>113.6</ele>
        <time>2014-12-14T09:19:31Z</time>
      </trkpt>
      <trkpt lat="49.228201" lon="-0.58261">
        <ele>113.6</ele>
        <time>2014-12-14T09:19:35Z</time>
      </trkpt>
      <trkpt lat="49.228185" lon="-0.582546">
        <ele>113.5</ele>
        <time>2014-12-14T09:19:39Z</time>
      </trkpt>
      <trkpt lat="49.228246" lon="-0.582523">
        <ele>113.6</ele>
        <time>2014-12-14T09:19:43Z</time>
      </trkpt>
      <trkpt lat="49.228206" lon="-0.582547">
        <ele>113.6</ele>
        <time>2014-12-14T09:19:47Z</time>
      </trkpt>
      <trkpt lat="49.22828" lon="-0.582534">
        <ele>113.5</ele>
        <time>2014-12-14T09:19:55Z</time>
      </trkpt>
      <trkpt lat="49.228421" lon="-0.58249">
        <ele>113.5</ele>
        <time>2014-12-14T09:19:59Z</time>
      </trkpt>
      <trkpt lat="49.228585" lon="-0.582429">
        <ele>113.5</ele>
        <time>2014-12-14T09:20:03Z</time>
      </trkpt>
      <trkpt lat="49.22879" lon="-0.582402">
        <ele>113.5</ele>
        <time>2014-12-14T09:20:07Z</time>
      </trkpt>
      <trkpt lat="49.228984" lon="-0.582355">
        <ele>114.2</ele>
        <time>2014-12-14T09:20:11Z</time>
      </trkpt>
      <trkpt lat="49.229207" lon="-0.582311">
        <ele>115.4</ele>
        <time>2014-12-14T09:20:15Z</time>
      </trkpt>
      <trkpt lat="49.229411" lon="-0.582263">
        <ele>113.2</ele>
        <time>2014-12-14T09:20:19Z</time>
      </trkpt>
      <trkpt lat="49.229621" lon="-0.58221">
        <ele>113.2</ele>
        <time>2014-12-14T09:20:23Z</time>
      </trkpt>
      <trkpt lat="49.229843" lon="-0.582151">
        <ele>113.9</ele>
        <time>2014-12-14T09:20:27Z</time>
      </trkpt>
      <trkpt lat="49.23007" lon="-0.582099">
        <ele>113.8</ele>
        <time>2014-12-14T09:20:31Z</time>
      </trkpt>
      <trkpt lat="49.230301" lon="-0.582032">
        <ele>114.3</ele>
        <time>2014-12-14T09:20:35Z</time>
      </trkpt>
      <trkpt lat="49.230518" lon="-0.581984">
        <ele>114.3</ele>
        <time>2014-12-14T09:20:39Z</time>
      </trkpt>
      <trkpt lat="49.230752" lon="-0.581935">
        <ele>113.8</ele>
        <time>2014-12-14T09:20:43Z</time>
      </trkpt>
      <trkpt lat="49.230997" lon="-0.581865">
        <ele>113.4</ele>
        <time>2014-12-14T09:20:47Z</time>
      </trkpt>
      <trkpt lat="49.231235" lon="-0.581809">
        <ele>113.4</ele>
        <time>2014-12-14T09:20:51Z</time>
      </trkpt>
      <trkpt lat="49.2315" lon="-0.581677">
        <ele>112.9</ele>
        <time>2014-12-14T09:20:55Z</time>
      </trkpt>
      <trkpt lat="49.231726" lon="-0.581499">
        <ele>113.3</ele>
        <time>2014-12-14T09:20:59Z</time>
      </trkpt>
      <trkpt lat="49.2319" lon="-0.581292">
        <ele>112.4</ele>
        <time>2014-12-14T09:21:03Z</time>
      </trkpt>
      <trkpt lat="49.231938" lon="-0.580967">
        <ele>112.4</ele>
        <time>2014-12-14T09:21:07Z</time>
      </trkpt>
      <trkpt lat="49.231886" lon="-0.580621">
        <ele>112.8</ele>
        <time>2014-12-14T09:21:11Z</time>
      </trkpt>
      <trkpt lat="49.231826" lon="-0.580275">
        <ele>113.3</ele>
        <time>2014-12-14T09:21:15Z</time>
      </trkpt>
      <trkpt lat="49.231821" lon="-0.579963">
        <ele>113.5</ele>
        <time>2014-12-14T09:21:19Z</time>
      </trkpt>
      <trkpt lat="49.231887" lon="-0.579639">
        <ele>112.5</ele>
        <time>2014-12-14T09:21:23Z</time>
      </trkpt>
      <trkpt lat="49.23201" lon="-0.57932">
        <ele>111.9</ele>
        <time>2014-12-14T09:21:27Z</time>
      </trkpt>
      <trkpt lat="49.232173" lon="-0.579039">
        <ele>111.9</ele>
        <time>2014-12-14T09:21:31Z</time>
      </trkpt>
      <trkpt lat="49.232321" lon="-0.578727">
        <ele>110.1</ele>
        <time>2014-12-14T09:21:35Z</time>
      </trkpt>
      <trkpt lat="49.232413" lon="-0.578388">
        <ele>109.9</ele>
        <time>2014-12-14T09:21:39Z</time>
      </trkpt>
      <trkpt lat="49.232412" lon="-0.578035">
        <ele>110.2</ele>
        <time>2014-12-14T09:21:43Z</time>
      </trkpt>
      <trkpt lat="49.232361" lon="-0.577698">
        <ele>109.1</ele>
        <time>2014-12-14T09:21:47Z</time>
      </trkpt>
      <trkpt lat="49.232296" lon="-0.577372">
        <ele>109.8</ele>
        <time>2014-12-14T09:21:51Z</time>
      </trkpt>
      <trkpt lat="49.232219" lon="-0.577073">
        <ele>109.6</ele>
        <time>2014-12-14T09:21:55Z</time>
      </trkpt>
      <trkpt lat="49.232096" lon="-0.5768">
        <ele>108.5</ele>
        <time>2014-12-14T09:21:59Z</time>
      </trkpt>
      <trkpt lat="49.231958" lon="-0.576526">
        <ele>109.4</ele>
        <time>2014-12-14T09:22:03Z</time>
      </trkpt>
      <trkpt lat="49.231827" lon="-0.576239">
        <ele>108.4</ele>
        <time>2014-12-14T09:22:07Z</time>
      </trkpt>
      <trkpt lat="49.231686" lon="-0.57599">
        <ele>108.3</ele>
        <time>2014-12-14T09:22:11Z</time>
      </trkpt>
      <trkpt lat="49.231556" lon="-0.575699">
        <ele>108.3</ele>
        <time>2014-12-14T09:22:15Z</time>
      </trkpt>
      <trkpt lat="49.231423" lon="-0.575446">
        <ele>107.4</ele>
        <time>2014-12-14T09:22:19Z</time>
      </trkpt>
      <trkpt lat="49.231261" lon="-0.575212">
        <ele>106.9</ele>
        <time>2014-12-14T09:22:23Z</time>
      </trkpt>
      <trkpt lat="49.231118" lon="-0.574937">
        <ele>106.6</ele>
        <time>2014-12-14T09:22:27Z</time>
      </trkpt>
      <trkpt lat="49.23096" lon="-0.574692">
        <ele>108.1</ele>
        <time>2014-12-14T09:22:31Z</time>
      </trkpt>
      <trkpt lat="49.230803" lon="-0.574449">
        <ele>106.9</ele>
        <time>2014-12-14T09:22:35Z</time>
      </trkpt>
      <trkpt lat="49.230639" lon="-0.574207">
        <ele>106.9</ele>
        <time>2014-12-14T09:22:39Z</time>
      </trkpt>
      <trkpt lat="49.230481" lon="-0.573977">
        <ele>106.9</ele>
        <time>2014-12-14T09:22:43Z</time>
      </trkpt>
      <trkpt lat="49.230329" lon="-0.573705">
        <ele>106.9</ele>
        <time>2014-12-14T09:22:47Z</time>
      </trkpt>
      <trkpt lat="49.230154" lon="-0.573468">
        <ele>106.9</ele>
        <time>2014-12-14T09:22:51Z</time>
      </trkpt>
      <trkpt lat="49.229973" lon="-0.573245">
        <ele>106.1</ele>
        <time>2014-12-14T09:22:55Z</time>
      </trkpt>
      <trkpt lat="49.229802" lon="-0.573005">
        <ele>105.8</ele>
        <time>2014-12-14T09:22:59Z</time>
      </trkpt>
      <trkpt lat="49.229617" lon="-0.5728">
        <ele>105.8</ele>
        <time>2014-12-14T09:23:03Z</time>
      </trkpt>
      <trkpt lat="49.229423" lon="-0.5726">
        <ele>106.1</ele>
        <time>2014-12-14T09:23:07Z</time>
      </trkpt>
      <trkpt lat="49.229235" lon="-0.572398">
        <ele>106.1</ele>
        <time>2014-12-14T09:23:11Z</time>
      </trkpt>
      <trkpt lat="49.229048" lon="-0.572167">
        <ele>105.6</ele>
        <time>2014-12-14T09:23:15Z</time>
      </trkpt>
      <trkpt lat="49.22887" lon="-0.571951">
        <ele>105.6</ele>
        <time>2014-12-14T09:23:19Z</time>
      </trkpt>
      <trkpt lat="49.228693" lon="-0.571671">
        <ele>104.9</ele>
        <time>2014-12-14T09:23:23Z</time>
      </trkpt>
      <trkpt lat="49.228509" lon="-0.571488">
        <ele>106.4</ele>
        <time>2014-12-14T09:23:27Z</time>
      </trkpt>
      <trkpt lat="49.228341" lon="-0.571597">
        <ele>106.9</ele>
        <time>2014-12-14T09:23:31Z</time>
      </trkpt>
      <trkpt lat="49.228216" lon="-0.571836">
        <ele>105.7</ele>
        <time>2014-12-14T09:23:35Z</time>
      </trkpt>
      <trkpt lat="49.228131" lon="-0.572059">
        <ele>106.4</ele>
        <time>2014-12-14T09:23:39Z</time>
      </trkpt>
      <trkpt lat="49.228024" lon="-0.572279">
        <ele>106.9</ele>
        <time>2014-12-14T09:23:43Z</time>
      </trkpt>
      <trkpt lat="49.227906" lon="-0.572454">
        <ele>106.3</ele>
        <time>2014-12-14T09:23:47Z</time>
      </trkpt>
      <trkpt lat="49.227808" lon="-0.572394">
        <ele>106.3</ele>
        <time>2014-12-14T09:23:51Z</time>
      </trkpt>
      <trkpt lat="49.227898" lon="-0.572194">
        <ele>105.4</ele>
        <time>2014-12-14T09:23:55Z</time>
      </trkpt>
      <trkpt lat="49.22803" lon="-0.571943">
        <ele>106.3</ele>
        <time>2014-12-14T09:23:59Z</time>
      </trkpt>
      <trkpt lat="49.228172" lon="-0.571714">
        <ele>106.9</ele>
        <time>2014-12-14T09:24:03Z</time>
      </trkpt>
      <trkpt lat="49.228294" lon="-0.571485">
        <ele>107.2</ele>
        <time>2014-12-14T09:24:07Z</time>
      </trkpt>
      <trkpt lat="49.228414" lon="-0.571271">
        <ele>107.1</ele>
        <time>2014-12-14T09:24:11Z</time>
      </trkpt>
      <trkpt lat="49.228539" lon="-0.570997">
        <ele>107.1</ele>
        <time>2014-12-14T09:24:15Z</time>
      </trkpt>
      <trkpt lat="49.22869" lon="-0.570732">
        <ele>106.7</ele>
        <time>2014-12-14T09:24:19Z</time>
      </trkpt>
      <trkpt lat="49.228843" lon="-0.570451">
        <ele>105.9</ele>
        <time>2014-12-14T09:24:23Z</time>
      </trkpt>
      <trkpt lat="49.229001" lon="-0.570106">
        <ele>105.3</ele>
        <time>2014-12-14T09:24:27Z</time>
      </trkpt>
      <trkpt lat="49.229146" lon="-0.569738">
        <ele>104.1</ele>
        <time>2014-12-14T09:24:31Z</time>
      </trkpt>
      <trkpt lat="49.22928" lon="-0.569356">
        <ele>103.3</ele>
        <time>2014-12-14T09:24:35Z</time>
      </trkpt>
      <trkpt lat="49.229414" lon="-0.569018">
        <ele>103.3</ele>
        <time>2014-12-14T09:24:39Z</time>
      </trkpt>
      <trkpt lat="49.229433" lon="-0.568688">
        <ele>102.7</ele>
        <time>2014-12-14T09:24:43Z</time>
      </trkpt>
      <trkpt lat="49.229335" lon="-0.568398">
        <ele>102.4</ele>
        <time>2014-12-14T09:24:47Z</time>
      </trkpt>
      <trkpt lat="49.22918" lon="-0.568122">
        <ele>102.3</ele>
        <time>2014-12-14T09:24:51Z</time>
      </trkpt>
      <trkpt lat="49.229065" lon="-0.567855">
        <ele>103.0</ele>
        <time>2014-12-14T09:24:55Z</time>
      </trkpt>
      <trkpt lat="49.228966" lon="-0.567566">
        <ele>102.6</ele>
        <time>2014-12-14T09:24:59Z</time>
      </trkpt>
      <trkpt lat="49.228878" lon="-0.567271">
        <ele>102.7</ele>
        <time>2014-12-14T09:25:03Z</time>
      </trkpt>
      <trkpt lat="49.228809" lon="-0.56696">
        <ele>102.9</ele>
        <time>2014-12-14T09:25:07Z</time>
      </trkpt>
      <trkpt lat="49.228712" lon="-0.566629">
        <ele>102.6</ele>
        <time>2014-12-14T09:25:11Z</time>
      </trkpt>
      <trkpt lat="49.228585" lon="-0.566299">
        <ele>101.7</ele>
        <time>2014-12-14T09:25:15Z</time>
      </trkpt>
      <trkpt lat="49.228457" lon="-0.565942">
        <ele>101.3</ele>
        <time>2014-12-14T09:25:19Z</time>
      </trkpt>
      <trkpt lat="49.228331" lon="-0.565569">
        <ele>100.8</ele>
        <time>2014-12-14T09:25:23Z</time>
      </trkpt>
      <trkpt lat="49.2282" lon="-0.565172">
        <ele>99.1</ele>
        <time>2014-12-14T09:25:27Z</time>
      </trkpt>
      <trkpt lat="49.22806" lon="-0.564746">
        <ele>97.3</ele>
        <time>2014-12-14T09:25:31Z</time>
      </trkpt>
      <trkpt lat="49.227921" lon="-0.564246">
        <ele>95.8</ele>
        <time>2014-12-14T09:25:35Z</time>
      </trkpt>
      <trkpt lat="49.227743" lon="-0.56375">
        <ele>93.3</ele>
        <time>2014-12-14T09:25:39Z</time>
      </trkpt>
      <trkpt lat="49.22757" lon="-0.563295">
        <ele>91.2</ele>
        <time>2014-12-14T09:25:43Z</time>
      </trkpt>
      <trkpt lat="49.22741" lon="-0.562821">
        <ele>89.8</ele>
        <time>2014-12-14T09:25:47Z</time>
      </trkpt>
      <trkpt lat="49.22726" lon="-0.562349">
        <ele>88.0</ele>
        <time>2014-12-14T09:25:51Z</time>
      </trkpt>
      <trkpt lat="49.227103" lon="-0.561973">
        <ele>86.7</ele>
        <time>2014-12-14T09:25:55Z</time>
      </trkpt>
      <trkpt lat="49.226963" lon="-0.561612">
        <ele>85.9</ele>
        <time>2014-12-14T09:25:59Z</time>
      </trkpt>
      <trkpt lat="49.226842" lon="-0.561206">
        <ele>85.9</ele>
        <time>2014-12-14T09:26:03Z</time>
      </trkpt>
      <trkpt lat="49.226718" lon="-0.560838">
        <ele>85.4</ele>
        <time>2014-12-14T09:26:07Z</time>
      </trkpt>
      <trkpt lat="49.2266" lon="-0.56047">
        <ele>85.6</ele>
        <time>2014-12-14T09:26:11Z</time>
      </trkpt>
      <trkpt lat="49.226468" lon="-0.560136">
        <ele>85.5</ele>
        <time>2014-12-14T09:26:15Z</time>
      </trkpt>
      <trkpt lat="49.226361" lon="-0.559796">
        <ele>85.5</ele>
        <time>2014-12-14T09:26:19Z</time>
      </trkpt>
      <trkpt lat="49.226255" lon="-0.559458">
        <ele>85.5</ele>
        <time>2014-12-14T09:26:23Z</time>
      </trkpt>
      <trkpt lat="49.226155" lon="-0.55915">
        <ele>86.0</ele>
        <time>2014-12-14T09:26:27Z</time>
      </trkpt>
      <trkpt lat="49.226055" lon="-0.558842">
        <ele>87.0</ele>
        <time>2014-12-14T09:26:31Z</time>
      </trkpt>
      <trkpt lat="49.225953" lon="-0.558533">
        <ele>87.4</ele>
        <time>2014-12-14T09:26:35Z</time>
      </trkpt>
      <trkpt lat="49.22586" lon="-0.558281">
        <ele>87.4</ele>
        <time>2014-12-14T09:26:39Z</time>
      </trkpt>
      <trkpt lat="49.225816" lon="-0.558035">
        <ele>88.6</ele>
        <time>2014-12-14T09:26:43Z</time>
      </trkpt>
      <trkpt lat="49.225857" lon="-0.557889">
        <ele>89.1</ele>
        <time>2014-12-14T09:26:47Z</time>
      </trkpt>
      <trkpt lat="49.225965" lon="-0.557814">
        <ele>89.1</ele>
        <time>2014-12-14T09:26:51Z</time>
      </trkpt>
      <trkpt lat="49.226134" lon="-0.557701">
        <ele>90.2</ele>
        <time>2014-12-14T09:26:55Z</time>
      </trkpt>
      <trkpt lat="49.226288" lon="-0.557685">
        <ele>91.3</ele>
        <time>2014-12-14T09:26:59Z</time>
      </trkpt>
      <trkpt lat="49.226457" lon="-0.557599">
        <ele>92.0</ele>
        <time>2014-12-14T09:27:03Z</time>
      </trkpt>
      <trkpt lat="49.226592" lon="-0.557497">
        <ele>93.0</ele>
        <time>2014-12-14T09:27:07Z</time>
      </trkpt>
      <trkpt lat="49.226727" lon="-0.557399">
        <ele>93.5</ele>
        <time>2014-12-14T09:27:11Z</time>
      </trkpt>
      <trkpt lat="49.226902" lon="-0.557281">
        <ele>92.9</ele>
        <time>2014-12-14T09:27:15Z</time>
      </trkpt>
      <trkpt lat="49.227056" lon="-0.557174">
        <ele>93.5</ele>
        <time>2014-12-14T09:27:19Z</time>
      </trkpt>
      <trkpt lat="49.227174" lon="-0.557019">
        <ele>93.5</ele>
        <time>2014-12-14T09:27:23Z</time>
      </trkpt>
      <trkpt lat="49.227308" lon="-0.556956">
        <ele>94.1</ele>
        <time>2014-12-14T09:27:27Z</time>
      </trkpt>
      <trkpt lat="49.227491" lon="-0.556842">
        <ele>94.3</ele>
        <time>2014-12-14T09:27:31Z</time>
      </trkpt>
      <trkpt lat="49.227632" lon="-0.556692">
        <ele>94.3</ele>
        <time>2014-12-14T09:27:35Z</time>
      </trkpt>
      <trkpt lat="49.227796" lon="-0.556485">
        <ele>94.6</ele>
        <time>2014-12-14T09:27:39Z</time>
      </trkpt>
      <trkpt lat="49.227989" lon="-0.556313">
        <ele>95.5</ele>
        <time>2014-12-14T09:27:43Z</time>
      </trkpt>
      <trkpt lat="49.228132" lon="-0.556112">
        <ele>94.8</ele>
        <time>2014-12-14T09:27:47Z</time>
      </trkpt>
      <trkpt lat="49.228335" lon="-0.555898">
        <ele>95.6</ele>
        <time>2014-12-14T09:27:51Z</time>
      </trkpt>
      <trkpt lat="49.228482" lon="-0.555677">
        <ele>95.9</ele>
        <time>2014-12-14T09:27:55Z</time>
      </trkpt>
      <trkpt lat="49.228638" lon="-0.555487">
        <ele>95.9</ele>
        <time>2014-12-14T09:27:59Z</time>
      </trkpt>
      <trkpt lat="49.228812" lon="-0.555263">
        <ele>96.8</ele>
        <time>2014-12-14T09:28:03Z</time>
      </trkpt>
      <trkpt lat="49.228953" lon="-0.555112">
        <ele>96.0</ele>
        <time>2014-12-14T09:28:07Z</time>
      </trkpt>
      <trkpt lat="49.229073" lon="-0.554924">
        <ele>94.6</ele>
        <time>2014-12-14T09:28:11Z</time>
      </trkpt>
      <trkpt lat="49.229271" lon="-0.554651">
        <ele>94.6</ele>
        <time>2014-12-14T09:28:15Z</time>
      </trkpt>
      <trkpt lat="49.229472" lon="-0.554363">
        <ele>94.9</ele>
        <time>2014-12-14T09:28:19Z</time>
      </trkpt>
      <trkpt lat="49.229655" lon="-0.554061">
        <ele>93.6</ele>
        <time>2014-12-14T09:28:23Z</time>
      </trkpt>
      <trkpt lat="49.229789" lon="-0.553778">
        <ele>92.5</ele>
        <time>2014-12-14T09:28:27Z</time>
      </trkpt>
      <trkpt lat="49.229904" lon="-0.553506">
        <ele>93.3</ele>
        <time>2014-12-14T09:28:31Z</time>
      </trkpt>
      <trkpt lat="49.230031" lon="-0.553242">
        <ele>93.4</ele>
        <time>2014-12-14T09:28:35Z</time>
      </trkpt>
      <trkpt lat="49.230146" lon="-0.552928">
        <ele>93.1</ele>
        <time>2014-12-14T09:28:39Z</time>
      </trkpt>
      <trkpt lat="49.230288" lon="-0.552643">
        <ele>93.6</ele>
        <time>2014-12-14T09:28:43Z</time>
      </trkpt>
      <trkpt lat="49.230419" lon="-0.552359">
        <ele>93.9</ele>
        <time>2014-12-14T09:28:47Z</time>
      </trkpt>
      <trkpt lat="49.23052" lon="-0.552066">
        <ele>92.9</ele>
        <time>2014-12-14T09:28:51Z</time>
      </trkpt>
      <trkpt lat="49.230637" lon="-0.551723">
        <ele>93.4</ele>
        <time>2014-12-14T09:28:55Z</time>
      </trkpt>
      <trkpt lat="49.230778" lon="-0.55141">
        <ele>92.4</ele>
        <time>2014-12-14T09:28:59Z</time>
      </trkpt>
      <trkpt lat="49.230903" lon="-0.551037">
        <ele>93.3</ele>
        <time>2014-12-14T09:29:03Z</time>
      </trkpt>
      <trkpt lat="49.231016" lon="-0.550668">
        <ele>93.4</ele>
        <time>2014-12-14T09:29:07Z</time>
      </trkpt>
      <trkpt lat="49.231171" lon="-0.550302">
        <ele>92.1</ele>
        <time>2014-12-14T09:29:11Z</time>
      </trkpt>
      <trkpt lat="49.231297" lon="-0.549934">
        <ele>92.5</ele>
        <time>2014-12-14T09:29:15Z</time>
      </trkpt>
      <trkpt lat="49.231426" lon="-0.549613">
        <ele>91.4</ele>
        <time>2014-12-14T09:29:19Z</time>
      </trkpt>
      <trkpt lat="49.231535" lon="-0.549292">
        <ele>91.2</ele>
        <time>2014-12-14T09:29:23Z</time>
      </trkpt>
      <trkpt lat="49.231649" lon="-0.54899">
        <ele>91.2</ele>
        <time>2014-12-14T09:29:27Z</time>
      </trkpt>
      <trkpt lat="49.231732" lon="-0.548708">
        <ele>90.4</ele>
        <time>2014-12-14T09:29:31Z</time>
      </trkpt>
      <trkpt lat="49.231764" lon="-0.548436">
        <ele>90.4</ele>
        <time>2014-12-14T09:29:35Z</time>
      </trkpt>
      <trkpt lat="49.231857" lon="-0.548132">
        <ele>90.5</ele>
        <time>2014-12-14T09:29:39Z</time>
      </trkpt>
      <trkpt lat="49.231884" lon="-0.547808">
        <ele>90.7</ele>
        <time>2014-12-14T09:29:43Z</time>
      </trkpt>
      <trkpt lat="49.231829" lon="-0.547508">
        <ele>89.8</ele>
        <time>2014-12-14T09:29:47Z</time>
      </trkpt>
      <trkpt lat="49.231706" lon="-0.547295">
        <ele>90.1</ele>
        <time>2014-12-14T09:29:51Z</time>
      </trkpt>
      <trkpt lat="49.231538" lon="-0.547138">
        <ele>89.5</ele>
        <time>2014-12-14T09:29:55Z</time>
      </trkpt>
      <trkpt lat="49.231357" lon="-0.547002">
        <ele>90.1</ele>
        <time>2014-12-14T09:29:59Z</time>
      </trkpt>
      <trkpt lat="49.23118" lon="-0.546866">
        <ele>90.2</ele>
        <time>2014-12-14T09:30:03Z</time>
      </trkpt>
      <trkpt lat="49.230991" lon="-0.546732">
        <ele>89.3</ele>
        <time>2014-12-14T09:30:07Z</time>
      </trkpt>
      <trkpt lat="49.23081" lon="-0.546598">
        <ele>89.5</ele>
        <time>2014-12-14T09:30:11Z</time>
      </trkpt>
      <trkpt lat="49.230629" lon="-0.546462">
        <ele>90.1</ele>
        <time>2014-12-14T09:30:15Z</time>
      </trkpt>
      <trkpt lat="49.230447" lon="-0.546327">
        <ele>89.4</ele>
        <time>2014-12-14T09:30:19Z</time>
      </trkpt>
      <trkpt lat="49.230267" lon="-0.546196">
        <ele>89.4</ele>
        <time>2014-12-14T09:30:23Z</time>
      </trkpt>
      <trkpt lat="49.230082" lon="-0.546061">
        <ele>88.9</ele>
        <time>2014-12-14T09:30:27Z</time>
      </trkpt>
      <trkpt lat="49.229908" lon="-0.545925">
        <ele>89.7</ele>
        <time>2014-12-14T09:30:31Z</time>
      </trkpt>
      <trkpt lat="49.229729" lon="-0.54576">
        <ele>89.9</ele>
        <time>2014-12-14T09:30:35Z</time>
      </trkpt>
      <trkpt lat="49.229566" lon="-0.545583">
        <ele>88.8</ele>
        <time>2014-12-14T09:30:39Z</time>
      </trkpt>
      <trkpt lat="49.229385" lon="-0.545377">
        <ele>89.4</ele>
        <time>2014-12-14T09:30:43Z</time>
      </trkpt>
      <trkpt lat="49.229217" lon="-0.545167">
        <ele>90.8</ele>
        <time>2014-12-14T09:30:47Z</time>
      </trkpt>
      <trkpt lat="49.229048" lon="-0.544956">
        <ele>91.0</ele>
        <time>2014-12-14T09:30:51Z</time>
      </trkpt>
      <trkpt lat="49.228905" lon="-0.544778">
        <ele>92.3</ele>
        <time>2014-12-14T09:30:55Z</time>
      </trkpt>
      <trkpt lat="49.228772" lon="-0.544608">
        <ele>92.3</ele>
        <time>2014-12-14T09:30:59Z</time>
      </trkpt>
      <trkpt lat="49.228682" lon="-0.544472">
        <ele>93.4</ele>
        <time>2014-12-14T09:31:03Z</time>
      </trkpt>
      <trkpt lat="49.22857" lon="-0.54428">
        <ele>94.5</ele>
        <time>2014-12-14T09:31:07Z</time>
      </trkpt>
      <trkpt lat="49.22845" lon="-0.544181">
        <ele>94.8</ele>
        <time>2014-12-14T09:31:11Z</time>
      </trkpt>
      <trkpt lat="49.228307" lon="-0.544043">
        <ele>94.8</ele>
        <time>2014-12-14T09:31:15Z</time>
      </trkpt>
      <trkpt lat="49.228214" lon="-0.543906">
        <ele>95.0</ele>
        <time>2014-12-14T09:31:19Z</time>
      </trkpt>
      <trkpt lat="49.228276" lon="-0.543754">
        <ele>95.3</ele>
        <time>2014-12-14T09:31:23Z</time>
      </trkpt>
      <trkpt lat="49.228384" lon="-0.543566">
        <ele>95.3</ele>
        <time>2014-12-14T09:31:27Z</time>
      </trkpt>
      <trkpt lat="49.228487" lon="-0.543342">
        <ele>94.2</ele>
        <time>2014-12-14T09:31:31Z</time>
      </trkpt>
      <trkpt lat="49.228607" lon="-0.54315">
        <ele>94.1</ele>
        <time>2014-12-14T09:31:35Z</time>
      </trkpt>
      <trkpt lat="49.228759" lon="-0.542924">
        <ele>93.6</ele>
        <time>2014-12-14T09:31:39Z</time>
      </trkpt>
      <trkpt lat="49.228894" lon="-0.5427">
        <ele>92.9</ele>
        <time>2014-12-14T09:31:43Z</time>
      </trkpt>
      <trkpt lat="49.229029" lon="-0.54247">
        <ele>92.9</ele>
        <time>2014-12-14T09:31:47Z</time>
      </trkpt>
      <trkpt lat="49.229145" lon="-0.542268">
        <ele>92.3</ele>
        <time>2014-12-14T09:31:51Z</time>
      </trkpt>
      <trkpt lat="49.229285" lon="-0.542001">
        <ele>91.7</ele>
        <time>2014-12-14T09:31:55Z</time>
      </trkpt>
      <trkpt lat="49.229438" lon="-0.541751">
        <ele>91.2</ele>
        <time>2014-12-14T09:31:59Z</time>
      </trkpt>
      <trkpt lat="49.22955" lon="-0.541576">
        <ele>91.0</ele>
        <time>2014-12-14T09:32:03Z</time>
      </trkpt>
      <trkpt lat="49.229681" lon="-0.541379">
        <ele>89.7</ele>
        <time>2014-12-14T09:32:07Z</time>
      </trkpt>
      <trkpt lat="49.229821" lon="-0.541142">
        <ele>88.6</ele>
        <time>2014-12-14T09:32:11Z</time>
      </trkpt>
      <trkpt lat="49.22994" lon="-0.540943">
        <ele>88.1</ele>
        <time>2014-12-14T09:32:15Z</time>
      </trkpt>
      <trkpt lat="49.229919" lon="-0.54072">
        <ele>87.8</ele>
        <time>2014-12-14T09:32:19Z</time>
      </trkpt>
      <trkpt lat="49.229804" lon="-0.540583">
        <ele>88.0</ele>
        <time>2014-12-14T09:32:23Z</time>
      </trkpt>
      <trkpt lat="49.229681" lon="-0.540486">
        <ele>88.0</ele>
        <time>2014-12-14T09:32:27Z</time>
      </trkpt>
      <trkpt lat="49.22953" lon="-0.540355">
        <ele>87.4</ele>
        <time>2014-12-14T09:32:31Z</time>
      </trkpt>
      <trkpt lat="49.229377" lon="-0.540202">
        <ele>87.8</ele>
        <time>2014-12-14T09:32:35Z</time>
      </trkpt>
      <trkpt lat="49.229247" lon="-0.540049">
        <ele>87.8</ele>
        <time>2014-12-14T09:32:39Z</time>
      </trkpt>
      <trkpt lat="49.229114" lon="-0.539927">
        <ele>88.3</ele>
        <time>2014-12-14T09:32:43Z</time>
      </trkpt>
      <trkpt lat="49.229023" lon="-0.53983">
        <ele>88.3</ele>
        <time>2014-12-14T09:32:47Z</time>
      </trkpt>
      <trkpt lat="49.228918" lon="-0.539708">
        <ele>88.3</ele>
        <time>2014-12-14T09:32:51Z</time>
      </trkpt>
      <trkpt lat="49.228802" lon="-0.539544">
        <ele>88.8</ele>
        <time>2014-12-14T09:32:55Z</time>
      </trkpt>
      <trkpt lat="49.228698" lon="-0.539383">
        <ele>88.8</ele>
        <time>2014-12-14T09:32:59Z</time>
      </trkpt>
      <trkpt lat="49.228589" lon="-0.539222">
        <ele>88.0</ele>
        <time>2014-12-14T09:33:03Z</time>
      </trkpt>
      <trkpt lat="49.228463" lon="-0.539065">
        <ele>88.2</ele>
        <time>2014-12-14T09:33:07Z</time>
      </trkpt>
      <trkpt lat="49.228347" lon="-0.53889">
        <ele>88.5</ele>
        <time>2014-12-14T09:33:11Z</time>
      </trkpt>
      <trkpt lat="49.228227" lon="-0.538748">
        <ele>88.7</ele>
        <time>2014-12-14T09:33:15Z</time>
      </trkpt>
      <trkpt lat="49.228071" lon="-0.538565">
        <ele>89.1</ele>
        <time>2014-12-14T09:33:19Z</time>
      </trkpt>
      <trkpt lat="49.227942" lon="-0.538403">
        <ele>88.8</ele>
        <time>2014-12-14T09:33:23Z</time>
      </trkpt>
      <trkpt lat="49.227816" lon="-0.538279">
        <ele>89.6</ele>
        <time>2014-12-14T09:33:27Z</time>
      </trkpt>
      <trkpt lat="49.227702" lon="-0.53813">
        <ele>89.3</ele>
        <time>2014-12-14T09:33:31Z</time>
      </trkpt>
      <trkpt lat="49.227571" lon="-0.537976">
        <ele>89.1</ele>
        <time>2014-12-14T09:33:35Z</time>
      </trkpt>
      <trkpt lat="49.227423" lon="-0.537801">
        <ele>89.5</ele>
        <time>2014-12-14T09:33:39Z</time>
      </trkpt>
      <trkpt lat="49.227284" lon="-0.537608">
        <ele>90.4</ele>
        <time>2014-12-14T09:33:43Z</time>
      </trkpt>
      <trkpt lat="49.227138" lon="-0.537411">
        <ele>89.7</ele>
        <time>2014-12-14T09:33:47Z</time>
      </trkpt>
      <trkpt lat="49.227025" lon="-0.537264">
        <ele>88.9</ele>
        <time>2014-12-14T09:33:51Z</time>
      </trkpt>
      <trkpt lat="49.226885" lon="-0.537131">
        <ele>90.3</ele>
        <time>2014-12-14T09:33:55Z</time>
      </trkpt>
      <trkpt lat="49.226754" lon="-0.536969">
        <ele>89.1</ele>
        <time>2014-12-14T09:33:59Z</time>
      </trkpt>
      <trkpt lat="49.226612" lon="-0.536805">
        <ele>89.5</ele>
        <time>2014-12-14T09:34:03Z</time>
      </trkpt>
      <trkpt lat="49.226462" lon="-0.536634">
        <ele>89.4</ele>
        <time>2014-12-14T09:34:07Z</time>
      </trkpt>
      <trkpt lat="49.226321" lon="-0.536465">
        <ele>90.5</ele>
        <time>2014-12-14T09:34:11Z</time>
      </trkpt>
      <trkpt lat="49.226178" lon="-0.536308">
        <ele>90.5</ele>
        <time>2014-12-14T09:34:15Z</time>
      </trkpt>
      <trkpt lat="49.226062" lon="-0.5361">
        <ele>89.7</ele>
        <time>2014-12-14T09:34:19Z</time>
      </trkpt>
      <trkpt lat="49.226088" lon="-0.535847">
        <ele>89.7</ele>
        <time>2014-12-14T09:34:23Z</time>
      </trkpt>
      <trkpt lat="49.226181" lon="-0.535634">
        <ele>90.9</ele>
        <time>2014-12-14T09:34:27Z</time>
      </trkpt>
      <trkpt lat="49.2263" lon="-0.535417">
        <ele>91.9</ele>
        <time>2014-12-14T09:34:31Z</time>
      </trkpt>
      <trkpt lat="49.226426" lon="-0.535193">
        <ele>92.6</ele>
        <time>2014-12-14T09:34:35Z</time>
      </trkpt>
      <trkpt lat="49.226398" lon="-0.534959">
        <ele>92.1</ele>
        <time>2014-12-14T09:34:39Z</time>
      </trkpt>
      <trkpt lat="49.226288" lon="-0.534833">
        <ele>93.1</ele>
        <time>2014-12-14T09:34:43Z</time>
      </trkpt>
      <trkpt lat="49.226125" lon="-0.5347">
        <ele>93.1</ele>
        <time>2014-12-14T09:34:47Z</time>
      </trkpt>
      <trkpt lat="49.225898" lon="-0.534573">
        <ele>93.1</ele>
        <time>2014-12-14T09:34:51Z</time>
      </trkpt>
      <trkpt lat="49.225723" lon="-0.534447">
        <ele>93.5</ele>
        <time>2014-12-14T09:34:55Z</time>
      </trkpt>
      <trkpt lat="49.225545" lon="-0.534343">
        <ele>92.4</ele>
        <time>2014-12-14T09:34:59Z</time>
      </trkpt>
      <trkpt lat="49.225369" lon="-0.534195">
        <ele>91.5</ele>
        <time>2014-12-14T09:35:03Z</time>
      </trkpt>
      <trkpt lat="49.225254" lon="-0.534098">
        <ele>91.4</ele>
        <time>2014-12-14T09:35:07Z</time>
      </trkpt>
      <trkpt lat="49.225187" lon="-0.534007">
        <ele>91.7</ele>
        <time>2014-12-14T09:35:11Z</time>
      </trkpt>
      <trkpt lat="49.225149" lon="-0.534016">
        <ele>91.7</ele>
        <time>2014-12-14T09:35:15Z</time>
      </trkpt>
      <trkpt lat="49.225116" lon="-0.533881">
        <ele>91.1</ele>
        <time>2014-12-14T09:35:19Z</time>
      </trkpt>
      <trkpt lat="49.225179" lon="-0.533657">
        <ele>90.4</ele>
        <time>2014-12-14T09:35:23Z</time>
      </trkpt>
      <trkpt lat="49.225264" lon="-0.533436">
        <ele>89.9</ele>
        <time>2014-12-14T09:35:27Z</time>
      </trkpt>
      <trkpt lat="49.225354" lon="-0.533239">
        <ele>89.5</ele>
        <time>2014-12-14T09:35:31Z</time>
      </trkpt>
      <trkpt lat="49.225424" lon="-0.533067">
        <ele>89.1</ele>
        <time>2014-12-14T09:35:35Z</time>
      </trkpt>
      <trkpt lat="49.225509" lon="-0.532891">
        <ele>88.6</ele>
        <time>2014-12-14T09:35:39Z</time>
      </trkpt>
      <trkpt lat="49.225589" lon="-0.532675">
        <ele>88.1</ele>
        <time>2014-12-14T09:35:43Z</time>
      </trkpt>
      <trkpt lat="49.225685" lon="-0.532429">
        <ele>87.1</ele>
        <time>2014-12-14T09:35:47Z</time>
      </trkpt>
      <trkpt lat="49.225795" lon="-0.532203">
        <ele>87.1</ele>
        <time>2014-12-14T09:35:51Z</time>
      </trkpt>
      <trkpt lat="49.225916" lon="-0.531946">
        <ele>86.0</ele>
        <time>2014-12-14T09:35:55Z</time>
      </trkpt>
      <trkpt lat="49.226016" lon="-0.531662">
        <ele>85.6</ele>
        <time>2014-12-14T09:35:59Z</time>
      </trkpt>
      <trkpt lat="49.226121" lon="-0.531378">
        <ele>85.6</ele>
        <time>2014-12-14T09:36:03Z</time>
      </trkpt>
      <trkpt lat="49.226207" lon="-0.531082">
        <ele>84.8</ele>
        <time>2014-12-14T09:36:07Z</time>
      </trkpt>
      <trkpt lat="49.22629" lon="-0.530772">
        <ele>84.5</ele>
        <time>2014-12-14T09:36:11Z</time>
      </trkpt>
      <trkpt lat="49.226361" lon="-0.530461">
        <ele>84.6</ele>
        <time>2014-12-14T09:36:15Z</time>
      </trkpt>
      <trkpt lat="49.226495" lon="-0.530189">
        <ele>84.0</ele>
        <time>2014-12-14T09:36:19Z</time>
      </trkpt>
      <trkpt lat="49.226659" lon="-0.529957">
        <ele>84.3</ele>
        <time>2014-12-14T09:36:23Z</time>
      </trkpt>
      <trkpt lat="49.226871" lon="-0.529794">
        <ele>83.5</ele>
        <time>2014-12-14T09:36:27Z</time>
      </trkpt>
      <trkpt lat="49.227095" lon="-0.529651">
        <ele>83.5</ele>
        <time>2014-12-14T09:36:31Z</time>
      </trkpt>
      <trkpt lat="49.227288" lon="-0.529423">
        <ele>83.7</ele>
        <time>2014-12-14T09:36:35Z</time>
      </trkpt>
      <trkpt lat="49.227486" lon="-0.529137">
        <ele>83.4</ele>
        <time>2014-12-14T09:36:39Z</time>
      </trkpt>
      <trkpt lat="49.227625" lon="-0.528864">
        <ele>82.8</ele>
        <time>2014-12-14T09:36:43Z</time>
      </trkpt>
      <trkpt lat="49.22776" lon="-0.528569">
        <ele>82.7</ele>
        <time>2014-12-14T09:36:47Z</time>
      </trkpt>
      <trkpt lat="49.22788" lon="-0.528253">
        <ele>81.7</ele>
        <time>2014-12-14T09:36:51Z</time>
      </trkpt>
      <trkpt lat="49.228005" lon="-0.527981">
        <ele>81.6</ele>
        <time>2014-12-14T09:36:55Z</time>
      </trkpt>
      <trkpt lat="49.22817" lon="-0.52772">
        <ele>81.3</ele>
        <time>2014-12-14T09:36:59Z</time>
      </trkpt>
      <trkpt lat="49.228364" lon="-0.527539">
        <ele>81.6</ele>
        <time>2014-12-14T09:37:03Z</time>
      </trkpt>
      <trkpt lat="49.228573" lon="-0.527413">
        <ele>81.0</ele>
        <time>2014-12-14T09:37:07Z</time>
      </trkpt>
      <trkpt lat="49.228811" lon="-0.527293">
        <ele>81.5</ele>
        <time>2014-12-14T09:37:11Z</time>
      </trkpt>
      <trkpt lat="49.229044" lon="-0.527188">
        <ele>81.9</ele>
        <time>2014-12-14T09:37:15Z</time>
      </trkpt>
      <trkpt lat="49.229265" lon="-0.527092">
        <ele>81.5</ele>
        <time>2014-12-14T09:37:19Z</time>
      </trkpt>
      <trkpt lat="49.229479" lon="-0.526987">
        <ele>81.3</ele>
        <time>2014-12-14T09:37:23Z</time>
      </trkpt>
      <trkpt lat="49.229677" lon="-0.526875">
        <ele>80.9</ele>
        <time>2014-12-14T09:37:27Z</time>
      </trkpt>
      <trkpt lat="49.229744" lon="-0.526984">
        <ele>80.3</ele>
        <time>2014-12-14T09:37:31Z</time>
      </trkpt>
      <trkpt lat="49.229707" lon="-0.527139">
        <ele>80.9</ele>
        <time>2014-12-14T09:37:35Z</time>
      </trkpt>
      <trkpt lat="49.229659" lon="-0.527384">
        <ele>81.3</ele>
        <time>2014-12-14T09:37:39Z</time>
      </trkpt>
      <trkpt lat="49.229604" lon="-0.527613">
        <ele>81.0</ele>
        <time>2014-12-14T09:37:43Z</time>
      </trkpt>
      <trkpt lat="49.229553" lon="-0.52787">
        <ele>81.3</ele>
        <time>2014-12-14T09:37:47Z</time>
      </trkpt>
      <trkpt lat="49.229518" lon="-0.528148">
        <ele>81.4</ele>
        <time>2014-12-14T09:37:51Z</time>
      </trkpt>
      <trkpt lat="49.229524" lon="-0.528424">
        <ele>82.1</ele>
        <time>2014-12-14T09:37:55Z</time>
      </trkpt>
      <trkpt lat="49.22965" lon="-0.528512">
        <ele>82.1</ele>
        <time>2014-12-14T09:37:59Z</time>
      </trkpt>
      <trkpt lat="49.229828" lon="-0.528568">
        <ele>82.2</ele>
        <time>2014-12-14T09:38:03Z</time>
      </trkpt>
      <trkpt lat="49.23" lon="-0.528667">
        <ele>81.1</ele>
        <time>2014-12-14T09:38:07Z</time>
      </trkpt>
      <trkpt lat="49.230187" lon="-0.528775">
        <ele>82.6</ele>
        <time>2014-12-14T09:38:11Z</time>
      </trkpt>
      <trkpt lat="49.230376" lon="-0.528861">
        <ele>82.6</ele>
        <time>2014-12-14T09:38:15Z</time>
      </trkpt>
      <trkpt lat="49.230575" lon="-0.528985">
        <ele>83.2</ele>
        <time>2014-12-14T09:38:19Z</time>
      </trkpt>
      <trkpt lat="49.23076" lon="-0.529091">
        <ele>83.2</ele>
        <time>2014-12-14T09:38:23Z</time>
      </trkpt>
      <trkpt lat="49.230903" lon="-0.529203">
        <ele>83.6</ele>
        <time>2014-12-14T09:38:27Z</time>
      </trkpt>
      <trkpt lat="49.230942" lon="-0.529395">
        <ele>84.0</ele>
        <time>2014-12-14T09:38:31Z</time>
      </trkpt>
      <trkpt lat="49.230997" lon="-0.529557">
        <ele>84.6</ele>
        <time>2014-12-14T09:38:35Z</time>
      </trkpt>
      <trkpt lat="49.231165" lon="-0.529698">
        <ele>84.8</ele>
        <time>2014-12-14T09:38:39Z</time>
      </trkpt>
      <trkpt lat="49.231358" lon="-0.529831">
        <ele>84.4</ele>
        <time>2014-12-14T09:38:43Z</time>
      </trkpt>
      <trkpt lat="49.231542" lon="-0.529992">
        <ele>85.5</ele>
        <time>2014-12-14T09:38:47Z</time>
      </trkpt>
      <trkpt lat="49.231747" lon="-0.530176">
        <ele>85.9</ele>
        <time>2014-12-14T09:38:51Z</time>
      </trkpt>
      <trkpt lat="49.231969" lon="-0.530327">
        <ele>86.5</ele>
        <time>2014-12-14T09:38:55Z</time>
      </trkpt>
      <trkpt lat="49.232177" lon="-0.530503">
        <ele>86.5</ele>
        <time>2014-12-14T09:38:59Z</time>
      </trkpt>
      <trkpt lat="49.232334" lon="-0.53062">
        <ele>87.3</ele>
        <time>2014-12-14T09:39:03Z</time>
      </trkpt>
      <trkpt lat="49.232526" lon="-0.530782">
        <ele>86.3</ele>
        <time>2014-12-14T09:39:07Z</time>
      </trkpt>
      <trkpt lat="49.232748" lon="-0.530948">
        <ele>86.3</ele>
        <time>2014-12-14T09:39:11Z</time>
      </trkpt>
      <trkpt lat="49.232949" lon="-0.531101">
        <ele>88.2</ele>
        <time>2014-12-14T09:39:15Z</time>
      </trkpt>
      <trkpt lat="49.233185" lon="-0.531256">
        <ele>86.9</ele>
        <time>2014-12-14T09:39:19Z</time>
      </trkpt>
      <trkpt lat="49.233431" lon="-0.531416">
        <ele>85.9</ele>
        <time>2014-12-14T09:39:23Z</time>
      </trkpt>
      <trkpt lat="49.23366" lon="-0.531581">
        <ele>87.0</ele>
        <time>2014-12-14T09:39:27Z</time>
      </trkpt>
      <trkpt lat="49.233857" lon="-0.531704">
        <ele>87.6</ele>
        <time>2014-12-14T09:39:31Z</time>
      </trkpt>
      <trkpt lat="49.234055" lon="-0.531799">
        <ele>87.7</ele>
        <time>2014-12-14T09:39:35Z</time>
      </trkpt>
      <trkpt lat="49.234303" lon="-0.531955">
        <ele>87.0</ele>
        <time>2014-12-14T09:39:39Z</time>
      </trkpt>
      <trkpt lat="49.234522" lon="-0.532092">
        <ele>87.0</ele>
        <time>2014-12-14T09:39:43Z</time>
      </trkpt>
      <trkpt lat="49.234637" lon="-0.532296">
        <ele>88.4</ele>
        <time>2014-12-14T09:39:47Z</time>
      </trkpt>
      <trkpt lat="49.234717" lon="-0.532516">
        <ele>88.4</ele>
        <time>2014-12-14T09:39:51Z</time>
      </trkpt>
      <trkpt lat="49.234787" lon="-0.532824">
        <ele>87.3</ele>
        <time>2014-12-14T09:39:55Z</time>
      </trkpt>
      <trkpt lat="49.234852" lon="-0.533152">
        <ele>86.8</ele>
        <time>2014-12-14T09:39:59Z</time>
      </trkpt>
      <trkpt lat="49.234916" lon="-0.533477">
        <ele>87.5</ele>
        <time>2014-12-14T09:40:03Z</time>
      </trkpt>
      <trkpt lat="49.234966" lon="-0.533763">
        <ele>86.7</ele>
        <time>2014-12-14T09:40:07Z</time>
      </trkpt>
      <trkpt lat="49.235011" lon="-0.533986">
        <ele>87.7</ele>
        <time>2014-12-14T09:40:11Z</time>
      </trkpt>
      <trkpt lat="49.235051" lon="-0.534247">
        <ele>87.7</ele>
        <time>2014-12-14T09:40:15Z</time>
      </trkpt>
      <trkpt lat="49.235009" lon="-0.534551">
        <ele>87.2</ele>
        <time>2014-12-14T09:40:19Z</time>
      </trkpt>
      <trkpt lat="49.234935" lon="-0.53485">
        <ele>88.7</ele>
        <time>2014-12-14T09:40:23Z</time>
      </trkpt>
      <trkpt lat="49.234912" lon="-0.535125">
        <ele>87.3</ele>
        <time>2014-12-14T09:40:27Z</time>
      </trkpt>
      <trkpt lat="49.234857" lon="-0.53537">
        <ele>87.3</ele>
        <time>2014-12-14T09:40:31Z</time>
      </trkpt>
      <trkpt lat="49.234789" lon="-0.535621">
        <ele>86.6</ele>
        <time>2014-12-14T09:40:35Z</time>
      </trkpt>
      <trkpt lat="49.23475" lon="-0.535909">
        <ele>86.7</ele>
        <time>2014-12-14T09:40:39Z</time>
      </trkpt>
      <trkpt lat="49.234679" lon="-0.536158">
        <ele>70.7</ele>
        <time>2014-12-14T09:40:43Z</time>
      </trkpt>
      <trkpt lat="49.23465" lon="-0.536418">
        <ele>67.0</ele>
        <time>2014-12-14T09:40:47Z</time>
      </trkpt>
      <trkpt lat="49.234617" lon="-0.536659">
        <ele>67.4</ele>
        <time>2014-12-14T09:40:51Z</time>
      </trkpt>
      <trkpt lat="49.234614" lon="-0.536937">
        <ele>66.7</ele>
        <time>2014-12-14T09:40:55Z</time>
      </trkpt>
      <trkpt lat="49.234752" lon="-0.537056">
        <ele>67.5</ele>
        <time>2014-12-14T09:40:59Z</time>
      </trkpt>
      <trkpt lat="49.2349" lon="-0.53708">
        <ele>66.9</ele>
        <time>2014-12-14T09:41:03Z</time>
      </trkpt>
      <trkpt lat="49.235022" lon="-0.53711">
        <ele>67.5</ele>
        <time>2014-12-14T09:41:07Z</time>
      </trkpt>
      <trkpt lat="49.235136" lon="-0.537167">
        <ele>67.1</ele>
        <time>2014-12-14T09:41:11Z</time>
      </trkpt>
      <trkpt lat="49.235253" lon="-0.53728">
        <ele>67.1</ele>
        <time>2014-12-14T09:41:15Z</time>
      </trkpt>
      <trkpt lat="49.235348" lon="-0.537379">
        <ele>66.8</ele>
        <time>2014-12-14T09:41:19Z</time>
      </trkpt>
      <trkpt lat="49.235413" lon="-0.537465">
        <ele>66.8</ele>
        <time>2014-12-14T09:41:23Z</time>
      </trkpt>
      <trkpt lat="49.235491" lon="-0.537573">
        <ele>67.4</ele>
        <time>2014-12-14T09:41:27Z</time>
      </trkpt>
      <trkpt lat="49.235573" lon="-0.537637">
        <ele>67.3</ele>
        <time>2014-12-14T09:41:31Z</time>
      </trkpt>
      <trkpt lat="49.235636" lon="-0.537711">
        <ele>68.1</ele>
        <time>2014-12-14T09:41:35Z</time>
      </trkpt>
      <trkpt lat="49.235714" lon="-0.537782">
        <ele>68.1</ele>
        <time>2014-12-14T09:41:39Z</time>
      </trkpt>
      <trkpt lat="49.235779" lon="-0.537868">
        <ele>69.6</ele>
        <time>2014-12-14T09:41:43Z</time>
      </trkpt>
      <trkpt lat="49.235883" lon="-0.537922">
        <ele>69.8</ele>
        <time>2014-12-14T09:41:47Z</time>
      </trkpt>
      <trkpt lat="49.235942" lon="-0.537972">
        <ele>70.7</ele>
        <time>2014-12-14T09:41:51Z</time>
      </trkpt>
      <trkpt lat="49.236018" lon="-0.538001">
        <ele>71.7</ele>
        <time>2014-12-14T09:41:55Z</time>
      </trkpt>
      <trkpt lat="49.236042" lon="-0.538138">
        <ele>72.2</ele>
        <time>2014-12-14T09:41:59Z</time>
      </trkpt>
      <trkpt lat="49.236074" lon="-0.538251">
        <ele>73.1</ele>
        <time>2014-12-14T09:42:03Z</time>
      </trkpt>
      <trkpt lat="49.236076" lon="-0.538349">
        <ele>74.1</ele>
        <time>2014-12-14T09:42:07Z</time>
      </trkpt>
      <trkpt lat="49.236065" lon="-0.538395">
        <ele>75.0</ele>
        <time>2014-12-14T09:42:11Z</time>
      </trkpt>
      <trkpt lat="49.236064" lon="-0.538545">
        <ele>75.2</ele>
        <time>2014-12-14T09:42:15Z</time>
      </trkpt>
      <trkpt lat="49.236104" lon="-0.53868">
        <ele>75.5</ele>
        <time>2014-12-14T09:42:19Z</time>
      </trkpt>
      <trkpt lat="49.236132" lon="-0.538762">
        <ele>76.2</ele>
        <time>2014-12-14T09:42:23Z</time>
      </trkpt>
      <trkpt lat="49.236149" lon="-0.538914">
        <ele>76.5</ele>
        <time>2014-12-14T09:42:27Z</time>
      </trkpt>
      <trkpt lat="49.236166" lon="-0.538961">
        <ele>76.9</ele>
        <time>2014-12-14T09:42:31Z</time>
      </trkpt>
      <trkpt lat="49.236187" lon="-0.53908">
        <ele>77.6</ele>
        <time>2014-12-14T09:42:35Z</time>
      </trkpt>
      <trkpt lat="49.236228" lon="-0.539231">
        <ele>78.3</ele>
        <time>2014-12-14T09:42:39Z</time>
      </trkpt>
      <trkpt lat="49.236267" lon="-0.539309">
        <ele>79.1</ele>
        <time>2014-12-14T09:42:43Z</time>
      </trkpt>
      <trkpt lat="49.23629" lon="-0.53937">
        <ele>79.3</ele>
        <time>2014-12-14T09:42:47Z</time>
      </trkpt>
      <trkpt lat="49.236352" lon="-0.539442">
        <ele>79.3</ele>
        <time>2014-12-14T09:42:51Z</time>
      </trkpt>
      <trkpt lat="49.23637" lon="-0.539534">
        <ele>80.4</ele>
        <time>2014-12-14T09:42:55Z</time>
      </trkpt>
      <trkpt lat="49.236423" lon="-0.539593">
        <ele>81.0</ele>
        <time>2014-12-14T09:42:59Z</time>
      </trkpt>
      <trkpt lat="49.236441" lon="-0.539641">
        <ele>81.6</ele>
        <time>2014-12-14T09:43:03Z</time>
      </trkpt>
      <trkpt lat="49.236482" lon="-0.53974">
        <ele>82.4</ele>
        <time>2014-12-14T09:43:07Z</time>
      </trkpt>
      <trkpt lat="49.236561" lon="-0.539879">
        <ele>82.5</ele>
        <time>2014-12-14T09:43:11Z</time>
      </trkpt>
      <trkpt lat="49.23662" lon="-0.539984">
        <ele>83.2</ele>
        <time>2014-12-14T09:43:15Z</time>
      </trkpt>
      <trkpt lat="49.236645" lon="-0.540047">
        <ele>83.2</ele>
        <time>2014-12-14T09:43:19Z</time>
      </trkpt>
      <trkpt lat="49.236684" lon="-0.540143">
        <ele>84.0</ele>
        <time>2014-12-14T09:43:23Z</time>
      </trkpt>
      <trkpt lat="49.236724" lon="-0.540256">
        <ele>84.0</ele>
        <time>2014-12-14T09:43:27Z</time>
      </trkpt>
      <trkpt lat="49.236793" lon="-0.540359">
        <ele>85.0</ele>
        <time>2014-12-14T09:43:31Z</time>
      </trkpt>
      <trkpt lat="49.236846" lon="-0.540443">
        <ele>86.1</ele>
        <time>2014-12-14T09:43:35Z</time>
      </trkpt>
      <trkpt lat="49.236888" lon="-0.540523">
        <ele>86.5</ele>
        <time>2014-12-14T09:43:39Z</time>
      </trkpt>
      <trkpt lat="49.236943" lon="-0.540608">
        <ele>86.8</ele>
        <time>2014-12-14T09:43:43Z</time>
      </trkpt>
      <trkpt lat="49.236981" lon="-0.540647">
        <ele>87.6</ele>
        <time>2014-12-14T09:43:47Z</time>
      </trkpt>
      <trkpt lat="49.237048" lon="-0.540715">
        <ele>87.7</ele>
        <time>2014-12-14T09:43:51Z</time>
      </trkpt>
      <trkpt lat="49.237126" lon="-0.54084">
        <ele>88.5</ele>
        <time>2014-12-14T09:43:55Z</time>
      </trkpt>
      <trkpt lat="49.237189" lon="-0.540935">
        <ele>89.0</ele>
        <time>2014-12-14T09:43:59Z</time>
      </trkpt>
      <trkpt lat="49.237262" lon="-0.540946">
        <ele>89.0</ele>
        <time>2014-12-14T09:44:03Z</time>
      </trkpt>
      <trkpt lat="49.237333" lon="-0.541058">
        <ele>89.4</ele>
        <time>2014-12-14T09:44:07Z</time>
      </trkpt>
      <trkpt lat="49.237379" lon="-0.54111">
        <ele>90.1</ele>
        <time>2014-12-14T09:44:11Z</time>
      </trkpt>
      <trkpt lat="49.237489" lon="-0.541206">
        <ele>90.8</ele>
        <time>2014-12-14T09:44:15Z</time>
      </trkpt>
      <trkpt lat="49.237562" lon="-0.541267">
        <ele>91.0</ele>
        <time>2014-12-14T09:44:19Z</time>
      </trkpt>
      <trkpt lat="49.237677" lon="-0.541372">
        <ele>91.7</ele>
        <time>2014-12-14T09:44:23Z</time>
      </trkpt>
      <trkpt lat="49.237739" lon="-0.541431">
        <ele>91.9</ele>
        <time>2014-12-14T09:44:27Z</time>
      </trkpt>
      <trkpt lat="49.237861" lon="-0.541497">
        <ele>91.8</ele>
        <time>2014-12-14T09:44:31Z</time>
      </trkpt>
      <trkpt lat="49.237972" lon="-0.541604">
        <ele>92.0</ele>
        <time>2014-12-14T09:44:35Z</time>
      </trkpt>
      <trkpt lat="49.238065" lon="-0.54176">
        <ele>92.0</ele>
        <time>2014-12-14T09:44:39Z</time>
      </trkpt>
      <trkpt lat="49.238127" lon="-0.541824">
        <ele>92.5</ele>
        <time>2014-12-14T09:44:43Z</time>
      </trkpt>
      <trkpt lat="49.238142" lon="-0.541941">
        <ele>92.9</ele>
        <time>2014-12-14T09:44:47Z</time>
      </trkpt>
      <trkpt lat="49.238155" lon="-0.542068">
        <ele>93.1</ele>
        <time>2014-12-14T09:44:51Z</time>
      </trkpt>
      <trkpt lat="49.238158" lon="-0.542173">
        <ele>93.4</ele>
        <time>2014-12-14T09:44:55Z</time>
      </trkpt>
      <trkpt lat="49.238106" lon="-0.542369">
        <ele>92.9</ele>
        <time>2014-12-14T09:44:59Z</time>
      </trkpt>
      <trkpt lat="49.238147" lon="-0.542468">
        <ele>92.8</ele>
        <time>2014-12-14T09:45:03Z</time>
      </trkpt>
      <trkpt lat="49.238261" lon="-0.542589">
        <ele>93.7</ele>
        <time>2014-12-14T09:45:07Z</time>
      </trkpt>
      <trkpt lat="49.238392" lon="-0.542737">
        <ele>93.6</ele>
        <time>2014-12-14T09:45:11Z</time>
      </trkpt>
      <trkpt lat="49.238503" lon="-0.54285">
        <ele>93.6</ele>
        <time>2014-12-14T09:45:15Z</time>
      </trkpt>
      <trkpt lat="49.238615" lon="-0.542965">
        <ele>92.6</ele>
        <time>2014-12-14T09:45:19Z</time>
      </trkpt>
      <trkpt lat="49.238722" lon="-0.543072">
        <ele>93.7</ele>
        <time>2014-12-14T09:45:23Z</time>
      </trkpt>
      <trkpt lat="49.238833" lon="-0.543185">
        <ele>92.9</ele>
        <time>2014-12-14T09:45:27Z</time>
      </trkpt>
      <trkpt lat="49.238948" lon="-0.543298">
        <ele>93.9</ele>
        <time>2014-12-14T09:45:31Z</time>
      </trkpt>
      <trkpt lat="49.23905" lon="-0.543414">
        <ele>93.9</ele>
        <time>2014-12-14T09:45:35Z</time>
      </trkpt>
      <trkpt lat="49.239138" lon="-0.543542">
        <ele>93.5</ele>
        <time>2014-12-14T09:45:39Z</time>
      </trkpt>
      <trkpt lat="49.239225" lon="-0.543642">
        <ele>93.4</ele>
        <time>2014-12-14T09:45:43Z</time>
      </trkpt>
      <trkpt lat="49.239316" lon="-0.543755">
        <ele>92.8</ele>
        <time>2014-12-14T09:45:47Z</time>
      </trkpt>
      <trkpt lat="49.239428" lon="-0.543875">
        <ele>92.8</ele>
        <time>2014-12-14T09:45:51Z</time>
      </trkpt>
      <trkpt lat="49.239532" lon="-0.544033">
        <ele>94.2</ele>
        <time>2014-12-14T09:45:55Z</time>
      </trkpt>
      <trkpt lat="49.23963" lon="-0.54417">
        <ele>94.2</ele>
        <time>2014-12-14T09:45:59Z</time>
      </trkpt>
      <trkpt lat="49.23973" lon="-0.544287">
        <ele>94.1</ele>
        <time>2014-12-14T09:46:03Z</time>
      </trkpt>
      <trkpt lat="49.239819" lon="-0.544408">
        <ele>93.0</ele>
        <time>2014-12-14T09:46:07Z</time>
      </trkpt>
      <trkpt lat="49.239934" lon="-0.544531">
        <ele>94.1</ele>
        <time>2014-12-14T09:46:11Z</time>
      </trkpt>
      <trkpt lat="49.240042" lon="-0.544637">
        <ele>94.9</ele>
        <time>2014-12-14T09:46:15Z</time>
      </trkpt>
      <trkpt lat="49.240137" lon="-0.544709">
        <ele>95.1</ele>
        <time>2014-12-14T09:46:19Z</time>
      </trkpt>
      <trkpt lat="49.240205" lon="-0.544773">
        <ele>94.4</ele>
        <time>2014-12-14T09:46:23Z</time>
      </trkpt>
      <trkpt lat="49.24023" lon="-0.544774">
        <ele>94.9</ele>
        <time>2014-12-14T09:46:27Z</time>
      </trkpt>
      <trkpt lat="49.240241" lon="-0.544767">
        <ele>94.5</ele>
        <time>2014-12-14T09:46:31Z</time>
      </trkpt>
    </trkseg>
    <trkseg>
      <trkpt lat="49.240281" lon="-0.544801">
        <ele>94.3</ele>
        <time>2014-12-14T09:49:23Z</time>
      </trkpt>
      <trkpt lat="49.240358" lon="-0.544843">
        <ele>93.2</ele>
        <time>2014-12-14T09:49:27Z</time>
      </trkpt>
      <trkpt lat="49.240417" lon="-0.544975">
        <ele>93.1</ele>
        <time>2014-12-14T09:49:31Z</time>
      </trkpt>
      <trkpt lat="49.240525" lon="-0.545115">
        <ele>93.5</ele>
        <time>2014-12-14T09:49:35Z</time>
      </trkpt>
      <trkpt lat="49.240645" lon="-0.545242">
        <ele>94.0</ele>
        <time>2014-12-14T09:49:39Z</time>
      </trkpt>
      <trkpt lat="49.240764" lon="-0.545388">
        <ele>94.1</ele>
        <time>2014-12-14T09:49:43Z</time>
      </trkpt>
      <trkpt lat="49.240897" lon="-0.545576">
        <ele>94.4</ele>
        <time>2014-12-14T09:49:47Z</time>
      </trkpt>
      <trkpt lat="49.241026" lon="-0.545728">
        <ele>95.2</ele>
        <time>2014-12-14T09:49:51Z</time>
      </trkpt>
      <trkpt lat="49.241156" lon="-0.545894">
        <ele>95.1</ele>
        <time>2014-12-14T09:49:55Z</time>
      </trkpt>
      <trkpt lat="49.241291" lon="-0.546068">
        <ele>95.6</ele>
        <time>2014-12-14T09:49:59Z</time>
      </trkpt>
      <trkpt lat="49.241395" lon="-0.546233">
        <ele>96.5</ele>
        <time>2014-12-14T09:50:03Z</time>
      </trkpt>
      <trkpt lat="49.24152" lon="-0.546411">
        <ele>96.7</ele>
        <time>2014-12-14T09:50:07Z</time>
      </trkpt>
      <trkpt lat="49.24163" lon="-0.546549">
        <ele>96.7</ele>
        <time>2014-12-14T09:50:11Z</time>
      </trkpt>
      <trkpt lat="49.241742" lon="-0.546691">
        <ele>96.3</ele>
        <time>2014-12-14T09:50:15Z</time>
      </trkpt>
      <trkpt lat="49.241856" lon="-0.546816">
        <ele>96.3</ele>
        <time>2014-12-14T09:50:19Z</time>
      </trkpt>
      <trkpt lat="49.241955" lon="-0.546936">
        <ele>97.4</ele>
        <time>2014-12-14T09:50:23Z</time>
      </trkpt>
      <trkpt lat="49.242046" lon="-0.547048">
        <ele>98.2</ele>
        <time>2014-12-14T09:50:27Z</time>
      </trkpt>
      <trkpt lat="49.242118" lon="-0.547153">
        <ele>97.8</ele>
        <time>2014-12-14T09:50:31Z</time>
      </trkpt>
      <trkpt lat="49.242198" lon="-0.547247">
        <ele>97.9</ele>
        <time>2014-12-14T09:50:35Z</time>
      </trkpt>
      <trkpt lat="49.242235" lon="-0.547336">
        <ele>97.9</ele>
        <time>2014-12-14T09:50:39Z</time>
      </trkpt>
      <trkpt lat="49.242306" lon="-0.547445">
        <ele>97.2</ele>
        <time>2014-12-14T09:50:43Z</time>
      </trkpt>
      <trkpt lat="49.242367" lon="-0.547539">
        <ele>97.7</ele>
        <time>2014-12-14T09:50:47Z</time>
      </trkpt>
      <trkpt lat="49.242473" lon="-0.547629">
        <ele>97.1</ele>
        <time>2014-12-14T09:50:51Z</time>
      </trkpt>
      <trkpt lat="49.242543" lon="-0.547734">
        <ele>97.9</ele>
        <time>2014-12-14T09:50:55Z</time>
      </trkpt>
      <trkpt lat="49.242598" lon="-0.547834">
        <ele>97.9</ele>
        <time>2014-12-14T09:50:59Z</time>
      </trkpt>
      <trkpt lat="49.242681" lon="-0.547979">
        <ele>98.0</ele>
        <time>2014-12-14T09:51:03Z</time>
      </trkpt>
      <trkpt lat="49.242767" lon="-0.548103">
        <ele>97.2</ele>
        <time>2014-12-14T09:51:07Z</time>
      </trkpt>
      <trkpt lat="49.242864" lon="-0.548257">
        <ele>98.0</ele>
        <time>2014-12-14T09:51:11Z</time>
      </trkpt>
      <trkpt lat="49.242993" lon="-0.548419">
        <ele>97.6</ele>
        <time>2014-12-14T09:51:15Z</time>
      </trkpt>
      <trkpt lat="49.243108" lon="-0.548592">
        <ele>97.8</ele>
        <time>2014-12-14T09:51:19Z</time>
      </trkpt>
      <trkpt lat="49.243196" lon="-0.54871">
        <ele>97.0</ele>
        <time>2014-12-14T09:51:23Z</time>
      </trkpt>
      <trkpt lat="49.24333" lon="-0.548845">
        <ele>97.7</ele>
        <time>2014-12-14T09:51:27Z</time>
      </trkpt>
      <trkpt lat="49.243422" lon="-0.548958">
        <ele>97.5</ele>
        <time>2014-12-14T09:51:31Z</time>
      </trkpt>
      <trkpt lat="49.243529" lon="-0.54913">
        <ele>97.6</ele>
        <time>2014-12-14T09:51:35Z</time>
      </trkpt>
      <trkpt lat="49.24366" lon="-0.549322">
        <ele>97.9</ele>
        <time>2014-12-14T09:51:39Z</time>
      </trkpt>
      <trkpt lat="49.243776" lon="-0.549469">
        <ele>97.4</ele>
        <time>2014-12-14T09:51:43Z</time>
      </trkpt>
      <trkpt lat="49.243893" lon="-0.549655">
        <ele>97.4</ele>
        <time>2014-12-14T09:51:47Z</time>
      </trkpt>
      <trkpt lat="49.244034" lon="-0.549836">
        <ele>96.3</ele>
        <time>2014-12-14T09:51:51Z</time>
      </trkpt>
      <trkpt lat="49.244156" lon="-0.549995">
        <ele>96.8</ele>
        <time>2014-12-14T09:51:55Z</time>
      </trkpt>
      <trkpt lat="49.244286" lon="-0.55017">
        <ele>96.1</ele>
        <time>2014-12-14T09:51:59Z</time>
      </trkpt>
      <trkpt lat="49.244411" lon="-0.550383">
        <ele>96.1</ele>
        <time>2014-12-14T09:52:03Z</time>
      </trkpt>
      <trkpt lat="49.244517" lon="-0.550559">
        <ele>96.4</ele>
        <time>2014-12-14T09:52:07Z</time>
      </trkpt>
      <trkpt lat="49.24463" lon="-0.550736">
        <ele>95.3</ele>
        <time>2014-12-14T09:52:11Z</time>
      </trkpt>
      <trkpt lat="49.244761" lon="-0.550932">
        <ele>94.5</ele>
        <time>2014-12-14T09:52:15Z</time>
      </trkpt>
      <trkpt lat="49.244901" lon="-0.551118">
        <ele>94.2</ele>
        <time>2014-12-14T09:52:19Z</time>
      </trkpt>
      <trkpt lat="49.245076" lon="-0.551231">
        <ele>94.2</ele>
        <time>2014-12-14T09:52:23Z</time>
      </trkpt>
      <trkpt lat="49.245258" lon="-0.551261">
        <ele>92.8</ele>
        <time>2014-12-14T09:52:27Z</time>
      </trkpt>
      <trkpt lat="49.245436" lon="-0.551284">
        <ele>91.4</ele>
        <time>2014-12-14T09:52:31Z</time>
      </trkpt>
      <trkpt lat="49.24562" lon="-0.551292">
        <ele>90.3</ele>
        <time>2014-12-14T09:52:35Z</time>
      </trkpt>
      <trkpt lat="49.245806" lon="-0.551293">
        <ele>89.9</ele>
        <time>2014-12-14T09:52:39Z</time>
      </trkpt>
      <trkpt lat="49.245964" lon="-0.551263">
        <ele>90.1</ele>
        <time>2014-12-14T09:52:43Z</time>
      </trkpt>
      <trkpt lat="49.246099" lon="-0.551218">
        <ele>89.8</ele>
        <time>2014-12-14T09:52:47Z</time>
      </trkpt>
      <trkpt lat="49.246239" lon="-0.551196">
        <ele>89.4</ele>
        <time>2014-12-14T09:52:51Z</time>
      </trkpt>
      <trkpt lat="49.24637" lon="-0.551207">
        <ele>90.7</ele>
        <time>2014-12-14T09:52:55Z</time>
      </trkpt>
      <trkpt lat="49.246475" lon="-0.551217">
        <ele>91.1</ele>
        <time>2014-12-14T09:52:59Z</time>
      </trkpt>
      <trkpt lat="49.246594" lon="-0.551242">
        <ele>91.1</ele>
        <time>2014-12-14T09:53:03Z</time>
      </trkpt>
      <trkpt lat="49.246713" lon="-0.551269">
        <ele>92.7</ele>
        <time>2014-12-14T09:53:07Z</time>
      </trkpt>
      <trkpt lat="49.246862" lon="-0.551349">
        <ele>93.6</ele>
        <time>2014-12-14T09:53:11Z</time>
      </trkpt>
      <trkpt lat="49.246966" lon="-0.55139">
        <ele>93.6</ele>
        <time>2014-12-14T09:53:15Z</time>
      </trkpt>
      <trkpt lat="49.24707" lon="-0.551484">
        <ele>94.3</ele>
        <time>2014-12-14T09:53:19Z</time>
      </trkpt>
      <trkpt lat="49.247206" lon="-0.551585">
        <ele>94.1</ele>
        <time>2014-12-14T09:53:23Z</time>
      </trkpt>
      <trkpt lat="49.247307" lon="-0.551676">
        <ele>95.2</ele>
        <time>2014-12-14T09:53:27Z</time>
      </trkpt>
      <trkpt lat="49.247436" lon="-0.551749">
        <ele>95.5</ele>
        <time>2014-12-14T09:53:31Z</time>
      </trkpt>
      <trkpt lat="49.247547" lon="-0.551803">
        <ele>95.0</ele>
        <time>2014-12-14T09:53:35Z</time>
      </trkpt>
      <trkpt lat="49.247642" lon="-0.551896">
        <ele>95.8</ele>
        <time>2014-12-14T09:53:39Z</time>
      </trkpt>
      <trkpt lat="49.24775" lon="-0.551978">
        <ele>96.5</ele>
        <time>2014-12-14T09:53:43Z</time>
      </trkpt>
      <trkpt lat="49.247837" lon="-0.552061">
        <ele>96.0</ele>
        <time>2014-12-14T09:53:47Z</time>
      </trkpt>
      <trkpt lat="49.247957" lon="-0.552164">
        <ele>95.6</ele>
        <time>2014-12-14T09:53:51Z</time>
      </trkpt>
      <trkpt lat="49.24807" lon="-0.552236">
        <ele>96.5</ele>
        <time>2014-12-14T09:53:55Z</time>
      </trkpt>
      <trkpt lat="49.248191" lon="-0.552313">
        <ele>95.9</ele>
        <time>2014-12-14T09:53:59Z</time>
      </trkpt>
      <trkpt lat="49.248289" lon="-0.552414">
        <ele>95.9</ele>
        <time>2014-12-14T09:54:03Z</time>
      </trkpt>
      <trkpt lat="49.248385" lon="-0.552518">
        <ele>96.7</ele>
        <time>2014-12-14T09:54:07Z</time>
      </trkpt>
      <trkpt lat="49.24849" lon="-0.552603">
        <ele>96.7</ele>
        <time>2014-12-14T09:54:11Z</time>
      </trkpt>
      <trkpt lat="49.248615" lon="-0.552713">
        <ele>96.7</ele>
        <time>2014-12-14T09:54:15Z</time>
      </trkpt>
      <trkpt lat="49.248725" lon="-0.552826">
        <ele>97.3</ele>
        <time>2014-12-14T09:54:19Z</time>
      </trkpt>
      <trkpt lat="49.248836" lon="-0.552888">
        <ele>97.3</ele>
        <time>2014-12-14T09:54:23Z</time>
      </trkpt>
      <trkpt lat="49.248948" lon="-0.552978">
        <ele>97.9</ele>
        <time>2014-12-14T09:54:27Z</time>
      </trkpt>
      <trkpt lat="49.249045" lon="-0.553104">
        <ele>98.8</ele>
        <time>2014-12-14T09:54:31Z</time>
      </trkpt>
      <trkpt lat="49.249183" lon="-0.55321">
        <ele>98.9</ele>
        <time>2014-12-14T09:54:35Z</time>
      </trkpt>
      <trkpt lat="49.249294" lon="-0.553282">
        <ele>98.2</ele>
        <time>2014-12-14T09:54:39Z</time>
      </trkpt>
      <trkpt lat="49.24941" lon="-0.553397">
        <ele>99.3</ele>
        <time>2014-12-14T09:54:43Z</time>
      </trkpt>
      <trkpt lat="49.249553" lon="-0.553503">
        <ele>99.2</ele>
        <time>2014-12-14T09:54:47Z</time>
      </trkpt>
      <trkpt lat="49.249702" lon="-0.553586">
        <ele>99.6</ele>
        <time>2014-12-14T09:54:51Z</time>
      </trkpt>
      <trkpt lat="49.24983" lon="-0.553655">
        <ele>99.3</ele>
        <time>2014-12-14T09:54:55Z</time>
      </trkpt>
      <trkpt lat="49.249961" lon="-0.553731">
        <ele>98.9</ele>
        <time>2014-12-14T09:54:59Z</time>
      </trkpt>
      <trkpt lat="49.250116" lon="-0.553787">
        <ele>99.5</ele>
        <time>2014-12-14T09:55:03Z</time>
      </trkpt>
      <trkpt lat="49.250267" lon="-0.553845">
        <ele>99.5</ele>
        <time>2014-12-14T09:55:07Z</time>
      </trkpt>
      <trkpt lat="49.250394" lon="-0.553895">
        <ele>100.4</ele>
        <time>2014-12-14T09:55:11Z</time>
      </trkpt>
      <trkpt lat="49.250531" lon="-0.554018">
        <ele>100.4</ele>
        <time>2014-12-14T09:55:15Z</time>
      </trkpt>
      <trkpt lat="49.250668" lon="-0.55411">
        <ele>100.4</ele>
        <time>2014-12-14T09:55:19Z</time>
      </trkpt>
      <trkpt lat="49.250803" lon="-0.554195">
        <ele>100.9</ele>
        <time>2014-12-14T09:55:23Z</time>
      </trkpt>
      <trkpt lat="49.250921" lon="-0.554276">
        <ele>101.0</ele>
        <time>2014-12-14T09:55:27Z</time>
      </trkpt>
      <trkpt lat="49.251058" lon="-0.554391">
        <ele>100.3</ele>
        <time>2014-12-14T09:55:31Z</time>
      </trkpt>
      <trkpt lat="49.251203" lon="-0.554527">
        <ele>100.6</ele>
        <time>2014-12-14T09:55:35Z</time>
      </trkpt>
      <trkpt lat="49.251354" lon="-0.554638">
        <ele>100.6</ele>
        <time>2014-12-14T09:55:39Z</time>
      </trkpt>
      <trkpt lat="49.251518" lon="-0.554754">
        <ele>100.8</ele>
        <time>2014-12-14T09:55:43Z</time>
      </trkpt>
      <trkpt lat="49.251667" lon="-0.554885">
        <ele>100.2</ele>
        <time>2014-12-14T09:55:47Z</time>
      </trkpt>
      <trkpt lat="49.2518" lon="-0.555024">
        <ele>100.2</ele>
        <time>2014-12-14T09:55:51Z</time>
      </trkpt>
      <trkpt lat="49.251977" lon="-0.555155">
        <ele>99.9</ele>
        <time>2014-12-14T09:55:55Z</time>
      </trkpt>
      <trkpt lat="49.252131" lon="-0.555283">
        <ele>101.0</ele>
        <time>2014-12-14T09:55:59Z</time>
      </trkpt>
      <trkpt lat="49.252281" lon="-0.555415">
        <ele>100.1</ele>
        <time>2014-12-14T09:56:03Z</time>
      </trkpt>
      <trkpt lat="49.252447" lon="-0.555532">
        <ele>99.7</ele>
        <time>2014-12-14T09:56:07Z</time>
      </trkpt>
      <trkpt lat="49.252568" lon="-0.555672">
        <ele>99.2</ele>
        <time>2014-12-14T09:56:11Z</time>
      </trkpt>
      <trkpt lat="49.252663" lon="-0.555766">
        <ele>99.2</ele>
        <time>2014-12-14T09:56:15Z</time>
      </trkpt>
      <trkpt lat="49.25277" lon="-0.555819">
        <ele>99.8</ele>
        <time>2014-12-14T09:56:19Z</time>
      </trkpt>
      <trkpt lat="49.252901" lon="-0.555942">
        <ele>98.7</ele>
        <time>2014-12-14T09:56:23Z</time>
      </trkpt>
      <trkpt lat="49.253041" lon="-0.556078">
        <ele>98.0</ele>
        <time>2014-12-14T09:56:27Z</time>
      </trkpt>
      <trkpt lat="49.253183" lon="-0.556246">
        <ele>96.9</ele>
        <time>2014-12-14T09:56:31Z</time>
      </trkpt>
      <trkpt lat="49.253313" lon="-0.556405">
        <ele>96.7</ele>
        <time>2014-12-14T09:56:35Z</time>
      </trkpt>
      <trkpt lat="49.253482" lon="-0.55657">
        <ele>95.6</ele>
        <time>2014-12-14T09:56:39Z</time>
      </trkpt>
      <trkpt lat="49.25366" lon="-0.556777">
        <ele>94.4</ele>
        <time>2014-12-14T09:56:43Z</time>
      </trkpt>
      <trkpt lat="49.253827" lon="-0.556953">
        <ele>92.6</ele>
        <time>2014-12-14T09:56:47Z</time>
      </trkpt>
      <trkpt lat="49.253997" lon="-0.557153">
        <ele>91.5</ele>
        <time>2014-12-14T09:56:51Z</time>
      </trkpt>
      <trkpt lat="49.254194" lon="-0.557372">
        <ele>90.0</ele>
        <time>2014-12-14T09:56:55Z</time>
      </trkpt>
      <trkpt lat="49.254416" lon="-0.5576">
        <ele>86.8</ele>
        <time>2014-12-14T09:56:59Z</time>
      </trkpt>
      <trkpt lat="49.254615" lon="-0.557821">
        <ele>85.7</ele>
        <time>2014-12-14T09:57:03Z</time>
      </trkpt>
      <trkpt lat="49.254778" lon="-0.558005">
        <ele>82.8</ele>
        <time>2014-12-14T09:57:07Z</time>
      </trkpt>
      <trkpt lat="49.254914" lon="-0.558082">
        <ele>81.8</ele>
        <time>2014-12-14T09:57:11Z</time>
      </trkpt>
      <trkpt lat="49.254994" lon="-0.557928">
        <ele>80.9</ele>
        <time>2014-12-14T09:57:15Z</time>
      </trkpt>
      <trkpt lat="49.255099" lon="-0.557726">
        <ele>80.4</ele>
        <time>2014-12-14T09:57:19Z</time>
      </trkpt>
      <trkpt lat="49.25523" lon="-0.557533">
        <ele>79.7</ele>
        <time>2014-12-14T09:57:23Z</time>
      </trkpt>
      <trkpt lat="49.255367" lon="-0.557368">
        <ele>79.5</ele>
        <time>2014-12-14T09:57:27Z</time>
      </trkpt>
      <trkpt lat="49.2555" lon="-0.557188">
        <ele>79.6</ele>
        <time>2014-12-14T09:57:31Z</time>
      </trkpt>
      <trkpt lat="49.255617" lon="-0.557016">
        <ele>78.3</ele>
        <time>2014-12-14T09:57:35Z</time>
      </trkpt>
      <trkpt lat="49.255687" lon="-0.556857">
        <ele>78.0</ele>
        <time>2014-12-14T09:57:39Z</time>
      </trkpt>
      <trkpt lat="49.255735" lon="-0.556756">
        <ele>77.9</ele>
        <time>2014-12-14T09:57:43Z</time>
      </trkpt>
      <trkpt lat="49.255754" lon="-0.556676">
        <ele>78.0</ele>
        <time>2014-12-14T09:57:47Z</time>
      </trkpt>
      <trkpt lat="49.255745" lon="-0.556638">
        <ele>77.9</ele>
        <time>2014-12-14T09:57:51Z</time>
      </trkpt>
    </trkseg>
    <trkseg>
      <trkpt lat="49.255851" lon="-0.556472">
        <ele>77.9</ele>
        <time>2014-12-14T09:58:39Z</time>
      </trkpt>
      <trkpt lat="49.25592" lon="-0.556296">
        <ele>78.8</ele>
        <time>2014-12-14T09:58:43Z</time>
      </trkpt>
      <trkpt lat="49.25604" lon="-0.556094">
        <ele>79.6</ele>
        <time>2014-12-14T09:58:47Z</time>
      </trkpt>
      <trkpt lat="49.256161" lon="-0.555875">
        <ele>77.4</ele>
        <time>2014-12-14T09:58:51Z</time>
      </trkpt>
      <trkpt lat="49.256232" lon="-0.555636">
        <ele>76.7</ele>
        <time>2014-12-14T09:58:55Z</time>
      </trkpt>
      <trkpt lat="49.256313" lon="-0.555446">
        <ele>76.9</ele>
        <time>2014-12-14T09:58:59Z</time>
      </trkpt>
      <trkpt lat="49.256423" lon="-0.555267">
        <ele>76.9</ele>
        <time>2014-12-14T09:59:03Z</time>
      </trkpt>
      <trkpt lat="49.256585" lon="-0.55504">
        <ele>77.6</ele>
        <time>2014-12-14T09:59:07Z</time>
      </trkpt>
      <trkpt lat="49.25671" lon="-0.554803">
        <ele>77.3</ele>
        <time>2014-12-14T09:59:11Z</time>
      </trkpt>
      <trkpt lat="49.25684" lon="-0.554572">
        <ele>77.3</ele>
        <time>2014-12-14T09:59:15Z</time>
      </trkpt>
      <trkpt lat="49.25698" lon="-0.554353">
        <ele>78.2</ele>
        <time>2014-12-14T09:59:19Z</time>
      </trkpt>
      <trkpt lat="49.257094" lon="-0.554169">
        <ele>77.6</ele>
        <time>2014-12-14T09:59:23Z</time>
      </trkpt>
      <trkpt lat="49.257216" lon="-0.554005">
        <ele>79.0</ele>
        <time>2014-12-14T09:59:27Z</time>
      </trkpt>
      <trkpt lat="49.257313" lon="-0.553849">
        <ele>80.4</ele>
        <time>2014-12-14T09:59:31Z</time>
      </trkpt>
      <trkpt lat="49.257403" lon="-0.553718">
        <ele>81.4</ele>
        <time>2014-12-14T09:59:35Z</time>
      </trkpt>
      <trkpt lat="49.257483" lon="-0.553582">
        <ele>82.3</ele>
        <time>2014-12-14T09:59:39Z</time>
      </trkpt>
      <trkpt lat="49.257557" lon="-0.553471">
        <ele>83.3</ele>
        <time>2014-12-14T09:59:43Z</time>
      </trkpt>
      <trkpt lat="49.257628" lon="-0.553347">
        <ele>84.4</ele>
        <time>2014-12-14T09:59:47Z</time>
      </trkpt>
      <trkpt lat="49.257696" lon="-0.55322">
        <ele>84.9</ele>
        <time>2014-12-14T09:59:51Z</time>
      </trkpt>
      <trkpt lat="49.257782" lon="-0.553099">
        <ele>85.8</ele>
        <time>2014-12-14T09:59:55Z</time>
      </trkpt>
      <trkpt lat="49.257862" lon="-0.55296">
        <ele>86.6</ele>
        <time>2014-12-14T09:59:59Z</time>
      </trkpt>
      <trkpt lat="49.257919" lon="-0.552815">
        <ele>86.6</ele>
        <time>2014-12-14T10:00:03Z</time>
      </trkpt>
      <trkpt lat="49.257993" lon="-0.552671">
        <ele>87.9</ele>
        <time>2014-12-14T10:00:07Z</time>
      </trkpt>
      <trkpt lat="49.258056" lon="-0.552519">
        <ele>88.0</ele>
        <time>2014-12-14T10:00:11Z</time>
      </trkpt>
      <trkpt lat="49.258125" lon="-0.55237">
        <ele>89.3</ele>
        <time>2014-12-14T10:00:15Z</time>
      </trkpt>
      <trkpt lat="49.258212" lon="-0.552203">
        <ele>89.4</ele>
        <time>2014-12-14T10:00:19Z</time>
      </trkpt>
      <trkpt lat="49.258309" lon="-0.552009">
        <ele>89.4</ele>
        <time>2014-12-14T10:00:23Z</time>
      </trkpt>
      <trkpt lat="49.2584" lon="-0.551817">
        <ele>89.6</ele>
        <time>2014-12-14T10:00:27Z</time>
      </trkpt>
      <trkpt lat="49.258493" lon="-0.551617">
        <ele>89.1</ele>
        <time>2014-12-14T10:00:31Z</time>
      </trkpt>
      <trkpt lat="49.258596" lon="-0.551402">
        <ele>89.1</ele>
        <time>2014-12-14T10:00:35Z</time>
      </trkpt>
      <trkpt lat="49.258672" lon="-0.551189">
        <ele>88.3</ele>
        <time>2014-12-14T10:00:39Z</time>
      </trkpt>
      <trkpt lat="49.258751" lon="-0.550981">
        <ele>88.3</ele>
        <time>2014-12-14T10:00:43Z</time>
      </trkpt>
      <trkpt lat="49.258843" lon="-0.550778">
        <ele>88.3</ele>
        <time>2014-12-14T10:00:47Z</time>
      </trkpt>
      <trkpt lat="49.258945" lon="-0.550584">
        <ele>88.9</ele>
        <time>2014-12-14T10:00:51Z</time>
      </trkpt>
      <trkpt lat="49.259057" lon="-0.550365">
        <ele>87.9</ele>
        <time>2014-12-14T10:00:55Z</time>
      </trkpt>
      <trkpt lat="49.259161" lon="-0.550167">
        <ele>87.6</ele>
        <time>2014-12-14T10:00:59Z</time>
      </trkpt>
      <trkpt lat="49.259291" lon="-0.549937">
        <ele>88.2</ele>
        <time>2014-12-14T10:01:03Z</time>
      </trkpt>
      <trkpt lat="49.259407" lon="-0.549731">
        <ele>87.3</ele>
        <time>2014-12-14T10:01:07Z</time>
      </trkpt>
      <trkpt lat="49.259483" lon="-0.549551">
        <ele>87.9</ele>
        <time>2014-12-14T10:01:11Z</time>
      </trkpt>
      <trkpt lat="49.259561" lon="-0.549371">
        <ele>86.7</ele>
        <time>2014-12-14T10:01:15Z</time>
      </trkpt>
      <trkpt lat="49.259673" lon="-0.549189">
        <ele>86.7</ele>
        <time>2014-12-14T10:01:19Z</time>
      </trkpt>
      <trkpt lat="49.259772" lon="-0.549161">
        <ele>85.9</ele>
        <time>2014-12-14T10:01:23Z</time>
      </trkpt>
      <trkpt lat="49.259868" lon="-0.54922">
        <ele>86.2</ele>
        <time>2014-12-14T10:01:27Z</time>
      </trkpt>
      <trkpt lat="49.259945" lon="-0.549366">
        <ele>86.5</ele>
        <time>2014-12-14T10:01:31Z</time>
      </trkpt>
      <trkpt lat="49.260065" lon="-0.549497">
        <ele>86.3</ele>
        <time>2014-12-14T10:01:35Z</time>
      </trkpt>
      <trkpt lat="49.260169" lon="-0.549623">
        <ele>86.2</ele>
        <time>2014-12-14T10:01:39Z</time>
      </trkpt>
      <trkpt lat="49.26028" lon="-0.549769">
        <ele>86.2</ele>
        <time>2014-12-14T10:01:43Z</time>
      </trkpt>
      <trkpt lat="49.260379" lon="-0.549903">
        <ele>85.2</ele>
        <time>2014-12-14T10:01:47Z</time>
      </trkpt>
      <trkpt lat="49.260506" lon="-0.550069">
        <ele>86.0</ele>
        <time>2014-12-14T10:01:51Z</time>
      </trkpt>
      <trkpt lat="49.260632" lon="-0.55025">
        <ele>86.0</ele>
        <time>2014-12-14T10:01:55Z</time>
      </trkpt>
      <trkpt lat="49.260746" lon="-0.550402">
        <ele>85.3</ele>
        <time>2014-12-14T10:01:59Z</time>
      </trkpt>
      <trkpt lat="49.260891" lon="-0.550578">
        <ele>85.3</ele>
        <time>2014-12-14T10:02:03Z</time>
      </trkpt>
      <trkpt lat="49.261016" lon="-0.550782">
        <ele>83.9</ele>
        <time>2014-12-14T10:02:07Z</time>
      </trkpt>
      <trkpt lat="49.261177" lon="-0.550999">
        <ele>83.9</ele>
        <time>2014-12-14T10:02:11Z</time>
      </trkpt>
      <trkpt lat="49.261364" lon="-0.551212">
        <ele>82.8</ele>
        <time>2014-12-14T10:02:15Z</time>
      </trkpt>
      <trkpt lat="49.261495" lon="-0.551393">
        <ele>82.4</ele>
        <time>2014-12-14T10:02:19Z</time>
      </trkpt>
      <trkpt lat="49.261654" lon="-0.551636">
        <ele>80.8</ele>
        <time>2014-12-14T10:02:23Z</time>
      </trkpt>
      <trkpt lat="49.261855" lon="-0.55183">
        <ele>79.6</ele>
        <time>2014-12-14T10:02:27Z</time>
      </trkpt>
      <trkpt lat="49.261994" lon="-0.55204">
        <ele>78.1</ele>
        <time>2014-12-14T10:02:31Z</time>
      </trkpt>
      <trkpt lat="49.262153" lon="-0.55226">
        <ele>76.0</ele>
        <time>2014-12-14T10:02:35Z</time>
      </trkpt>
      <trkpt lat="49.262314" lon="-0.552457">
        <ele>75.2</ele>
        <time>2014-12-14T10:02:39Z</time>
      </trkpt>
      <trkpt lat="49.262457" lon="-0.552651">
        <ele>72.8</ele>
        <time>2014-12-14T10:02:43Z</time>
      </trkpt>
      <trkpt lat="49.26252" lon="-0.552878">
        <ele>71.1</ele>
        <time>2014-12-14T10:02:47Z</time>
      </trkpt>
      <trkpt lat="49.262484" lon="-0.553062">
        <ele>71.6</ele>
        <time>2014-12-14T10:02:51Z</time>
      </trkpt>
      <trkpt lat="49.262492" lon="-0.553231">
        <ele>72.0</ele>
        <time>2014-12-14T10:02:55Z</time>
      </trkpt>
      <trkpt lat="49.262512" lon="-0.553415">
        <ele>72.6</ele>
        <time>2014-12-14T10:02:59Z</time>
      </trkpt>
      <trkpt lat="49.26253" lon="-0.55357">
        <ele>72.9</ele>
        <time>2014-12-14T10:03:03Z</time>
      </trkpt>
      <trkpt lat="49.262557" lon="-0.553728">
        <ele>73.9</ele>
        <time>2014-12-14T10:03:07Z</time>
      </trkpt>
      <trkpt lat="49.262579" lon="-0.553852">
        <ele>74.8</ele>
        <time>2014-12-14T10:03:11Z</time>
      </trkpt>
      <trkpt lat="49.262607" lon="-0.553941">
        <ele>75.9</ele>
        <time>2014-12-14T10:03:15Z</time>
      </trkpt>
      <trkpt lat="49.262637" lon="-0.554005">
        <ele>76.2</ele>
        <time>2014-12-14T10:03:19Z</time>
      </trkpt>
      <trkpt lat="49.262657" lon="-0.554067">
        <ele>76.8</ele>
        <time>2014-12-14T10:03:23Z</time>
      </trkpt>
      <trkpt lat="49.262674" lon="-0.554096">
        <ele>77.3</ele>
        <time>2014-12-14T10:03:27Z</time>
      </trkpt>
      <trkpt lat="49.262686" lon="-0.554198">
        <ele>77.3</ele>
        <time>2014-12-14T10:03:31Z</time>
      </trkpt>
      <trkpt lat="49.262689" lon="-0.554248">
        <ele>79.0</ele>
        <time>2014-12-14T10:03:35Z</time>
      </trkpt>
      <trkpt lat="49.262696" lon="-0.554299">
        <ele>79.0</ele>
        <time>2014-12-14T10:03:39Z</time>
      </trkpt>
      <trkpt lat="49.262705" lon="-0.554278">
        <ele>79.7</ele>
        <time>2014-12-14T10:03:43Z</time>
      </trkpt>
      <trkpt lat="49.262727" lon="-0.554325">
        <ele>79.4</ele>
        <time>2014-12-14T10:03:47Z</time>
      </trkpt>
      <trkpt lat="49.262761" lon="-0.554444">
        <ele>79.5</ele>
        <time>2014-12-14T10:03:51Z</time>
      </trkpt>
      <trkpt lat="49.262784" lon="-0.554533">
        <ele>79.8</ele>
        <time>2014-12-14T10:03:55Z</time>
      </trkpt>
      <trkpt lat="49.262804" lon="-0.554632">
        <ele>80.2</ele>
        <time>2014-12-14T10:03:59Z</time>
      </trkpt>
      <trkpt lat="49.262809" lon="-0.554724">
        <ele>80.8</ele>
        <time>2014-12-14T10:04:03Z</time>
      </trkpt>
      <trkpt lat="49.262831" lon="-0.554794">
        <ele>81.3</ele>
        <time>2014-12-14T10:04:07Z</time>
      </trkpt>
      <trkpt lat="49.262857" lon="-0.554887">
        <ele>81.8</ele>
        <time>2014-12-14T10:04:11Z</time>
      </trkpt>
      <trkpt lat="49.262879" lon="-0.554991">
        <ele>82.9</ele>
        <time>2014-12-14T10:04:15Z</time>
      </trkpt>
      <trkpt lat="49.262916" lon="-0.555107">
        <ele>82.9</ele>
        <time>2014-12-14T10:04:19Z</time>
      </trkpt>
      <trkpt lat="49.262936" lon="-0.555224">
        <ele>83.7</ele>
        <time>2014-12-14T10:04:23Z</time>
      </trkpt>
      <trkpt lat="49.262955" lon="-0.555335">
        <ele>84.6</ele>
        <time>2014-12-14T10:04:27Z</time>
      </trkpt>
      <trkpt lat="49.263011" lon="-0.55544">
        <ele>84.9</ele>
        <time>2014-12-14T10:04:31Z</time>
      </trkpt>
      <trkpt lat="49.26304" lon="-0.555552">
        <ele>85.5</ele>
        <time>2014-12-14T10:04:35Z</time>
      </trkpt>
      <trkpt lat="49.263065" lon="-0.555677">
        <ele>86.0</ele>
        <time>2014-12-14T10:04:39Z</time>
      </trkpt>
      <trkpt lat="49.263092" lon="-0.555797">
        <ele>86.3</ele>
        <time>2014-12-14T10:04:43Z</time>
      </trkpt>
      <trkpt lat="49.263144" lon="-0.555917">
        <ele>86.5</ele>
        <time>2014-12-14T10:04:47Z</time>
      </trkpt>
      <trkpt lat="49.263165" lon="-0.556023">
        <ele>86.6</ele>
        <time>2014-12-14T10:04:51Z</time>
      </trkpt>
      <trkpt lat="49.263198" lon="-0.556153">
        <ele>87.6</ele>
        <time>2014-12-14T10:04:55Z</time>
      </trkpt>
      <trkpt lat="49.263212" lon="-0.556283">
        <ele>87.8</ele>
        <time>2014-12-14T10:04:59Z</time>
      </trkpt>
      <trkpt lat="49.263245" lon="-0.556408">
        <ele>88.6</ele>
        <time>2014-12-14T10:05:03Z</time>
      </trkpt>
      <trkpt lat="49.263289" lon="-0.556532">
        <ele>88.9</ele>
        <time>2014-12-14T10:05:07Z</time>
      </trkpt>
      <trkpt lat="49.263334" lon="-0.556678">
        <ele>88.9</ele>
        <time>2014-12-14T10:05:11Z</time>
      </trkpt>
      <trkpt lat="49.263373" lon="-0.556827">
        <ele>89.2</ele>
        <time>2014-12-14T10:05:15Z</time>
      </trkpt>
      <trkpt lat="49.26343" lon="-0.556983">
        <ele>89.2</ele>
        <time>2014-12-14T10:05:19Z</time>
      </trkpt>
      <trkpt lat="49.263464" lon="-0.557161">
        <ele>90.5</ele>
        <time>2014-12-14T10:05:23Z</time>
      </trkpt>
      <trkpt lat="49.263508" lon="-0.557331">
        <ele>91.2</ele>
        <time>2014-12-14T10:05:27Z</time>
      </trkpt>
      <trkpt lat="49.263544" lon="-0.557513">
        <ele>91.2</ele>
        <time>2014-12-14T10:05:31Z</time>
      </trkpt>
      <trkpt lat="49.263578" lon="-0.557688">
        <ele>91.1</ele>
        <time>2014-12-14T10:05:35Z</time>
      </trkpt>
      <trkpt lat="49.263615" lon="-0.557844">
        <ele>91.5</ele>
        <time>2014-12-14T10:05:39Z</time>
      </trkpt>
      <trkpt lat="49.263661" lon="-0.558018">
        <ele>91.5</ele>
        <time>2014-12-14T10:05:43Z</time>
      </trkpt>
      <trkpt lat="49.263698" lon="-0.558196">
        <ele>91.4</ele>
        <time>2014-12-14T10:05:47Z</time>
      </trkpt>
      <trkpt lat="49.26374" lon="-0.558383">
        <ele>91.8</ele>
        <time>2014-12-14T10:05:51Z</time>
      </trkpt>
      <trkpt lat="49.263796" lon="-0.558569">
        <ele>92.4</ele>
        <time>2014-12-14T10:05:55Z</time>
      </trkpt>
      <trkpt lat="49.263849" lon="-0.558773">
        <ele>92.7</ele>
        <time>2014-12-14T10:05:59Z</time>
      </trkpt>
      <trkpt lat="49.263904" lon="-0.558974">
        <ele>92.7</ele>
        <time>2014-12-14T10:06:03Z</time>
      </trkpt>
      <trkpt lat="49.263963" lon="-0.55911">
        <ele>93.0</ele>
        <time>2014-12-14T10:06:07Z</time>
      </trkpt>
      <trkpt lat="49.264009" lon="-0.559177">
        <ele>93.0</ele>
        <time>2014-12-14T10:06:11Z</time>
      </trkpt>
      <trkpt lat="49.264052" lon="-0.559179">
        <ele>92.8</ele>
        <time>2014-12-14T10:06:15Z</time>
      </trkpt>
      <trkpt lat="49.264089" lon="-0.559167">
        <ele>92.6</ele>
        <time>2014-12-14T10:06:19Z</time>
      </trkpt>
      <trkpt lat="49.264086" lon="-0.559172">
        <ele>92.6</ele>
        <time>2014-12-14T10:06:23Z</time>
      </trkpt>
      <trkpt lat="49.264137" lon="-0.559164">
        <ele>92.2</ele>
        <time>2014-12-14T10:06:27Z</time>
      </trkpt>
      <trkpt lat="49.264186" lon="-0.559145">
        <ele>92.3</ele>
        <time>2014-12-14T10:06:31Z</time>
      </trkpt>
      <trkpt lat="49.264262" lon="-0.559118">
        <ele>92.5</ele>
        <time>2014-12-14T10:06:35Z</time>
      </trkpt>
      <trkpt lat="49.264339" lon="-0.559121">
        <ele>92.6</ele>
        <time>2014-12-14T10:06:39Z</time>
      </trkpt>
      <trkpt lat="49.26444" lon="-0.559091">
        <ele>92.2</ele>
        <time>2014-12-14T10:06:43Z</time>
      </trkpt>
      <trkpt lat="49.264514" lon="-0.559064">
        <ele>92.1</ele>
        <time>2014-12-14T10:06:47Z</time>
      </trkpt>
      <trkpt lat="49.264582" lon="-0.559031">
        <ele>91.4</ele>
        <time>2014-12-14T10:06:51Z</time>
      </trkpt>
      <trkpt lat="49.264686" lon="-0.55901">
        <ele>92.2</ele>
        <time>2014-12-14T10:06:55Z</time>
      </trkpt>
      <trkpt lat="49.264772" lon="-0.55899">
        <ele>91.9</ele>
        <time>2014-12-14T10:06:59Z</time>
      </trkpt>
      <trkpt lat="49.264849" lon="-0.558962">
        <ele>91.9</ele>
        <time>2014-12-14T10:07:03Z</time>
      </trkpt>
      <trkpt lat="49.264927" lon="-0.558972">
        <ele>91.6</ele>
        <time>2014-12-14T10:07:07Z</time>
      </trkpt>
      <trkpt lat="49.265056" lon="-0.558969">
        <ele>91.6</ele>
        <time>2014-12-14T10:07:11Z</time>
      </trkpt>
      <trkpt lat="49.265192" lon="-0.558973">
        <ele>90.9</ele>
        <time>2014-12-14T10:07:15Z</time>
      </trkpt>
      <trkpt lat="49.265299" lon="-0.558978">
        <ele>90.9</ele>
        <time>2014-12-14T10:07:19Z</time>
      </trkpt>
      <trkpt lat="49.265412" lon="-0.558989">
        <ele>90.1</ele>
        <time>2014-12-14T10:07:23Z</time>
      </trkpt>
      <trkpt lat="49.265535" lon="-0.558992">
        <ele>90.1</ele>
        <time>2014-12-14T10:07:27Z</time>
      </trkpt>
      <trkpt lat="49.265652" lon="-0.559005">
        <ele>89.3</ele>
        <time>2014-12-14T10:07:31Z</time>
      </trkpt>
      <trkpt lat="49.265786" lon="-0.559018">
        <ele>89.3</ele>
        <time>2014-12-14T10:07:35Z</time>
      </trkpt>
      <trkpt lat="49.265934" lon="-0.559064">
        <ele>88.7</ele>
        <time>2014-12-14T10:07:39Z</time>
      </trkpt>
      <trkpt lat="49.266121" lon="-0.559077">
        <ele>88.3</ele>
        <time>2014-12-14T10:07:43Z</time>
      </trkpt>
      <trkpt lat="49.266321" lon="-0.559094">
        <ele>88.0</ele>
        <time>2014-12-14T10:07:47Z</time>
      </trkpt>
      <trkpt lat="49.266567" lon="-0.559097">
        <ele>87.2</ele>
        <time>2014-12-14T10:07:51Z</time>
      </trkpt>
      <trkpt lat="49.2668" lon="-0.559116">
        <ele>84.9</ele>
        <time>2014-12-14T10:07:55Z</time>
      </trkpt>
      <trkpt lat="49.267065" lon="-0.559104">
        <ele>84.4</ele>
        <time>2014-12-14T10:07:59Z</time>
      </trkpt>
      <trkpt lat="49.267304" lon="-0.559007">
        <ele>85.3</ele>
        <time>2014-12-14T10:08:03Z</time>
      </trkpt>
      <trkpt lat="49.267571" lon="-0.558873">
        <ele>84.3</ele>
        <time>2014-12-14T10:08:07Z</time>
      </trkpt>
      <trkpt lat="49.267835" lon="-0.558705">
        <ele>83.7</ele>
        <time>2014-12-14T10:08:11Z</time>
      </trkpt>
      <trkpt lat="49.268103" lon="-0.558534">
        <ele>82.5</ele>
        <time>2014-12-14T10:08:15Z</time>
      </trkpt>
      <trkpt lat="49.268344" lon="-0.558397">
        <ele>80.8</ele>
        <time>2014-12-14T10:08:19Z</time>
      </trkpt>
      <trkpt lat="49.268592" lon="-0.558434">
        <ele>78.9</ele>
        <time>2014-12-14T10:08:23Z</time>
      </trkpt>
      <trkpt lat="49.268716" lon="-0.558767">
        <ele>77.1</ele>
        <time>2014-12-14T10:08:27Z</time>
      </trkpt>
      <trkpt lat="49.26864" lon="-0.559118">
        <ele>77.1</ele>
        <time>2014-12-14T10:08:31Z</time>
      </trkpt>
      <trkpt lat="49.268542" lon="-0.559438">
        <ele>78.3</ele>
        <time>2014-12-14T10:08:35Z</time>
      </trkpt>
      <trkpt lat="49.268483" lon="-0.559721">
        <ele>78.1</ele>
        <time>2014-12-14T10:08:39Z</time>
      </trkpt>
      <trkpt lat="49.268383" lon="-0.559989">
        <ele>78.5</ele>
        <time>2014-12-14T10:08:43Z</time>
      </trkpt>
      <trkpt lat="49.268378" lon="-0.560195">
        <ele>78.0</ele>
        <time>2014-12-14T10:08:47Z</time>
      </trkpt>
      <trkpt lat="49.26853" lon="-0.560324">
        <ele>75.6</ele>
        <time>2014-12-14T10:08:51Z</time>
      </trkpt>
      <trkpt lat="49.268719" lon="-0.560549">
        <ele>74.2</ele>
        <time>2014-12-14T10:08:55Z</time>
      </trkpt>
      <trkpt lat="49.26887" lon="-0.56078">
        <ele>72.7</ele>
        <time>2014-12-14T10:08:59Z</time>
      </trkpt>
      <trkpt lat="49.269032" lon="-0.561028">
        <ele>71.6</ele>
        <time>2014-12-14T10:09:03Z</time>
      </trkpt>
      <trkpt lat="49.269211" lon="-0.56132">
        <ele>68.1</ele>
        <time>2014-12-14T10:09:07Z</time>
      </trkpt>
      <trkpt lat="49.269328" lon="-0.561546">
        <ele>65.6</ele>
        <time>2014-12-14T10:09:11Z</time>
      </trkpt>
      <trkpt lat="49.269368" lon="-0.56194">
        <ele>65.6</ele>
        <time>2014-12-14T10:09:15Z</time>
      </trkpt>
      <trkpt lat="49.269467" lon="-0.562348">
        <ele>64.5</ele>
        <time>2014-12-14T10:09:19Z</time>
      </trkpt>
      <trkpt lat="49.269597" lon="-0.56273">
        <ele>64.0</ele>
        <time>2014-12-14T10:09:23Z</time>
      </trkpt>
      <trkpt lat="49.269815" lon="-0.563075">
        <ele>62.6</ele>
        <time>2014-12-14T10:09:27Z</time>
      </trkpt>
      <trkpt lat="49.270066" lon="-0.563383">
        <ele>62.5</ele>
        <time>2014-12-14T10:09:31Z</time>
      </trkpt>
      <trkpt lat="49.270286" lon="-0.563669">
        <ele>61.0</ele>
        <time>2014-12-14T10:09:35Z</time>
      </trkpt>
      <trkpt lat="49.270508" lon="-0.563951">
        <ele>61.0</ele>
        <time>2014-12-14T10:09:39Z</time>
      </trkpt>
      <trkpt lat="49.270692" lon="-0.564257">
        <ele>61.3</ele>
        <time>2014-12-14T10:09:43Z</time>
      </trkpt>
      <trkpt lat="49.270942" lon="-0.564492">
        <ele>62.2</ele>
        <time>2014-12-14T10:09:47Z</time>
      </trkpt>
      <trkpt lat="49.27115" lon="-0.564646">
        <ele>61.1</ele>
        <time>2014-12-14T10:09:51Z</time>
      </trkpt>
      <trkpt lat="49.271372" lon="-0.564773">
        <ele>61.1</ele>
        <time>2014-12-14T10:09:55Z</time>
      </trkpt>
      <trkpt lat="49.271592" lon="-0.564898">
        <ele>62.2</ele>
        <time>2014-12-14T10:09:59Z</time>
      </trkpt>
      <trkpt lat="49.271766" lon="-0.56504">
        <ele>63.0</ele>
        <time>2014-12-14T10:10:03Z</time>
      </trkpt>
      <trkpt lat="49.271961" lon="-0.565249">
        <ele>63.1</ele>
        <time>2014-12-14T10:10:07Z</time>
      </trkpt>
      <trkpt lat="49.272132" lon="-0.565447">
        <ele>62.1</ele>
        <time>2014-12-14T10:10:11Z</time>
      </trkpt>
      <trkpt lat="49.2723" lon="-0.565643">
        <ele>63.0</ele>
        <time>2014-12-14T10:10:15Z</time>
      </trkpt>
      <trkpt lat="49.272478" lon="-0.565839">
        <ele>62.3</ele>
        <time>2014-12-14T10:10:19Z</time>
      </trkpt>
      <trkpt lat="49.272659" lon="-0.566089">
        <ele>62.3</ele>
        <time>2014-12-14T10:10:23Z</time>
      </trkpt>
      <trkpt lat="49.27283" lon="-0.566373">
        <ele>62.8</ele>
        <time>2014-12-14T10:10:27Z</time>
      </trkpt>
      <trkpt lat="49.272998" lon="-0.56665">
        <ele>61.7</ele>
        <time>2014-12-14T10:10:31Z</time>
      </trkpt>
      <trkpt lat="49.27317" lon="-0.566928">
        <ele>60.8</ele>
        <time>2014-12-14T10:10:35Z</time>
      </trkpt>
      <trkpt lat="49.273354" lon="-0.567198">
        <ele>60.1</ele>
        <time>2014-12-14T10:10:39Z</time>
      </trkpt>
      <trkpt lat="49.273494" lon="-0.56747">
        <ele>58.2</ele>
        <time>2014-12-14T10:10:43Z</time>
      </trkpt>
      <trkpt lat="49.273669" lon="-0.567773">
        <ele>58.2</ele>
        <time>2014-12-14T10:10:47Z</time>
      </trkpt>
      <trkpt lat="49.273824" lon="-0.568009">
        <ele>55.9</ele>
        <time>2014-12-14T10:10:51Z</time>
      </trkpt>
      <trkpt lat="49.27398" lon="-0.568299">
        <ele>57.1</ele>
        <time>2014-12-14T10:10:55Z</time>
      </trkpt>
      <trkpt lat="49.274122" lon="-0.568589">
        <ele>54.6</ele>
        <time>2014-12-14T10:10:59Z</time>
      </trkpt>
      <trkpt lat="49.274269" lon="-0.568818">
        <ele>54.5</ele>
        <time>2014-12-14T10:11:03Z</time>
      </trkpt>
      <trkpt lat="49.274403" lon="-0.569002">
        <ele>53.9</ele>
        <time>2014-12-14T10:11:07Z</time>
      </trkpt>
      <trkpt lat="49.274533" lon="-0.569089">
        <ele>54.2</ele>
        <time>2014-12-14T10:11:11Z</time>
      </trkpt>
      <trkpt lat="49.274685" lon="-0.568974">
        <ele>53.8</ele>
        <time>2014-12-14T10:11:15Z</time>
      </trkpt>
      <trkpt lat="49.274849" lon="-0.568794">
        <ele>54.2</ele>
        <time>2014-12-14T10:11:19Z</time>
      </trkpt>
      <trkpt lat="49.275074" lon="-0.568559">
        <ele>54.2</ele>
        <time>2014-12-14T10:11:23Z</time>
      </trkpt>
      <trkpt lat="49.275293" lon="-0.56836">
        <ele>53.0</ele>
        <time>2014-12-14T10:11:27Z</time>
      </trkpt>
      <trkpt lat="49.27552" lon="-0.568222">
        <ele>51.8</ele>
        <time>2014-12-14T10:11:31Z</time>
      </trkpt>
      <trkpt lat="49.275779" lon="-0.56805">
        <ele>51.8</ele>
        <time>2014-12-14T10:11:35Z</time>
      </trkpt>
      <trkpt lat="49.276018" lon="-0.567969">
        <ele>50.0</ele>
        <time>2014-12-14T10:11:39Z</time>
      </trkpt>
      <trkpt lat="49.276239" lon="-0.567869">
        <ele>49.8</ele>
        <time>2014-12-14T10:11:43Z</time>
      </trkpt>
      <trkpt lat="49.276497" lon="-0.567752">
        <ele>49.8</ele>
        <time>2014-12-14T10:11:47Z</time>
      </trkpt>
      <trkpt lat="49.276752" lon="-0.567666">
        <ele>49.6</ele>
        <time>2014-12-14T10:11:51Z</time>
      </trkpt>
      <trkpt lat="49.277024" lon="-0.567608">
        <ele>49.8</ele>
        <time>2014-12-14T10:11:55Z</time>
      </trkpt>
      <trkpt lat="49.277289" lon="-0.567614">
        <ele>49.5</ele>
        <time>2014-12-14T10:11:59Z</time>
      </trkpt>
      <trkpt lat="49.277524" lon="-0.567574">
        <ele>49.1</ele>
        <time>2014-12-14T10:12:03Z</time>
      </trkpt>
      <trkpt lat="49.277686" lon="-0.567353">
        <ele>49.1</ele>
        <time>2014-12-14T10:12:07Z</time>
      </trkpt>
      <trkpt lat="49.277727" lon="-0.567061">
        <ele>48.8</ele>
        <time>2014-12-14T10:12:11Z</time>
      </trkpt>
      <trkpt lat="49.277857" lon="-0.566803">
        <ele>48.6</ele>
        <time>2014-12-14T10:12:15Z</time>
      </trkpt>
      <trkpt lat="49.278016" lon="-0.566539">
        <ele>49.1</ele>
        <time>2014-12-14T10:12:19Z</time>
      </trkpt>
      <trkpt lat="49.278173" lon="-0.566372">
        <ele>49.3</ele>
        <time>2014-12-14T10:12:23Z</time>
      </trkpt>
      <trkpt lat="49.278347" lon="-0.566202">
        <ele>49.3</ele>
        <time>2014-12-14T10:12:27Z</time>
      </trkpt>
      <trkpt lat="49.27852" lon="-0.566335">
        <ele>48.4</ele>
        <time>2014-12-14T10:12:31Z</time>
      </trkpt>
      <trkpt lat="49.278728" lon="-0.566526">
        <ele>48.4</ele>
        <time>2014-12-14T10:12:35Z</time>
      </trkpt>
      <trkpt lat="49.278926" lon="-0.566673">
        <ele>48.4</ele>
        <time>2014-12-14T10:12:39Z</time>
      </trkpt>
      <trkpt lat="49.279141" lon="-0.566736">
        <ele>47.6</ele>
        <time>2014-12-14T10:12:43Z</time>
      </trkpt>
      <trkpt lat="49.279386" lon="-0.566668">
        <ele>47.6</ele>
        <time>2014-12-14T10:12:47Z</time>
      </trkpt>
      <trkpt lat="49.279608" lon="-0.566633">
        <ele>48.3</ele>
        <time>2014-12-14T10:12:51Z</time>
      </trkpt>
      <trkpt lat="49.279849" lon="-0.566581">
        <ele>48.0</ele>
        <time>2014-12-14T10:12:55Z</time>
      </trkpt>
      <trkpt lat="49.280077" lon="-0.566527">
        <ele>47.9</ele>
        <time>2014-12-14T10:12:59Z</time>
      </trkpt>
      <trkpt lat="49.280283" lon="-0.566495">
        <ele>48.8</ele>
        <time>2014-12-14T10:13:03Z</time>
      </trkpt>
      <trkpt lat="49.280523" lon="-0.566421">
        <ele>48.0</ele>
        <time>2014-12-14T10:13:07Z</time>
      </trkpt>
      <trkpt lat="49.280747" lon="-0.566377">
        <ele>48.3</ele>
        <time>2014-12-14T10:13:11Z</time>
      </trkpt>
      <trkpt lat="49.280948" lon="-0.56638">
        <ele>48.3</ele>
        <time>2014-12-14T10:13:15Z</time>
      </trkpt>
      <trkpt lat="49.281157" lon="-0.566419">
        <ele>49.6</ele>
        <time>2014-12-14T10:13:19Z</time>
      </trkpt>
      <trkpt lat="49.28133" lon="-0.566532">
        <ele>49.6</ele>
        <time>2014-12-14T10:13:23Z</time>
      </trkpt>
      <trkpt lat="49.28149" lon="-0.566585">
        <ele>49.3</ele>
        <time>2014-12-14T10:13:27Z</time>
      </trkpt>
      <trkpt lat="49.281664" lon="-0.566599">
        <ele>49.2</ele>
        <time>2014-12-14T10:13:31Z</time>
      </trkpt>
      <trkpt lat="49.281814" lon="-0.566643">
        <ele>49.8</ele>
        <time>2014-12-14T10:13:35Z</time>
      </trkpt>
      <trkpt lat="49.281915" lon="-0.566671">
        <ele>49.8</ele>
        <time>2014-12-14T10:13:39Z</time>
      </trkpt>
      <trkpt lat="49.282003" lon="-0.566712">
        <ele>51.2</ele>
        <time>2014-12-14T10:13:43Z</time>
      </trkpt>
      <trkpt lat="49.282081" lon="-0.566804">
        <ele>51.6</ele>
        <time>2014-12-14T10:13:47Z</time>
      </trkpt>
      <trkpt lat="49.282183" lon="-0.566903">
        <ele>52.3</ele>
        <time>2014-12-14T10:13:51Z</time>
      </trkpt>
      <trkpt lat="49.282248" lon="-0.566979">
        <ele>53.1</ele>
        <time>2014-12-14T10:13:55Z</time>
      </trkpt>
      <trkpt lat="49.282307" lon="-0.567047">
        <ele>54.5</ele>
        <time>2014-12-14T10:13:59Z</time>
      </trkpt>
      <trkpt lat="49.282382" lon="-0.567087">
        <ele>55.5</ele>
        <time>2014-12-14T10:14:03Z</time>
      </trkpt>
      <trkpt lat="49.282461" lon="-0.567109">
        <ele>56.6</ele>
        <time>2014-12-14T10:14:07Z</time>
      </trkpt>
      <trkpt lat="49.282527" lon="-0.567179">
        <ele>57.5</ele>
        <time>2014-12-14T10:14:11Z</time>
      </trkpt>
      <trkpt lat="49.28258" lon="-0.567233">
        <ele>57.5</ele>
        <time>2014-12-14T10:14:15Z</time>
      </trkpt>
      <trkpt lat="49.282621" lon="-0.567279">
        <ele>58.5</ele>
        <time>2014-12-14T10:14:19Z</time>
      </trkpt>
      <trkpt lat="49.282692" lon="-0.567333">
        <ele>59.9</ele>
        <time>2014-12-14T10:14:23Z</time>
      </trkpt>
      <trkpt lat="49.282744" lon="-0.567387">
        <ele>60.5</ele>
        <time>2014-12-14T10:14:27Z</time>
      </trkpt>
      <trkpt lat="49.282794" lon="-0.567428">
        <ele>60.5</ele>
        <time>2014-12-14T10:14:31Z</time>
      </trkpt>
      <trkpt lat="49.282852" lon="-0.567445">
        <ele>61.9</ele>
        <time>2014-12-14T10:14:35Z</time>
      </trkpt>
      <trkpt lat="49.282912" lon="-0.567521">
        <ele>62.9</ele>
        <time>2014-12-14T10:14:39Z</time>
      </trkpt>
      <trkpt lat="49.282944" lon="-0.567608">
        <ele>63.7</ele>
        <time>2014-12-14T10:14:43Z</time>
      </trkpt>
      <trkpt lat="49.282977" lon="-0.567639">
        <ele>64.1</ele>
        <time>2014-12-14T10:14:47Z</time>
      </trkpt>
      <trkpt lat="49.282992" lon="-0.567675">
        <ele>64.9</ele>
        <time>2014-12-14T10:14:51Z</time>
      </trkpt>
      <trkpt lat="49.283022" lon="-0.567751">
        <ele>65.8</ele>
        <time>2014-12-14T10:14:55Z</time>
      </trkpt>
      <trkpt lat="49.283054" lon="-0.567766">
        <ele>66.8</ele>
        <time>2014-12-14T10:14:59Z</time>
      </trkpt>
      <trkpt lat="49.283062" lon="-0.567788">
        <ele>67.8</ele>
        <time>2014-12-14T10:15:03Z</time>
      </trkpt>
      <trkpt lat="49.283089" lon="-0.56787">
        <ele>68.3</ele>
        <time>2014-12-14T10:15:07Z</time>
      </trkpt>
      <trkpt lat="49.283091" lon="-0.567907">
        <ele>69.3</ele>
        <time>2014-12-14T10:15:11Z</time>
      </trkpt>
      <trkpt lat="49.283119" lon="-0.567936">
        <ele>70.4</ele>
        <time>2014-12-14T10:15:15Z</time>
      </trkpt>
      <trkpt lat="49.28318" lon="-0.567996">
        <ele>71.5</ele>
        <time>2014-12-14T10:15:19Z</time>
      </trkpt>
      <trkpt lat="49.283249" lon="-0.568072">
        <ele>72.3</ele>
        <time>2014-12-14T10:15:23Z</time>
      </trkpt>
      <trkpt lat="49.283284" lon="-0.568094">
        <ele>73.7</ele>
        <time>2014-12-14T10:15:27Z</time>
      </trkpt>
      <trkpt lat="49.283328" lon="-0.56814">
        <ele>74.4</ele>
        <time>2014-12-14T10:15:31Z</time>
      </trkpt>
      <trkpt lat="49.283362" lon="-0.568162">
        <ele>74.5</ele>
        <time>2014-12-14T10:15:35Z</time>
      </trkpt>
      <trkpt lat="49.283345" lon="-0.568214">
        <ele>75.6</ele>
        <time>2014-12-14T10:15:39Z</time>
      </trkpt>
      <trkpt lat="49.283317" lon="-0.568287">
        <ele>75.6</ele>
        <time>2014-12-14T10:15:43Z</time>
      </trkpt>
      <trkpt lat="49.283276" lon="-0.568426">
        <ele>76.4</ele>
        <time>2014-12-14T10:15:47Z</time>
      </trkpt>
      <trkpt lat="49.283269" lon="-0.568588">
        <ele>76.5</ele>
        <time>2014-12-14T10:15:51Z</time>
      </trkpt>
      <trkpt lat="49.283241" lon="-0.568744">
        <ele>76.5</ele>
        <time>2014-12-14T10:15:55Z</time>
      </trkpt>
      <trkpt lat="49.283181" lon="-0.568907">
        <ele>76.5</ele>
        <time>2014-12-14T10:15:59Z</time>
      </trkpt>
      <trkpt lat="49.283125" lon="-0.569106">
        <ele>76.5</ele>
        <time>2014-12-14T10:16:03Z</time>
      </trkpt>
      <trkpt lat="49.28312" lon="-0.569282">
        <ele>76.7</ele>
        <time>2014-12-14T10:16:07Z</time>
      </trkpt>
      <trkpt lat="49.283067" lon="-0.569467">
        <ele>76.7</ele>
        <time>2014-12-14T10:16:11Z</time>
      </trkpt>
      <trkpt lat="49.283044" lon="-0.569614">
        <ele>77.8</ele>
        <time>2014-12-14T10:16:15Z</time>
      </trkpt>
      <trkpt lat="49.283019" lon="-0.569785">
        <ele>78.3</ele>
        <time>2014-12-14T10:16:19Z</time>
      </trkpt>
      <trkpt lat="49.282985" lon="-0.56995">
        <ele>77.8</ele>
        <time>2014-12-14T10:16:23Z</time>
      </trkpt>
      <trkpt lat="49.282945" lon="-0.570133">
        <ele>78.2</ele>
        <time>2014-12-14T10:16:27Z</time>
      </trkpt>
      <trkpt lat="49.282911" lon="-0.570333">
        <ele>78.9</ele>
        <time>2014-12-14T10:16:31Z</time>
      </trkpt>
      <trkpt lat="49.282875" lon="-0.570513">
        <ele>79.3</ele>
        <time>2014-12-14T10:16:35Z</time>
      </trkpt>
      <trkpt lat="49.282849" lon="-0.570712">
        <ele>79.0</ele>
        <time>2014-12-14T10:16:39Z</time>
      </trkpt>
      <trkpt lat="49.282818" lon="-0.570928">
        <ele>79.0</ele>
        <time>2014-12-14T10:16:43Z</time>
      </trkpt>
      <trkpt lat="49.282784" lon="-0.571139">
        <ele>79.3</ele>
        <time>2014-12-14T10:16:47Z</time>
      </trkpt>
      <trkpt lat="49.282772" lon="-0.571361">
        <ele>79.3</ele>
        <time>2014-12-14T10:16:51Z</time>
      </trkpt>
      <trkpt lat="49.282743" lon="-0.571534">
        <ele>79.5</ele>
        <time>2014-12-14T10:16:55Z</time>
      </trkpt>
      <trkpt lat="49.282728" lon="-0.57173">
        <ele>79.7</ele>
        <time>2014-12-14T10:16:59Z</time>
      </trkpt>
      <trkpt lat="49.282703" lon="-0.571931">
        <ele>80.5</ele>
        <time>2014-12-14T10:17:03Z</time>
      </trkpt>
      <trkpt lat="49.282705" lon="-0.57217">
        <ele>80.5</ele>
        <time>2014-12-14T10:17:07Z</time>
      </trkpt>
      <trkpt lat="49.282692" lon="-0.572394">
        <ele>80.5</ele>
        <time>2014-12-14T10:17:11Z</time>
      </trkpt>
      <trkpt lat="49.282647" lon="-0.572618">
        <ele>79.7</ele>
        <time>2014-12-14T10:17:15Z</time>
      </trkpt>
      <trkpt lat="49.282631" lon="-0.57284">
        <ele>80.5</ele>
        <time>2014-12-14T10:17:19Z</time>
      </trkpt>
      <trkpt lat="49.282624" lon="-0.573057">
        <ele>80.2</ele>
        <time>2014-12-14T10:17:23Z</time>
      </trkpt>
      <trkpt lat="49.282605" lon="-0.573307">
        <ele>81.0</ele>
        <time>2014-12-14T10:17:27Z</time>
      </trkpt>
      <trkpt lat="49.282613" lon="-0.573572">
        <ele>81.1</ele>
        <time>2014-12-14T10:17:31Z</time>
      </trkpt>
      <trkpt lat="49.282638" lon="-0.573801">
        <ele>80.3</ele>
        <time>2014-12-14T10:17:35Z</time>
      </trkpt>
      <trkpt lat="49.282665" lon="-0.574033">
        <ele>80.9</ele>
        <time>2014-12-14T10:17:39Z</time>
      </trkpt>
      <trkpt lat="49.282695" lon="-0.57426">
        <ele>80.6</ele>
        <time>2014-12-14T10:17:43Z</time>
      </trkpt>
      <trkpt lat="49.282731" lon="-0.574422">
        <ele>80.9</ele>
        <time>2014-12-14T10:17:47Z</time>
      </trkpt>
      <trkpt lat="49.282778" lon="-0.574658">
        <ele>81.3</ele>
        <time>2014-12-14T10:17:51Z</time>
      </trkpt>
      <trkpt lat="49.282798" lon="-0.574892">
        <ele>81.3</ele>
        <time>2014-12-14T10:17:55Z</time>
      </trkpt>
      <trkpt lat="49.282807" lon="-0.575094">
        <ele>80.5</ele>
        <time>2014-12-14T10:17:59Z</time>
      </trkpt>
      <trkpt lat="49.282809" lon="-0.575328">
        <ele>80.8</ele>
        <time>2014-12-14T10:18:03Z</time>
      </trkpt>
      <trkpt lat="49.282835" lon="-0.575566">
        <ele>80.8</ele>
        <time>2014-12-14T10:18:07Z</time>
      </trkpt>
      <trkpt lat="49.28292" lon="-0.57584">
        <ele>79.9</ele>
        <time>2014-12-14T10:18:11Z</time>
      </trkpt>
      <trkpt lat="49.283004" lon="-0.576082">
        <ele>80.2</ele>
        <time>2014-12-14T10:18:15Z</time>
      </trkpt>
      <trkpt lat="49.283049" lon="-0.576334">
        <ele>79.7</ele>
        <time>2014-12-14T10:18:19Z</time>
      </trkpt>
      <trkpt lat="49.283115" lon="-0.576651">
        <ele>77.7</ele>
        <time>2014-12-14T10:18:23Z</time>
      </trkpt>
      <trkpt lat="49.28315" lon="-0.576961">
        <ele>76.8</ele>
        <time>2014-12-14T10:18:27Z</time>
      </trkpt>
      <trkpt lat="49.283159" lon="-0.577218">
        <ele>77.7</ele>
        <time>2014-12-14T10:18:31Z</time>
      </trkpt>
      <trkpt lat="49.283148" lon="-0.577484">
        <ele>77.4</ele>
        <time>2014-12-14T10:18:35Z</time>
      </trkpt>
      <trkpt lat="49.283214" lon="-0.577741">
        <ele>77.0</ele>
        <time>2014-12-14T10:18:39Z</time>
      </trkpt>
      <trkpt lat="49.28324" lon="-0.578008">
        <ele>77.4</ele>
        <time>2014-12-14T10:18:43Z</time>
      </trkpt>
      <trkpt lat="49.283245" lon="-0.578242">
        <ele>77.6</ele>
        <time>2014-12-14T10:18:47Z</time>
      </trkpt>
      <trkpt lat="49.283283" lon="-0.578511">
        <ele>76.9</ele>
        <time>2014-12-14T10:18:51Z</time>
      </trkpt>
      <trkpt lat="49.283302" lon="-0.578836">
        <ele>76.5</ele>
        <time>2014-12-14T10:18:55Z</time>
      </trkpt>
      <trkpt lat="49.283264" lon="-0.57916">
        <ele>74.8</ele>
        <time>2014-12-14T10:18:59Z</time>
      </trkpt>
      <trkpt lat="49.283228" lon="-0.579452">
        <ele>73.6</ele>
        <time>2014-12-14T10:19:03Z</time>
      </trkpt>
      <trkpt lat="49.283235" lon="-0.579723">
        <ele>73.2</ele>
        <time>2014-12-14T10:19:07Z</time>
      </trkpt>
      <trkpt lat="49.283211" lon="-0.579967">
        <ele>72.2</ele>
        <time>2014-12-14T10:19:11Z</time>
      </trkpt>
      <trkpt lat="49.283219" lon="-0.58023">
        <ele>72.8</ele>
        <time>2014-12-14T10:19:15Z</time>
      </trkpt>
      <trkpt lat="49.283211" lon="-0.580445">
        <ele>72.2</ele>
        <time>2014-12-14T10:19:19Z</time>
      </trkpt>
      <trkpt lat="49.283226" lon="-0.580664">
        <ele>72.1</ele>
        <time>2014-12-14T10:19:23Z</time>
      </trkpt>
      <trkpt lat="49.283197" lon="-0.580888">
        <ele>73.6</ele>
        <time>2014-12-14T10:19:27Z</time>
      </trkpt>
      <trkpt lat="49.283124" lon="-0.581078">
        <ele>74.3</ele>
        <time>2014-12-14T10:19:31Z</time>
      </trkpt>
      <trkpt lat="49.283101" lon="-0.58123">
        <ele>73.8</ele>
        <time>2014-12-14T10:19:35Z</time>
      </trkpt>
      <trkpt lat="49.283085" lon="-0.581352">
        <ele>73.8</ele>
        <time>2014-12-14T10:19:39Z</time>
      </trkpt>
      <trkpt lat="49.283078" lon="-0.581486">
        <ele>74.7</ele>
        <time>2014-12-14T10:19:43Z</time>
      </trkpt>
      <trkpt lat="49.283079" lon="-0.581583">
        <ele>74.5</ele>
        <time>2014-12-14T10:19:47Z</time>
      </trkpt>
      <trkpt lat="49.283101" lon="-0.581561">
        <ele>74.5</ele>
        <time>2014-12-14T10:19:51Z</time>
      </trkpt>
      <trkpt lat="49.283137" lon="-0.581458">
        <ele>75.1</ele>
        <time>2014-12-14T10:19:55Z</time>
      </trkpt>
      <trkpt lat="49.283184" lon="-0.581358">
        <ele>76.0</ele>
        <time>2014-12-14T10:19:59Z</time>
      </trkpt>
      <trkpt lat="49.283241" lon="-0.58127">
        <ele>77.3</ele>
        <time>2014-12-14T10:20:03Z</time>
      </trkpt>
      <trkpt lat="49.283268" lon="-0.581124">
        <ele>77.5</ele>
        <time>2014-12-14T10:20:07Z</time>
      </trkpt>
      <trkpt lat="49.283269" lon="-0.580934">
        <ele>76.6</ele>
        <time>2014-12-14T10:20:11Z</time>
      </trkpt>
      <trkpt lat="49.28328" lon="-0.580772">
        <ele>76.7</ele>
        <time>2014-12-14T10:20:15Z</time>
      </trkpt>
      <trkpt lat="49.283323" lon="-0.580668">
        <ele>75.8</ele>
        <time>2014-12-14T10:20:19Z</time>
      </trkpt>
      <trkpt lat="49.283394" lon="-0.580651">
        <ele>76.4</ele>
        <time>2014-12-14T10:20:23Z</time>
      </trkpt>
      <trkpt lat="49.283457" lon="-0.580644">
        <ele>77.5</ele>
        <time>2014-12-14T10:20:27Z</time>
      </trkpt>
      <trkpt lat="49.283529" lon="-0.580655">
        <ele>78.7</ele>
        <time>2014-12-14T10:20:31Z</time>
      </trkpt>
      <trkpt lat="49.283604" lon="-0.580674">
        <ele>80.4</ele>
        <time>2014-12-14T10:20:35Z</time>
      </trkpt>
      <trkpt lat="49.283688" lon="-0.580701">
        <ele>81.2</ele>
        <time>2014-12-14T10:20:39Z</time>
      </trkpt>
      <trkpt lat="49.283765" lon="-0.580701">
        <ele>81.6</ele>
        <time>2014-12-14T10:20:43Z</time>
      </trkpt>
      <trkpt lat="49.283901" lon="-0.580738">
        <ele>82.8</ele>
        <time>2014-12-14T10:20:47Z</time>
      </trkpt>
      <trkpt lat="49.283998" lon="-0.580717">
        <ele>83.5</ele>
        <time>2014-12-14T10:20:51Z</time>
      </trkpt>
      <trkpt lat="49.284119" lon="-0.580731">
        <ele>84.5</ele>
        <time>2014-12-14T10:20:55Z</time>
      </trkpt>
      <trkpt lat="49.284254" lon="-0.580728">
        <ele>84.6</ele>
        <time>2014-12-14T10:20:59Z</time>
      </trkpt>
      <trkpt lat="49.284363" lon="-0.580727">
        <ele>84.3</ele>
        <time>2014-12-14T10:21:03Z</time>
      </trkpt>
      <trkpt lat="49.284481" lon="-0.580738">
        <ele>85.4</ele>
        <time>2014-12-14T10:21:07Z</time>
      </trkpt>
      <trkpt lat="49.284607" lon="-0.580716">
        <ele>84.7</ele>
        <time>2014-12-14T10:21:11Z</time>
      </trkpt>
      <trkpt lat="49.284727" lon="-0.580765">
        <ele>84.7</ele>
        <time>2014-12-14T10:21:15Z</time>
      </trkpt>
      <trkpt lat="49.284856" lon="-0.580764">
        <ele>84.7</ele>
        <time>2014-12-14T10:21:19Z</time>
      </trkpt>
      <trkpt lat="49.284988" lon="-0.580771">
        <ele>85.8</ele>
        <time>2014-12-14T10:21:23Z</time>
      </trkpt>
      <trkpt lat="49.285145" lon="-0.580791">
        <ele>85.8</ele>
        <time>2014-12-14T10:21:27Z</time>
      </trkpt>
      <trkpt lat="49.285295" lon="-0.580814">
        <ele>85.3</ele>
        <time>2014-12-14T10:21:31Z</time>
      </trkpt>
      <trkpt lat="49.285426" lon="-0.580835">
        <ele>85.3</ele>
        <time>2014-12-14T10:21:35Z</time>
      </trkpt>
      <trkpt lat="49.285589" lon="-0.580821">
        <ele>84.3</ele>
        <time>2014-12-14T10:21:39Z</time>
      </trkpt>
      <trkpt lat="49.28574" lon="-0.580797">
        <ele>85.0</ele>
        <time>2014-12-14T10:21:43Z</time>
      </trkpt>
      <trkpt lat="49.285899" lon="-0.580819">
        <ele>85.0</ele>
        <time>2014-12-14T10:21:47Z</time>
      </trkpt>
      <trkpt lat="49.286051" lon="-0.580834">
        <ele>84.3</ele>
        <time>2014-12-14T10:21:51Z</time>
      </trkpt>
      <trkpt lat="49.286191" lon="-0.580834">
        <ele>84.8</ele>
        <time>2014-12-14T10:21:55Z</time>
      </trkpt>
      <trkpt lat="49.286328" lon="-0.580845">
        <ele>84.4</ele>
        <time>2014-12-14T10:21:59Z</time>
      </trkpt>
      <trkpt lat="49.286444" lon="-0.580868">
        <ele>85.2</ele>
        <time>2014-12-14T10:22:03Z</time>
      </trkpt>
      <trkpt lat="49.286518" lon="-0.580932">
        <ele>85.5</ele>
        <time>2014-12-14T10:22:07Z</time>
      </trkpt>
      <trkpt lat="49.28649" lon="-0.581079">
        <ele>85.5</ele>
        <time>2014-12-14T10:22:11Z</time>
      </trkpt>
      <trkpt lat="49.286454" lon="-0.581253">
        <ele>86.0</ele>
        <time>2014-12-14T10:22:15Z</time>
      </trkpt>
      <trkpt lat="49.286414" lon="-0.581506">
        <ele>85.2</ele>
        <time>2014-12-14T10:22:19Z</time>
      </trkpt>
      <trkpt lat="49.286376" lon="-0.581706">
        <ele>85.0</ele>
        <time>2014-12-14T10:22:23Z</time>
      </trkpt>
      <trkpt lat="49.28634" lon="-0.581928">
        <ele>83.9</ele>
        <time>2014-12-14T10:22:27Z</time>
      </trkpt>
      <trkpt lat="49.286315" lon="-0.58217">
        <ele>83.9</ele>
        <time>2014-12-14T10:22:31Z</time>
      </trkpt>
      <trkpt lat="49.286275" lon="-0.582395">
        <ele>83.6</ele>
        <time>2014-12-14T10:22:35Z</time>
      </trkpt>
      <trkpt lat="49.286251" lon="-0.582587">
        <ele>82.2</ele>
        <time>2014-12-14T10:22:39Z</time>
      </trkpt>
      <trkpt lat="49.286237" lon="-0.582782">
        <ele>81.4</ele>
        <time>2014-12-14T10:22:43Z</time>
      </trkpt>
      <trkpt lat="49.286221" lon="-0.583015">
        <ele>81.3</ele>
        <time>2014-12-14T10:22:47Z</time>
      </trkpt>
      <trkpt lat="49.286201" lon="-0.58321">
        <ele>80.3</ele>
        <time>2014-12-14T10:22:51Z</time>
      </trkpt>
      <trkpt lat="49.286182" lon="-0.58344">
        <ele>79.5</ele>
        <time>2014-12-14T10:22:55Z</time>
      </trkpt>
      <trkpt lat="49.286129" lon="-0.583669">
        <ele>78.6</ele>
        <time>2014-12-14T10:22:59Z</time>
      </trkpt>
      <trkpt lat="49.286113" lon="-0.583855">
        <ele>78.4</ele>
        <time>2014-12-14T10:23:03Z</time>
      </trkpt>
      <trkpt lat="49.286094" lon="-0.58409">
        <ele>76.8</ele>
        <time>2014-12-14T10:23:07Z</time>
      </trkpt>
      <trkpt lat="49.286091" lon="-0.584386">
        <ele>73.9</ele>
        <time>2014-12-14T10:23:11Z</time>
      </trkpt>
      <trkpt lat="49.286138" lon="-0.584687">
        <ele>70.6</ele>
        <time>2014-12-14T10:23:15Z</time>
      </trkpt>
      <trkpt lat="49.286152" lon="-0.584999">
        <ele>68.4</ele>
        <time>2014-12-14T10:23:19Z</time>
      </trkpt>
      <trkpt lat="49.286204" lon="-0.585224">
        <ele>64.8</ele>
        <time>2014-12-14T10:23:23Z</time>
      </trkpt>
      <trkpt lat="49.286226" lon="-0.58526">
        <ele>63.6</ele>
        <time>2014-12-14T10:23:27Z</time>
      </trkpt>
      <trkpt lat="49.286212" lon="-0.585247">
        <ele>63.5</ele>
        <time>2014-12-14T10:23:31Z</time>
      </trkpt>
      <trkpt lat="49.286165" lon="-0.585352">
        <ele>63.4</ele>
        <time>2014-12-14T10:23:43Z</time>
      </trkpt>
      <trkpt lat="49.286158" lon="-0.585518">
        <ele>63.6</ele>
        <time>2014-12-14T10:23:47Z</time>
      </trkpt>
      <trkpt lat="49.286214" lon="-0.585745">
        <ele>62.5</ele>
        <time>2014-12-14T10:23:51Z</time>
      </trkpt>
      <trkpt lat="49.286207" lon="-0.585951">
        <ele>62.1</ele>
        <time>2014-12-14T10:23:55Z</time>
      </trkpt>
      <trkpt lat="49.286162" lon="-0.586198">
        <ele>62.1</ele>
        <time>2014-12-14T10:23:59Z</time>
      </trkpt>
      <trkpt lat="49.286199" lon="-0.586406">
        <ele>61.0</ele>
        <time>2014-12-14T10:24:03Z</time>
      </trkpt>
      <trkpt lat="49.286222" lon="-0.586659">
        <ele>60.3</ele>
        <time>2014-12-14T10:24:07Z</time>
      </trkpt>
      <trkpt lat="49.286279" lon="-0.586891">
        <ele>61.8</ele>
        <time>2014-12-14T10:24:11Z</time>
      </trkpt>
      <trkpt lat="49.286245" lon="-0.587152">
        <ele>61.0</ele>
        <time>2014-12-14T10:24:15Z</time>
      </trkpt>
      <trkpt lat="49.286161" lon="-0.587369">
        <ele>61.5</ele>
        <time>2014-12-14T10:24:19Z</time>
      </trkpt>
      <trkpt lat="49.286085" lon="-0.587471">
        <ele>61.0</ele>
        <time>2014-12-14T10:24:23Z</time>
      </trkpt>
      <trkpt lat="49.286115" lon="-0.58748">
        <ele>60.1</ele>
        <time>2014-12-14T10:24:27Z</time>
      </trkpt>
      <trkpt lat="49.286104" lon="-0.587474">
        <ele>60.1</ele>
        <time>2014-12-14T10:24:31Z</time>
      </trkpt>
      <trkpt lat="49.286084" lon="-0.587561">
        <ele>60.2</ele>
        <time>2014-12-14T10:25:35Z</time>
      </trkpt>
      <trkpt lat="49.286029" lon="-0.5878">
        <ele>60.3</ele>
        <time>2014-12-14T10:25:39Z</time>
      </trkpt>
      <trkpt lat="49.285925" lon="-0.587977">
        <ele>60.4</ele>
        <time>2014-12-14T10:25:43Z</time>
      </trkpt>
      <trkpt lat="49.285836" lon="-0.588138">
        <ele>60.5</ele>
        <time>2014-12-14T10:25:47Z</time>
      </trkpt>
      <trkpt lat="49.285679" lon="-0.588351">
        <ele>60.1</ele>
        <time>2014-12-14T10:25:51Z</time>
      </trkpt>
      <trkpt lat="49.285535" lon="-0.58854">
        <ele>60.2</ele>
        <time>2014-12-14T10:25:55Z</time>
      </trkpt>
      <trkpt lat="49.285365" lon="-0.58875">
        <ele>60.8</ele>
        <time>2014-12-14T10:25:59Z</time>
      </trkpt>
      <trkpt lat="49.28518" lon="-0.588964">
        <ele>60.8</ele>
        <time>2014-12-14T10:26:03Z</time>
      </trkpt>
      <trkpt lat="49.284994" lon="-0.589177">
        <ele>60.8</ele>
        <time>2014-12-14T10:26:07Z</time>
      </trkpt>
      <trkpt lat="49.284805" lon="-0.589351">
        <ele>59.6</ele>
        <time>2014-12-14T10:26:11Z</time>
      </trkpt>
      <trkpt lat="49.2846" lon="-0.589525">
        <ele>59.6</ele>
        <time>2014-12-14T10:26:15Z</time>
      </trkpt>
      <trkpt lat="49.284391" lon="-0.589718">
        <ele>58.3</ele>
        <time>2014-12-14T10:26:19Z</time>
      </trkpt>
      <trkpt lat="49.28421" lon="-0.589907">
        <ele>58.3</ele>
        <time>2014-12-14T10:26:23Z</time>
      </trkpt>
      <trkpt lat="49.284014" lon="-0.590101">
        <ele>57.2</ele>
        <time>2014-12-14T10:26:27Z</time>
      </trkpt>
      <trkpt lat="49.283787" lon="-0.590303">
        <ele>56.4</ele>
        <time>2014-12-14T10:26:31Z</time>
      </trkpt>
      <trkpt lat="49.283563" lon="-0.590527">
        <ele>54.2</ele>
        <time>2014-12-14T10:26:35Z</time>
      </trkpt>
      <trkpt lat="49.283475" lon="-0.590851">
        <ele>53.1</ele>
        <time>2014-12-14T10:26:39Z</time>
      </trkpt>
      <trkpt lat="49.283495" lon="-0.591156">
        <ele>52.4</ele>
        <time>2014-12-14T10:26:43Z</time>
      </trkpt>
      <trkpt lat="49.283496" lon="-0.591506">
        <ele>51.8</ele>
        <time>2014-12-14T10:26:47Z</time>
      </trkpt>
      <trkpt lat="49.283573" lon="-0.591814">
        <ele>52.9</ele>
        <time>2014-12-14T10:26:51Z</time>
      </trkpt>
      <trkpt lat="49.283638" lon="-0.592141">
        <ele>53.0</ele>
        <time>2014-12-14T10:26:55Z</time>
      </trkpt>
      <trkpt lat="49.283641" lon="-0.592505">
        <ele>52.6</ele>
        <time>2014-12-14T10:26:59Z</time>
      </trkpt>
      <trkpt lat="49.283608" lon="-0.592838">
        <ele>52.5</ele>
        <time>2014-12-14T10:27:03Z</time>
      </trkpt>
      <trkpt lat="49.283597" lon="-0.593119">
        <ele>52.2</ele>
        <time>2014-12-14T10:27:07Z</time>
      </trkpt>
      <trkpt lat="49.283649" lon="-0.593385">
        <ele>52.2</ele>
        <time>2014-12-14T10:27:11Z</time>
      </trkpt>
      <trkpt lat="49.283746" lon="-0.593617">
        <ele>52.9</ele>
        <time>2014-12-14T10:27:15Z</time>
      </trkpt>
      <trkpt lat="49.28382" lon="-0.593899">
        <ele>52.9</ele>
        <time>2014-12-14T10:27:19Z</time>
      </trkpt>
      <trkpt lat="49.283898" lon="-0.594163">
        <ele>53.9</ele>
        <time>2014-12-14T10:27:23Z</time>
      </trkpt>
      <trkpt lat="49.284026" lon="-0.594441">
        <ele>55.3</ele>
        <time>2014-12-14T10:27:27Z</time>
      </trkpt>
      <trkpt lat="49.28413" lon="-0.59471">
        <ele>56.0</ele>
        <time>2014-12-14T10:27:31Z</time>
      </trkpt>
      <trkpt lat="49.284248" lon="-0.59498">
        <ele>56.6</ele>
        <time>2014-12-14T10:27:35Z</time>
      </trkpt>
      <trkpt lat="49.284346" lon="-0.595241">
        <ele>57.0</ele>
        <time>2014-12-14T10:27:39Z</time>
      </trkpt>
      <trkpt lat="49.284426" lon="-0.595539">
        <ele>57.6</ele>
        <time>2014-12-14T10:27:43Z</time>
      </trkpt>
      <trkpt lat="49.284509" lon="-0.595796">
        <ele>57.6</ele>
        <time>2014-12-14T10:27:47Z</time>
      </trkpt>
      <trkpt lat="49.28448" lon="-0.596063">
        <ele>57.6</ele>
        <time>2014-12-14T10:27:51Z</time>
      </trkpt>
      <trkpt lat="49.284523" lon="-0.596355">
        <ele>58.0</ele>
        <time>2014-12-14T10:27:55Z</time>
      </trkpt>
      <trkpt lat="49.284633" lon="-0.596583">
        <ele>57.8</ele>
        <time>2014-12-14T10:27:59Z</time>
      </trkpt>
      <trkpt lat="49.284774" lon="-0.596816">
        <ele>58.9</ele>
        <time>2014-12-14T10:28:03Z</time>
      </trkpt>
      <trkpt lat="49.284964" lon="-0.596976">
        <ele>59.0</ele>
        <time>2014-12-14T10:28:07Z</time>
      </trkpt>
      <trkpt lat="49.285151" lon="-0.597078">
        <ele>58.8</ele>
        <time>2014-12-14T10:28:11Z</time>
      </trkpt>
      <trkpt lat="49.285322" lon="-0.597169">
        <ele>58.8</ele>
        <time>2014-12-14T10:28:15Z</time>
      </trkpt>
      <trkpt lat="49.285515" lon="-0.597232">
        <ele>59.1</ele>
        <time>2014-12-14T10:28:19Z</time>
      </trkpt>
      <trkpt lat="49.285695" lon="-0.597357">
        <ele>59.4</ele>
        <time>2014-12-14T10:28:23Z</time>
      </trkpt>
      <trkpt lat="49.285887" lon="-0.597448">
        <ele>59.0</ele>
        <time>2014-12-14T10:28:27Z</time>
      </trkpt>
      <trkpt lat="49.286098" lon="-0.597526">
        <ele>59.7</ele>
        <time>2014-12-14T10:28:31Z</time>
      </trkpt>
      <trkpt lat="49.286311" lon="-0.597608">
        <ele>60.5</ele>
        <time>2014-12-14T10:28:35Z</time>
      </trkpt>
      <trkpt lat="49.286506" lon="-0.597667">
        <ele>60.5</ele>
        <time>2014-12-14T10:28:39Z</time>
      </trkpt>
      <trkpt lat="49.286718" lon="-0.597758">
        <ele>60.5</ele>
        <time>2014-12-14T10:28:43Z</time>
      </trkpt>
      <trkpt lat="49.286942" lon="-0.597849">
        <ele>61.8</ele>
        <time>2014-12-14T10:28:47Z</time>
      </trkpt>
      <trkpt lat="49.287143" lon="-0.597939">
        <ele>62.3</ele>
        <time>2014-12-14T10:28:51Z</time>
      </trkpt>
      <trkpt lat="49.287291" lon="-0.59811">
        <ele>62.5</ele>
        <time>2014-12-14T10:28:55Z</time>
      </trkpt>
      <trkpt lat="49.287398" lon="-0.598266">
        <ele>63.4</ele>
        <time>2014-12-14T10:28:59Z</time>
      </trkpt>
      <trkpt lat="49.287468" lon="-0.598374">
        <ele>64.4</ele>
        <time>2014-12-14T10:29:03Z</time>
      </trkpt>
      <trkpt lat="49.287484" lon="-0.598587">
        <ele>64.8</ele>
        <time>2014-12-14T10:29:07Z</time>
      </trkpt>
      <trkpt lat="49.287441" lon="-0.598877">
        <ele>64.8</ele>
        <time>2014-12-14T10:29:11Z</time>
      </trkpt>
      <trkpt lat="49.287419" lon="-0.599153">
        <ele>64.8</ele>
        <time>2014-12-14T10:29:15Z</time>
      </trkpt>
      <trkpt lat="49.287388" lon="-0.599435">
        <ele>65.1</ele>
        <time>2014-12-14T10:29:19Z</time>
      </trkpt>
      <trkpt lat="49.287375" lon="-0.599743">
        <ele>65.1</ele>
        <time>2014-12-14T10:29:23Z</time>
      </trkpt>
      <trkpt lat="49.287331" lon="-0.600082">
        <ele>65.1</ele>
        <time>2014-12-14T10:29:27Z</time>
      </trkpt>
      <trkpt lat="49.287284" lon="-0.600396">
        <ele>65.7</ele>
        <time>2014-12-14T10:29:31Z</time>
      </trkpt>
      <trkpt lat="49.287257" lon="-0.600724">
        <ele>65.7</ele>
        <time>2014-12-14T10:29:35Z</time>
      </trkpt>
      <trkpt lat="49.287225" lon="-0.60103">
        <ele>65.7</ele>
        <time>2014-12-14T10:29:39Z</time>
      </trkpt>
      <trkpt lat="49.287204" lon="-0.601334">
        <ele>65.6</ele>
        <time>2014-12-14T10:29:43Z</time>
      </trkpt>
      <trkpt lat="49.287184" lon="-0.601659">
        <ele>65.6</ele>
        <time>2014-12-14T10:29:47Z</time>
      </trkpt>
      <trkpt lat="49.287154" lon="-0.60199">
        <ele>66.3</ele>
        <time>2014-12-14T10:29:51Z</time>
      </trkpt>
      <trkpt lat="49.287122" lon="-0.602328">
        <ele>66.3</ele>
        <time>2014-12-14T10:29:55Z</time>
      </trkpt>
      <trkpt lat="49.287077" lon="-0.6027">
        <ele>66.2</ele>
        <time>2014-12-14T10:29:59Z</time>
      </trkpt>
      <trkpt lat="49.287037" lon="-0.603031">
        <ele>66.4</ele>
        <time>2014-12-14T10:30:03Z</time>
      </trkpt>
      <trkpt lat="49.287015" lon="-0.603333">
        <ele>66.6</ele>
        <time>2014-12-14T10:30:07Z</time>
      </trkpt>
      <trkpt lat="49.286977" lon="-0.603658">
        <ele>66.6</ele>
        <time>2014-12-14T10:30:11Z</time>
      </trkpt>
      <trkpt lat="49.286944" lon="-0.603981">
        <ele>66.4</ele>
        <time>2014-12-14T10:30:15Z</time>
      </trkpt>
      <trkpt lat="49.286909" lon="-0.604305">
        <ele>67.3</ele>
        <time>2014-12-14T10:30:19Z</time>
      </trkpt>
      <trkpt lat="49.286875" lon="-0.60463">
        <ele>66.7</ele>
        <time>2014-12-14T10:30:23Z</time>
      </trkpt>
      <trkpt lat="49.286841" lon="-0.604948">
        <ele>66.9</ele>
        <time>2014-12-14T10:30:27Z</time>
      </trkpt>
      <trkpt lat="49.28681" lon="-0.60527">
        <ele>66.6</ele>
        <time>2014-12-14T10:30:31Z</time>
      </trkpt>
      <trkpt lat="49.286774" lon="-0.605602">
        <ele>66.5</ele>
        <time>2014-12-14T10:30:35Z</time>
      </trkpt>
      <trkpt lat="49.286742" lon="-0.605942">
        <ele>67.1</ele>
        <time>2014-12-14T10:30:39Z</time>
      </trkpt>
      <trkpt lat="49.286699" lon="-0.606275">
        <ele>67.4</ele>
        <time>2014-12-14T10:30:43Z</time>
      </trkpt>
      <trkpt lat="49.286666" lon="-0.606603">
        <ele>67.1</ele>
        <time>2014-12-14T10:30:47Z</time>
      </trkpt>
      <trkpt lat="49.286628" lon="-0.606875">
        <ele>67.2</ele>
        <time>2014-12-14T10:30:51Z</time>
      </trkpt>
      <trkpt lat="49.286598" lon="-0.607139">
        <ele>67.2</ele>
        <time>2014-12-14T10:30:55Z</time>
      </trkpt>
      <trkpt lat="49.286565" lon="-0.607456">
        <ele>67.4</ele>
        <time>2014-12-14T10:30:59Z</time>
      </trkpt>
      <trkpt lat="49.286556" lon="-0.607799">
        <ele>67.6</ele>
        <time>2014-12-14T10:31:03Z</time>
      </trkpt>
      <trkpt lat="49.28652" lon="-0.608152">
        <ele>67.7</ele>
        <time>2014-12-14T10:31:07Z</time>
      </trkpt>
      <trkpt lat="49.286477" lon="-0.608511">
        <ele>66.9</ele>
        <time>2014-12-14T10:31:11Z</time>
      </trkpt>
      <trkpt lat="49.286427" lon="-0.608845">
        <ele>67.8</ele>
        <time>2014-12-14T10:31:15Z</time>
      </trkpt>
      <trkpt lat="49.286409" lon="-0.60914">
        <ele>67.8</ele>
        <time>2014-12-14T10:31:19Z</time>
      </trkpt>
      <trkpt lat="49.286398" lon="-0.609454">
        <ele>67.6</ele>
        <time>2014-12-14T10:31:23Z</time>
      </trkpt>
      <trkpt lat="49.286354" lon="-0.609799">
        <ele>67.7</ele>
        <time>2014-12-14T10:31:27Z</time>
      </trkpt>
      <trkpt lat="49.286328" lon="-0.610147">
        <ele>67.2</ele>
        <time>2014-12-14T10:31:31Z</time>
      </trkpt>
      <trkpt lat="49.286289" lon="-0.610531">
        <ele>67.6</ele>
        <time>2014-12-14T10:31:35Z</time>
      </trkpt>
      <trkpt lat="49.286244" lon="-0.610925">
        <ele>67.1</ele>
        <time>2014-12-14T10:31:39Z</time>
      </trkpt>
      <trkpt lat="49.286219" lon="-0.611319">
        <ele>67.1</ele>
        <time>2014-12-14T10:31:43Z</time>
      </trkpt>
      <trkpt lat="49.286173" lon="-0.61171">
        <ele>66.8</ele>
        <time>2014-12-14T10:31:47Z</time>
      </trkpt>
      <trkpt lat="49.286133" lon="-0.612095">
        <ele>66.6</ele>
        <time>2014-12-14T10:31:51Z</time>
      </trkpt>
      <trkpt lat="49.286098" lon="-0.612441">
        <ele>66.6</ele>
        <time>2014-12-14T10:31:55Z</time>
      </trkpt>
      <trkpt lat="49.286049" lon="-0.612803">
        <ele>65.9</ele>
        <time>2014-12-14T10:31:59Z</time>
      </trkpt>
      <trkpt lat="49.286031" lon="-0.613177">
        <ele>65.7</ele>
        <time>2014-12-14T10:32:03Z</time>
      </trkpt>
      <trkpt lat="49.286001" lon="-0.613531">
        <ele>65.7</ele>
        <time>2014-12-14T10:32:07Z</time>
      </trkpt>
      <trkpt lat="49.285959" lon="-0.613892">
        <ele>65.8</ele>
        <time>2014-12-14T10:32:11Z</time>
      </trkpt>
      <trkpt lat="49.28595" lon="-0.614215">
        <ele>66.3</ele>
        <time>2014-12-14T10:32:15Z</time>
      </trkpt>
      <trkpt lat="49.285923" lon="-0.614541">
        <ele>66.7</ele>
        <time>2014-12-14T10:32:19Z</time>
      </trkpt>
      <trkpt lat="49.285866" lon="-0.6149">
        <ele>66.7</ele>
        <time>2014-12-14T10:32:23Z</time>
      </trkpt>
      <trkpt lat="49.285844" lon="-0.615235">
        <ele>67.3</ele>
        <time>2014-12-14T10:32:27Z</time>
      </trkpt>
      <trkpt lat="49.285833" lon="-0.615553">
        <ele>67.6</ele>
        <time>2014-12-14T10:32:31Z</time>
      </trkpt>
      <trkpt lat="49.285783" lon="-0.615896">
        <ele>68.1</ele>
        <time>2014-12-14T10:32:35Z</time>
      </trkpt>
      <trkpt lat="49.285748" lon="-0.616225">
        <ele>68.2</ele>
        <time>2014-12-14T10:32:39Z</time>
      </trkpt>
      <trkpt lat="49.285729" lon="-0.616557">
        <ele>68.8</ele>
        <time>2014-12-14T10:32:43Z</time>
      </trkpt>
      <trkpt lat="49.285667" lon="-0.616914">
        <ele>68.8</ele>
        <time>2014-12-14T10:32:47Z</time>
      </trkpt>
      <trkpt lat="49.285652" lon="-0.617259">
        <ele>68.8</ele>
        <time>2014-12-14T10:32:51Z</time>
      </trkpt>
      <trkpt lat="49.285623" lon="-0.617602">
        <ele>69.2</ele>
        <time>2014-12-14T10:32:55Z</time>
      </trkpt>
      <trkpt lat="49.285594" lon="-0.617918">
        <ele>69.0</ele>
        <time>2014-12-14T10:32:59Z</time>
      </trkpt>
      <trkpt lat="49.285563" lon="-0.618235">
        <ele>69.5</ele>
        <time>2014-12-14T10:33:03Z</time>
      </trkpt>
      <trkpt lat="49.285523" lon="-0.618576">
        <ele>70.0</ele>
        <time>2014-12-14T10:33:07Z</time>
      </trkpt>
      <trkpt lat="49.28546" lon="-0.618887">
        <ele>69.8</ele>
        <time>2014-12-14T10:33:11Z</time>
      </trkpt>
      <trkpt lat="49.285433" lon="-0.619189">
        <ele>70.2</ele>
        <time>2014-12-14T10:33:15Z</time>
      </trkpt>
      <trkpt lat="49.285394" lon="-0.619536">
        <ele>70.3</ele>
        <time>2014-12-14T10:33:19Z</time>
      </trkpt>
      <trkpt lat="49.285353" lon="-0.619879">
        <ele>69.9</ele>
        <time>2014-12-14T10:33:23Z</time>
      </trkpt>
      <trkpt lat="49.285332" lon="-0.620209">
        <ele>69.9</ele>
        <time>2014-12-14T10:33:27Z</time>
      </trkpt>
      <trkpt lat="49.285306" lon="-0.62054">
        <ele>71.3</ele>
        <time>2014-12-14T10:33:31Z</time>
      </trkpt>
      <trkpt lat="49.285286" lon="-0.620857">
        <ele>70.8</ele>
        <time>2014-12-14T10:33:35Z</time>
      </trkpt>
      <trkpt lat="49.285251" lon="-0.621161">
        <ele>70.7</ele>
        <time>2014-12-14T10:33:39Z</time>
      </trkpt>
      <trkpt lat="49.285237" lon="-0.621454">
        <ele>70.7</ele>
        <time>2014-12-14T10:33:43Z</time>
      </trkpt>
      <trkpt lat="49.285227" lon="-0.621795">
        <ele>70.7</ele>
        <time>2014-12-14T10:33:47Z</time>
      </trkpt>
      <trkpt lat="49.285201" lon="-0.622147">
        <ele>69.9</ele>
        <time>2014-12-14T10:33:51Z</time>
      </trkpt>
      <trkpt lat="49.285178" lon="-0.622472">
        <ele>69.9</ele>
        <time>2014-12-14T10:33:55Z</time>
      </trkpt>
      <trkpt lat="49.285142" lon="-0.622783">
        <ele>70.5</ele>
        <time>2014-12-14T10:33:59Z</time>
      </trkpt>
      <trkpt lat="49.285099" lon="-0.623105">
        <ele>70.8</ele>
        <time>2014-12-14T10:34:03Z</time>
      </trkpt>
      <trkpt lat="49.285051" lon="-0.623468">
        <ele>69.6</ele>
        <time>2014-12-14T10:34:07Z</time>
      </trkpt>
      <trkpt lat="49.285026" lon="-0.62378">
        <ele>70.3</ele>
        <time>2014-12-14T10:34:11Z</time>
      </trkpt>
      <trkpt lat="49.285003" lon="-0.624083">
        <ele>70.0</ele>
        <time>2014-12-14T10:34:15Z</time>
      </trkpt>
      <trkpt lat="49.284956" lon="-0.624388">
        <ele>69.1</ele>
        <time>2014-12-14T10:34:19Z</time>
      </trkpt>
      <trkpt lat="49.284925" lon="-0.624694">
        <ele>69.7</ele>
        <time>2014-12-14T10:34:23Z</time>
      </trkpt>
      <trkpt lat="49.2849" lon="-0.624994">
        <ele>70.6</ele>
        <time>2014-12-14T10:34:27Z</time>
      </trkpt>
      <trkpt lat="49.284875" lon="-0.625292">
        <ele>70.9</ele>
        <time>2014-12-14T10:34:31Z</time>
      </trkpt>
      <trkpt lat="49.284867" lon="-0.625561">
        <ele>70.4</ele>
        <time>2014-12-14T10:34:35Z</time>
      </trkpt>
      <trkpt lat="49.284851" lon="-0.625868">
        <ele>70.3</ele>
        <time>2014-12-14T10:34:39Z</time>
      </trkpt>
      <trkpt lat="49.28483" lon="-0.626155">
        <ele>70.8</ele>
        <time>2014-12-14T10:34:43Z</time>
      </trkpt>
      <trkpt lat="49.284784" lon="-0.626451">
        <ele>71.1</ele>
        <time>2014-12-14T10:34:47Z</time>
      </trkpt>
      <trkpt lat="49.284763" lon="-0.626717">
        <ele>71.1</ele>
        <time>2014-12-14T10:34:51Z</time>
      </trkpt>
      <trkpt lat="49.284733" lon="-0.627005">
        <ele>71.0</ele>
        <time>2014-12-14T10:34:55Z</time>
      </trkpt>
      <trkpt lat="49.284704" lon="-0.627308">
        <ele>71.8</ele>
        <time>2014-12-14T10:34:59Z</time>
      </trkpt>
      <trkpt lat="49.284667" lon="-0.627553">
        <ele>71.8</ele>
        <time>2014-12-14T10:35:03Z</time>
      </trkpt>
      <trkpt lat="49.284627" lon="-0.627804">
        <ele>72.5</ele>
        <time>2014-12-14T10:35:07Z</time>
      </trkpt>
      <trkpt lat="49.284592" lon="-0.628112">
        <ele>72.5</ele>
        <time>2014-12-14T10:35:11Z</time>
      </trkpt>
      <trkpt lat="49.28457" lon="-0.62841">
        <ele>73.4</ele>
        <time>2014-12-14T10:35:15Z</time>
      </trkpt>
      <trkpt lat="49.284537" lon="-0.628654">
        <ele>73.6</ele>
        <time>2014-12-14T10:35:19Z</time>
      </trkpt>
      <trkpt lat="49.284515" lon="-0.628926">
        <ele>73.6</ele>
        <time>2014-12-14T10:35:23Z</time>
      </trkpt>
      <trkpt lat="49.284477" lon="-0.629189">
        <ele>73.9</ele>
        <time>2014-12-14T10:35:27Z</time>
      </trkpt>
      <trkpt lat="49.284449" lon="-0.629402">
        <ele>74.5</ele>
        <time>2014-12-14T10:35:31Z</time>
      </trkpt>
      <trkpt lat="49.284412" lon="-0.629679">
        <ele>74.5</ele>
        <time>2014-12-14T10:35:35Z</time>
      </trkpt>
      <trkpt lat="49.284423" lon="-0.629934">
        <ele>74.0</ele>
        <time>2014-12-14T10:35:39Z</time>
      </trkpt>
      <trkpt lat="49.284408" lon="-0.630199">
        <ele>74.3</ele>
        <time>2014-12-14T10:35:43Z</time>
      </trkpt>
      <trkpt lat="49.284393" lon="-0.630466">
        <ele>74.9</ele>
        <time>2014-12-14T10:35:47Z</time>
      </trkpt>
      <trkpt lat="49.28436" lon="-0.630739">
        <ele>74.9</ele>
        <time>2014-12-14T10:35:51Z</time>
      </trkpt>
      <trkpt lat="49.284311" lon="-0.631006">
        <ele>75.2</ele>
        <time>2014-12-14T10:35:55Z</time>
      </trkpt>
      <trkpt lat="49.284288" lon="-0.631274">
        <ele>75.0</ele>
        <time>2014-12-14T10:35:59Z</time>
      </trkpt>
      <trkpt lat="49.284279" lon="-0.631568">
        <ele>75.5</ele>
        <time>2014-12-14T10:36:03Z</time>
      </trkpt>
      <trkpt lat="49.284257" lon="-0.631868">
        <ele>76.0</ele>
        <time>2014-12-14T10:36:07Z</time>
      </trkpt>
      <trkpt lat="49.284241" lon="-0.632134">
        <ele>75.7</ele>
        <time>2014-12-14T10:36:11Z</time>
      </trkpt>
      <trkpt lat="49.284219" lon="-0.632414">
        <ele>75.7</ele>
        <time>2014-12-14T10:36:15Z</time>
      </trkpt>
      <trkpt lat="49.284205" lon="-0.632701">
        <ele>76.7</ele>
        <time>2014-12-14T10:36:19Z</time>
      </trkpt>
      <trkpt lat="49.284181" lon="-0.63296">
        <ele>76.7</ele>
        <time>2014-12-14T10:36:23Z</time>
      </trkpt>
      <trkpt lat="49.284149" lon="-0.633209">
        <ele>77.6</ele>
        <time>2014-12-14T10:36:27Z</time>
      </trkpt>
      <trkpt lat="49.284132" lon="-0.633464">
        <ele>77.6</ele>
        <time>2014-12-14T10:36:31Z</time>
      </trkpt>
      <trkpt lat="49.28411" lon="-0.633705">
        <ele>78.4</ele>
        <time>2014-12-14T10:36:35Z</time>
      </trkpt>
      <trkpt lat="49.284094" lon="-0.633973">
        <ele>77.9</ele>
        <time>2014-12-14T10:36:39Z</time>
      </trkpt>
      <trkpt lat="49.284079" lon="-0.63422">
        <ele>78.8</ele>
        <time>2014-12-14T10:36:43Z</time>
      </trkpt>
      <trkpt lat="49.284079" lon="-0.634497">
        <ele>78.8</ele>
        <time>2014-12-14T10:36:47Z</time>
      </trkpt>
      <trkpt lat="49.284057" lon="-0.634773">
        <ele>79.0</ele>
        <time>2014-12-14T10:36:51Z</time>
      </trkpt>
      <trkpt lat="49.284017" lon="-0.635011">
        <ele>78.8</ele>
        <time>2014-12-14T10:36:55Z</time>
      </trkpt>
      <trkpt lat="49.283972" lon="-0.635259">
        <ele>78.9</ele>
        <time>2014-12-14T10:36:59Z</time>
      </trkpt>
      <trkpt lat="49.283925" lon="-0.635521">
        <ele>78.9</ele>
        <time>2014-12-14T10:37:03Z</time>
      </trkpt>
      <trkpt lat="49.283873" lon="-0.63577">
        <ele>78.9</ele>
        <time>2014-12-14T10:37:07Z</time>
      </trkpt>
      <trkpt lat="49.283857" lon="-0.636034">
        <ele>79.5</ele>
        <time>2014-12-14T10:37:11Z</time>
      </trkpt>
      <trkpt lat="49.283831" lon="-0.636284">
        <ele>79.5</ele>
        <time>2014-12-14T10:37:15Z</time>
      </trkpt>
      <trkpt lat="49.283822" lon="-0.636516">
        <ele>79.3</ele>
        <time>2014-12-14T10:37:19Z</time>
      </trkpt>
      <trkpt lat="49.28379" lon="-0.636752">
        <ele>79.9</ele>
        <time>2014-12-14T10:37:23Z</time>
      </trkpt>
      <trkpt lat="49.283746" lon="-0.636999">
        <ele>80.7</ele>
        <time>2014-12-14T10:37:27Z</time>
      </trkpt>
      <trkpt lat="49.283711" lon="-0.63723">
        <ele>80.7</ele>
        <time>2014-12-14T10:37:31Z</time>
      </trkpt>
      <trkpt lat="49.28366" lon="-0.637498">
        <ele>79.8</ele>
        <time>2014-12-14T10:37:35Z</time>
      </trkpt>
      <trkpt lat="49.283662" lon="-0.637763">
        <ele>80.4</ele>
        <time>2014-12-14T10:37:39Z</time>
      </trkpt>
      <trkpt lat="49.283645" lon="-0.638041">
        <ele>80.4</ele>
        <time>2014-12-14T10:37:43Z</time>
      </trkpt>
      <trkpt lat="49.283606" lon="-0.638277">
        <ele>80.4</ele>
        <time>2014-12-14T10:37:47Z</time>
      </trkpt>
      <trkpt lat="49.283565" lon="-0.638542">
        <ele>80.4</ele>
        <time>2014-12-14T10:37:51Z</time>
      </trkpt>
      <trkpt lat="49.283511" lon="-0.638796">
        <ele>81.8</ele>
        <time>2014-12-14T10:37:55Z</time>
      </trkpt>
      <trkpt lat="49.283456" lon="-0.639007">
        <ele>81.9</ele>
        <time>2014-12-14T10:37:59Z</time>
      </trkpt>
      <trkpt lat="49.283443" lon="-0.639205">
        <ele>81.7</ele>
        <time>2014-12-14T10:38:03Z</time>
      </trkpt>
      <trkpt lat="49.283435" lon="-0.63943">
        <ele>83.0</ele>
        <time>2014-12-14T10:38:07Z</time>
      </trkpt>
      <trkpt lat="49.283414" lon="-0.639683">
        <ele>83.7</ele>
        <time>2014-12-14T10:38:11Z</time>
      </trkpt>
      <trkpt lat="49.283401" lon="-0.639956">
        <ele>83.5</ele>
        <time>2014-12-14T10:38:15Z</time>
      </trkpt>
      <trkpt lat="49.283366" lon="-0.640182">
        <ele>84.0</ele>
        <time>2014-12-14T10:38:19Z</time>
      </trkpt>
      <trkpt lat="49.283347" lon="-0.640427">
        <ele>84.6</ele>
        <time>2014-12-14T10:38:23Z</time>
      </trkpt>
      <trkpt lat="49.28332" lon="-0.640651">
        <ele>84.6</ele>
        <time>2014-12-14T10:38:27Z</time>
      </trkpt>
      <trkpt lat="49.28331" lon="-0.640889">
        <ele>85.7</ele>
        <time>2014-12-14T10:38:31Z</time>
      </trkpt>
      <trkpt lat="49.283272" lon="-0.641126">
        <ele>86.4</ele>
        <time>2014-12-14T10:38:35Z</time>
      </trkpt>
      <trkpt lat="49.283263" lon="-0.641371">
        <ele>87.6</ele>
        <time>2014-12-14T10:38:39Z</time>
      </trkpt>
      <trkpt lat="49.283211" lon="-0.641605">
        <ele>88.2</ele>
        <time>2014-12-14T10:38:43Z</time>
      </trkpt>
      <trkpt lat="49.28318" lon="-0.64181">
        <ele>88.7</ele>
        <time>2014-12-14T10:38:47Z</time>
      </trkpt>
      <trkpt lat="49.283142" lon="-0.642034">
        <ele>88.7</ele>
        <time>2014-12-14T10:38:51Z</time>
      </trkpt>
      <trkpt lat="49.283148" lon="-0.642258">
        <ele>90.0</ele>
        <time>2014-12-14T10:38:55Z</time>
      </trkpt>
      <trkpt lat="49.283109" lon="-0.642509">
        <ele>91.1</ele>
        <time>2014-12-14T10:38:59Z</time>
      </trkpt>
      <trkpt lat="49.283073" lon="-0.642713">
        <ele>91.7</ele>
        <time>2014-12-14T10:39:03Z</time>
      </trkpt>
      <trkpt lat="49.283046" lon="-0.642906">
        <ele>92.7</ele>
        <time>2014-12-14T10:39:07Z</time>
      </trkpt>
      <trkpt lat="49.283067" lon="-0.643116">
        <ele>92.8</ele>
        <time>2014-12-14T10:39:11Z</time>
      </trkpt>
      <trkpt lat="49.283085" lon="-0.643378">
        <ele>92.3</ele>
        <time>2014-12-14T10:39:15Z</time>
      </trkpt>
      <trkpt lat="49.283094" lon="-0.643647">
        <ele>92.1</ele>
        <time>2014-12-14T10:39:19Z</time>
      </trkpt>
      <trkpt lat="49.283045" lon="-0.643971">
        <ele>92.6</ele>
        <time>2014-12-14T10:39:23Z</time>
      </trkpt>
      <trkpt lat="49.283083" lon="-0.644274">
        <ele>91.7</ele>
        <time>2014-12-14T10:39:27Z</time>
      </trkpt>
      <trkpt lat="49.283111" lon="-0.644556">
        <ele>91.9</ele>
        <time>2014-12-14T10:39:31Z</time>
      </trkpt>
      <trkpt lat="49.283073" lon="-0.644879">
        <ele>91.3</ele>
        <time>2014-12-14T10:39:35Z</time>
      </trkpt>
      <trkpt lat="49.283084" lon="-0.645186">
        <ele>90.4</ele>
        <time>2014-12-14T10:39:39Z</time>
      </trkpt>
      <trkpt lat="49.283082" lon="-0.645506">
        <ele>90.4</ele>
        <time>2014-12-14T10:39:43Z</time>
      </trkpt>
      <trkpt lat="49.283085" lon="-0.645785">
        <ele>89.1</ele>
        <time>2014-12-14T10:39:47Z</time>
      </trkpt>
      <trkpt lat="49.283098" lon="-0.646077">
        <ele>90.3</ele>
        <time>2014-12-14T10:39:51Z</time>
      </trkpt>
      <trkpt lat="49.283089" lon="-0.646352">
        <ele>90.3</ele>
        <time>2014-12-14T10:39:55Z</time>
      </trkpt>
      <trkpt lat="49.283067" lon="-0.646663">
        <ele>89.7</ele>
        <time>2014-12-14T10:39:59Z</time>
      </trkpt>
      <trkpt lat="49.283097" lon="-0.646955">
        <ele>89.4</ele>
        <time>2014-12-14T10:40:03Z</time>
      </trkpt>
      <trkpt lat="49.283069" lon="-0.647211">
        <ele>90.5</ele>
        <time>2014-12-14T10:40:07Z</time>
      </trkpt>
      <trkpt lat="49.283077" lon="-0.647481">
        <ele>91.0</ele>
        <time>2014-12-14T10:40:11Z</time>
      </trkpt>
      <trkpt lat="49.283055" lon="-0.647687">
        <ele>89.9</ele>
        <time>2014-12-14T10:40:15Z</time>
      </trkpt>
      <trkpt lat="49.283049" lon="-0.647879">
        <ele>90.2</ele>
        <time>2014-12-14T10:40:19Z</time>
      </trkpt>
      <trkpt lat="49.283043" lon="-0.648035">
        <ele>89.3</ele>
        <time>2014-12-14T10:40:23Z</time>
      </trkpt>
      <trkpt lat="49.283058" lon="-0.648169">
        <ele>89.3</ele>
        <time>2014-12-14T10:40:27Z</time>
      </trkpt>
      <trkpt lat="49.283052" lon="-0.64834">
        <ele>90.2</ele>
        <time>2014-12-14T10:40:31Z</time>
      </trkpt>
      <trkpt lat="49.283077" lon="-0.648574">
        <ele>90.7</ele>
        <time>2014-12-14T10:40:35Z</time>
      </trkpt>
      <trkpt lat="49.283105" lon="-0.648855">
        <ele>91.5</ele>
        <time>2014-12-14T10:40:39Z</time>
      </trkpt>
      <trkpt lat="49.283172" lon="-0.649107">
        <ele>91.5</ele>
        <time>2014-12-14T10:40:43Z</time>
      </trkpt>
      <trkpt lat="49.283196" lon="-0.649338">
        <ele>91.5</ele>
        <time>2014-12-14T10:40:47Z</time>
      </trkpt>
      <trkpt lat="49.283176" lon="-0.649556">
        <ele>92.4</ele>
        <time>2014-12-14T10:40:51Z</time>
      </trkpt>
      <trkpt lat="49.283206" lon="-0.649791">
        <ele>93.3</ele>
        <time>2014-12-14T10:40:55Z</time>
      </trkpt>
      <trkpt lat="49.283176" lon="-0.649986">
        <ele>93.5</ele>
        <time>2014-12-14T10:40:59Z</time>
      </trkpt>
      <trkpt lat="49.283137" lon="-0.650181">
        <ele>94.2</ele>
        <time>2014-12-14T10:41:03Z</time>
      </trkpt>
      <trkpt lat="49.283159" lon="-0.650391">
        <ele>94.3</ele>
        <time>2014-12-14T10:41:07Z</time>
      </trkpt>
      <trkpt lat="49.283167" lon="-0.650613">
        <ele>94.2</ele>
        <time>2014-12-14T10:41:11Z</time>
      </trkpt>
      <trkpt lat="49.283119" lon="-0.650806">
        <ele>94.5</ele>
        <time>2014-12-14T10:41:15Z</time>
      </trkpt>
      <trkpt lat="49.283115" lon="-0.650967">
        <ele>94.5</ele>
        <time>2014-12-14T10:41:19Z</time>
      </trkpt>
      <trkpt lat="49.283132" lon="-0.651164">
        <ele>95.7</ele>
        <time>2014-12-14T10:41:23Z</time>
      </trkpt>
      <trkpt lat="49.283124" lon="-0.651395">
        <ele>95.2</ele>
        <time>2014-12-14T10:41:27Z</time>
      </trkpt>
      <trkpt lat="49.283109" lon="-0.65157">
        <ele>96.5</ele>
        <time>2014-12-14T10:41:31Z</time>
      </trkpt>
      <trkpt lat="49.283069" lon="-0.651825">
        <ele>97.1</ele>
        <time>2014-12-14T10:41:35Z</time>
      </trkpt>
      <trkpt lat="49.283047" lon="-0.652047">
        <ele>97.3</ele>
        <time>2014-12-14T10:41:39Z</time>
      </trkpt>
      <trkpt lat="49.283035" lon="-0.652275">
        <ele>97.0</ele>
        <time>2014-12-14T10:41:43Z</time>
      </trkpt>
      <trkpt lat="49.28303" lon="-0.652491">
        <ele>97.2</ele>
        <time>2014-12-14T10:41:47Z</time>
      </trkpt>
      <trkpt lat="49.283024" lon="-0.65273">
        <ele>97.8</ele>
        <time>2014-12-14T10:41:51Z</time>
      </trkpt>
      <trkpt lat="49.283028" lon="-0.652959">
        <ele>97.8</ele>
        <time>2014-12-14T10:41:55Z</time>
      </trkpt>
      <trkpt lat="49.28302" lon="-0.653135">
        <ele>98.7</ele>
        <time>2014-12-14T10:41:59Z</time>
      </trkpt>
      <trkpt lat="49.283049" lon="-0.653321">
        <ele>99.2</ele>
        <time>2014-12-14T10:42:03Z</time>
      </trkpt>
      <trkpt lat="49.283065" lon="-0.653509">
        <ele>100.6</ele>
        <time>2014-12-14T10:42:07Z</time>
      </trkpt>
      <trkpt lat="49.283048" lon="-0.653694">
        <ele>101.0</ele>
        <time>2014-12-14T10:42:11Z</time>
      </trkpt>
      <trkpt lat="49.28302" lon="-0.653914">
        <ele>101.0</ele>
        <time>2014-12-14T10:42:15Z</time>
      </trkpt>
      <trkpt lat="49.282983" lon="-0.654118">
        <ele>101.6</ele>
        <time>2014-12-14T10:42:19Z</time>
      </trkpt>
      <trkpt lat="49.283032" lon="-0.654353">
        <ele>101.8</ele>
        <time>2014-12-14T10:42:23Z</time>
      </trkpt>
      <trkpt lat="49.283042" lon="-0.654571">
        <ele>102.2</ele>
        <time>2014-12-14T10:42:27Z</time>
      </trkpt>
      <trkpt lat="49.283041" lon="-0.6548">
        <ele>103.3</ele>
        <time>2014-12-14T10:42:31Z</time>
      </trkpt>
      <trkpt lat="49.283055" lon="-0.655007">
        <ele>103.4</ele>
        <time>2014-12-14T10:42:35Z</time>
      </trkpt>
      <trkpt lat="49.283063" lon="-0.655273">
        <ele>103.4</ele>
        <time>2014-12-14T10:42:39Z</time>
      </trkpt>
      <trkpt lat="49.283045" lon="-0.655484">
        <ele>103.8</ele>
        <time>2014-12-14T10:42:43Z</time>
      </trkpt>
      <trkpt lat="49.283047" lon="-0.655726">
        <ele>103.7</ele>
        <time>2014-12-14T10:42:47Z</time>
      </trkpt>
      <trkpt lat="49.283098" lon="-0.656001">
        <ele>103.9</ele>
        <time>2014-12-14T10:42:51Z</time>
      </trkpt>
      <trkpt lat="49.28306" lon="-0.656237">
        <ele>103.6</ele>
        <time>2014-12-14T10:42:55Z</time>
      </trkpt>
      <trkpt lat="49.283071" lon="-0.656517">
        <ele>103.2</ele>
        <time>2014-12-14T10:42:59Z</time>
      </trkpt>
      <trkpt lat="49.283055" lon="-0.656784">
        <ele>104.2</ele>
        <time>2014-12-14T10:43:03Z</time>
      </trkpt>
      <trkpt lat="49.283061" lon="-0.657076">
        <ele>104.2</ele>
        <time>2014-12-14T10:43:07Z</time>
      </trkpt>
      <trkpt lat="49.283049" lon="-0.657341">
        <ele>104.5</ele>
        <time>2014-12-14T10:43:11Z</time>
      </trkpt>
      <trkpt lat="49.283061" lon="-0.657601">
        <ele>104.1</ele>
        <time>2014-12-14T10:43:15Z</time>
      </trkpt>
      <trkpt lat="49.283058" lon="-0.657921">
        <ele>104.1</ele>
        <time>2014-12-14T10:43:19Z</time>
      </trkpt>
      <trkpt lat="49.283044" lon="-0.658233">
        <ele>104.0</ele>
        <time>2014-12-14T10:43:23Z</time>
      </trkpt>
      <trkpt lat="49.28303" lon="-0.658534">
        <ele>104.1</ele>
        <time>2014-12-14T10:43:27Z</time>
      </trkpt>
      <trkpt lat="49.283042" lon="-0.658736">
        <ele>103.2</ele>
        <time>2014-12-14T10:43:31Z</time>
      </trkpt>
      <trkpt lat="49.283093" lon="-0.659011">
        <ele>103.1</ele>
        <time>2014-12-14T10:43:35Z</time>
      </trkpt>
      <trkpt lat="49.283086" lon="-0.659219">
        <ele>103.7</ele>
        <time>2014-12-14T10:43:39Z</time>
      </trkpt>
      <trkpt lat="49.283077" lon="-0.659582">
        <ele>103.3</ele>
        <time>2014-12-14T10:43:43Z</time>
      </trkpt>
      <trkpt lat="49.283091" lon="-0.659937">
        <ele>102.6</ele>
        <time>2014-12-14T10:43:47Z</time>
      </trkpt>
      <trkpt lat="49.28312" lon="-0.660255">
        <ele>102.2</ele>
        <time>2014-12-14T10:43:51Z</time>
      </trkpt>
      <trkpt lat="49.2831" lon="-0.66057">
        <ele>102.1</ele>
        <time>2014-12-14T10:43:55Z</time>
      </trkpt>
      <trkpt lat="49.283067" lon="-0.660843">
        <ele>102.1</ele>
        <time>2014-12-14T10:43:59Z</time>
      </trkpt>
      <trkpt lat="49.282995" lon="-0.661261">
        <ele>101.1</ele>
        <time>2014-12-14T10:44:03Z</time>
      </trkpt>
      <trkpt lat="49.282979" lon="-0.661618">
        <ele>102.1</ele>
        <time>2014-12-14T10:44:07Z</time>
      </trkpt>
      <trkpt lat="49.282985" lon="-0.661934">
        <ele>101.1</ele>
        <time>2014-12-14T10:44:11Z</time>
      </trkpt>
      <trkpt lat="49.282974" lon="-0.662208">
        <ele>100.0</ele>
        <time>2014-12-14T10:44:15Z</time>
      </trkpt>
      <trkpt lat="49.282951" lon="-0.66248">
        <ele>100.5</ele>
        <time>2014-12-14T10:44:19Z</time>
      </trkpt>
      <trkpt lat="49.282951" lon="-0.662782">
        <ele>99.7</ele>
        <time>2014-12-14T10:44:23Z</time>
      </trkpt>
      <trkpt lat="49.282916" lon="-0.66306">
        <ele>99.6</ele>
        <time>2014-12-14T10:44:27Z</time>
      </trkpt>
      <trkpt lat="49.282957" lon="-0.663448">
        <ele>99.3</ele>
        <time>2014-12-14T10:44:31Z</time>
      </trkpt>
      <trkpt lat="49.283028" lon="-0.663803">
        <ele>99.3</ele>
        <time>2014-12-14T10:44:35Z</time>
      </trkpt>
      <trkpt lat="49.2831" lon="-0.664208">
        <ele>99.1</ele>
        <time>2014-12-14T10:44:39Z</time>
      </trkpt>
      <trkpt lat="49.283091" lon="-0.664644">
        <ele>99.1</ele>
        <time>2014-12-14T10:44:43Z</time>
      </trkpt>
      <trkpt lat="49.283091" lon="-0.665098">
        <ele>98.7</ele>
        <time>2014-12-14T10:44:47Z</time>
      </trkpt>
      <trkpt lat="49.283062" lon="-0.665573">
        <ele>98.7</ele>
        <time>2014-12-14T10:44:51Z</time>
      </trkpt>
      <trkpt lat="49.283012" lon="-0.665997">
        <ele>98.7</ele>
        <time>2014-12-14T10:44:55Z</time>
      </trkpt>
      <trkpt lat="49.282988" lon="-0.666405">
        <ele>98.6</ele>
        <time>2014-12-14T10:44:59Z</time>
      </trkpt>
      <trkpt lat="49.282979" lon="-0.666797">
        <ele>98.6</ele>
        <time>2014-12-14T10:45:03Z</time>
      </trkpt>
      <trkpt lat="49.282942" lon="-0.667193">
        <ele>98.5</ele>
        <time>2014-12-14T10:45:07Z</time>
      </trkpt>
      <trkpt lat="49.28291" lon="-0.667588">
        <ele>99.1</ele>
        <time>2014-12-14T10:45:11Z</time>
      </trkpt>
      <trkpt lat="49.282888" lon="-0.667989">
        <ele>99.1</ele>
        <time>2014-12-14T10:45:15Z</time>
      </trkpt>
      <trkpt lat="49.282855" lon="-0.668378">
        <ele>99.3</ele>
        <time>2014-12-14T10:45:19Z</time>
      </trkpt>
      <trkpt lat="49.282811" lon="-0.668753">
        <ele>99.1</ele>
        <time>2014-12-14T10:45:23Z</time>
      </trkpt>
      <trkpt lat="49.28279" lon="-0.66914">
        <ele>99.4</ele>
        <time>2014-12-14T10:45:27Z</time>
      </trkpt>
      <trkpt lat="49.282788" lon="-0.669539">
        <ele>99.4</ele>
        <time>2014-12-14T10:45:31Z</time>
      </trkpt>
      <trkpt lat="49.282788" lon="-0.669945">
        <ele>99.4</ele>
        <time>2014-12-14T10:45:35Z</time>
      </trkpt>
      <trkpt lat="49.282754" lon="-0.670355">
        <ele>98.4</ele>
        <time>2014-12-14T10:45:39Z</time>
      </trkpt>
      <trkpt lat="49.282785" lon="-0.670762">
        <ele>98.2</ele>
        <time>2014-12-14T10:45:43Z</time>
      </trkpt>
      <trkpt lat="49.282824" lon="-0.671126">
        <ele>98.6</ele>
        <time>2014-12-14T10:45:47Z</time>
      </trkpt>
      <trkpt lat="49.282837" lon="-0.671409">
        <ele>98.6</ele>
        <time>2014-12-14T10:45:51Z</time>
      </trkpt>
      <trkpt lat="49.28277" lon="-0.671455">
        <ele>98.6</ele>
        <time>2014-12-14T10:45:55Z</time>
      </trkpt>
      <trkpt lat="49.282641" lon="-0.671443">
        <ele>98.6</ele>
        <time>2014-12-14T10:45:59Z</time>
      </trkpt>
      <trkpt lat="49.282499" lon="-0.67142">
        <ele>99.5</ele>
        <time>2014-12-14T10:46:03Z</time>
      </trkpt>
      <trkpt lat="49.282302" lon="-0.671458">
        <ele>99.0</ele>
        <time>2014-12-14T10:46:07Z</time>
      </trkpt>
      <trkpt lat="49.282155" lon="-0.671483">
        <ele>99.4</ele>
        <time>2014-12-14T10:46:11Z</time>
      </trkpt>
      <trkpt lat="49.281987" lon="-0.671462">
        <ele>99.4</ele>
        <time>2014-12-14T10:46:15Z</time>
      </trkpt>
      <trkpt lat="49.281855" lon="-0.671455">
        <ele>99.4</ele>
        <time>2014-12-14T10:46:19Z</time>
      </trkpt>
      <trkpt lat="49.281717" lon="-0.671411">
        <ele>100.0</ele>
        <time>2014-12-14T10:46:23Z</time>
      </trkpt>
      <trkpt lat="49.281607" lon="-0.671396">
        <ele>100.0</ele>
        <time>2014-12-14T10:46:27Z</time>
      </trkpt>
      <trkpt lat="49.281481" lon="-0.67143">
        <ele>100.7</ele>
        <time>2014-12-14T10:46:31Z</time>
      </trkpt>
      <trkpt lat="49.281326" lon="-0.671395">
        <ele>101.4</ele>
        <time>2014-12-14T10:46:35Z</time>
      </trkpt>
      <trkpt lat="49.281235" lon="-0.671511">
        <ele>101.4</ele>
        <time>2014-12-14T10:46:39Z</time>
      </trkpt>
      <trkpt lat="49.281189" lon="-0.671661">
        <ele>102.8</ele>
        <time>2014-12-14T10:46:43Z</time>
      </trkpt>
      <trkpt lat="49.281076" lon="-0.671838">
        <ele>101.8</ele>
        <time>2014-12-14T10:46:47Z</time>
      </trkpt>
      <trkpt lat="49.280995" lon="-0.672013">
        <ele>102.6</ele>
        <time>2014-12-14T10:46:51Z</time>
      </trkpt>
      <trkpt lat="49.280934" lon="-0.672223">
        <ele>103.5</ele>
        <time>2014-12-14T10:46:55Z</time>
      </trkpt>
      <trkpt lat="49.280883" lon="-0.672453">
        <ele>103.9</ele>
        <time>2014-12-14T10:46:59Z</time>
      </trkpt>
      <trkpt lat="49.280852" lon="-0.672654">
        <ele>103.9</ele>
        <time>2014-12-14T10:47:03Z</time>
      </trkpt>
      <trkpt lat="49.280823" lon="-0.672849">
        <ele>103.5</ele>
        <time>2014-12-14T10:47:07Z</time>
      </trkpt>
      <trkpt lat="49.280792" lon="-0.673065">
        <ele>104.3</ele>
        <time>2014-12-14T10:47:11Z</time>
      </trkpt>
      <trkpt lat="49.280747" lon="-0.673286">
        <ele>103.9</ele>
        <time>2014-12-14T10:47:15Z</time>
      </trkpt>
      <trkpt lat="49.280789" lon="-0.673503">
        <ele>104.3</ele>
        <time>2014-12-14T10:47:19Z</time>
      </trkpt>
      <trkpt lat="49.280806" lon="-0.673716">
        <ele>104.5</ele>
        <time>2014-12-14T10:47:23Z</time>
      </trkpt>
      <trkpt lat="49.280798" lon="-0.673984">
        <ele>104.5</ele>
        <time>2014-12-14T10:47:27Z</time>
      </trkpt>
      <trkpt lat="49.280763" lon="-0.674205">
        <ele>105.1</ele>
        <time>2014-12-14T10:47:31Z</time>
      </trkpt>
      <trkpt lat="49.28069" lon="-0.67442">
        <ele>104.7</ele>
        <time>2014-12-14T10:47:35Z</time>
      </trkpt>
      <trkpt lat="49.280556" lon="-0.674623">
        <ele>105.7</ele>
        <time>2014-12-14T10:47:39Z</time>
      </trkpt>
      <trkpt lat="49.280503" lon="-0.674827">
        <ele>105.1</ele>
        <time>2014-12-14T10:47:43Z</time>
      </trkpt>
      <trkpt lat="49.280424" lon="-0.674989">
        <ele>104.9</ele>
        <time>2014-12-14T10:47:47Z</time>
      </trkpt>
      <trkpt lat="49.28036" lon="-0.6752">
        <ele>105.4</ele>
        <time>2014-12-14T10:47:51Z</time>
      </trkpt>
      <trkpt lat="49.280292" lon="-0.675398">
        <ele>106.3</ele>
        <time>2014-12-14T10:47:55Z</time>
      </trkpt>
      <trkpt lat="49.280227" lon="-0.675609">
        <ele>106.0</ele>
        <time>2014-12-14T10:47:59Z</time>
      </trkpt>
      <trkpt lat="49.280146" lon="-0.675832">
        <ele>106.0</ele>
        <time>2014-12-14T10:48:03Z</time>
      </trkpt>
      <trkpt lat="49.280092" lon="-0.67606">
        <ele>106.1</ele>
        <time>2014-12-14T10:48:07Z</time>
      </trkpt>
      <trkpt lat="49.280092" lon="-0.676263">
        <ele>106.3</ele>
        <time>2014-12-14T10:48:11Z</time>
      </trkpt>
      <trkpt lat="49.280108" lon="-0.676455">
        <ele>106.3</ele>
        <time>2014-12-14T10:48:15Z</time>
      </trkpt>
      <trkpt lat="49.280075" lon="-0.676741">
        <ele>106.3</ele>
        <time>2014-12-14T10:48:19Z</time>
      </trkpt>
      <trkpt lat="49.280025" lon="-0.677033">
        <ele>107.0</ele>
        <time>2014-12-14T10:48:23Z</time>
      </trkpt>
      <trkpt lat="49.280027" lon="-0.677304">
        <ele>106.2</ele>
        <time>2014-12-14T10:48:27Z</time>
      </trkpt>
      <trkpt lat="49.280007" lon="-0.677496">
        <ele>105.9</ele>
        <time>2014-12-14T10:48:31Z</time>
      </trkpt>
      <trkpt lat="49.28003" lon="-0.677665">
        <ele>105.9</ele>
        <time>2014-12-14T10:48:35Z</time>
      </trkpt>
      <trkpt lat="49.280063" lon="-0.677882">
        <ele>105.7</ele>
        <time>2014-12-14T10:48:39Z</time>
      </trkpt>
      <trkpt lat="49.280056" lon="-0.678091">
        <ele>105.7</ele>
        <time>2014-12-14T10:48:43Z</time>
      </trkpt>
      <trkpt lat="49.280072" lon="-0.678361">
        <ele>106.7</ele>
        <time>2014-12-14T10:48:47Z</time>
      </trkpt>
      <trkpt lat="49.28009" lon="-0.678628">
        <ele>105.5</ele>
        <time>2014-12-14T10:48:51Z</time>
      </trkpt>
      <trkpt lat="49.280135" lon="-0.678937">
        <ele>106.5</ele>
        <time>2014-12-14T10:48:55Z</time>
      </trkpt>
      <trkpt lat="49.280132" lon="-0.679175">
        <ele>105.6</ele>
        <time>2014-12-14T10:48:59Z</time>
      </trkpt>
      <trkpt lat="49.28019" lon="-0.679424">
        <ele>104.2</ele>
        <time>2014-12-14T10:49:03Z</time>
      </trkpt>
      <trkpt lat="49.280187" lon="-0.679678">
        <ele>105.1</ele>
        <time>2014-12-14T10:49:07Z</time>
      </trkpt>
      <trkpt lat="49.280189" lon="-0.679894">
        <ele>105.0</ele>
        <time>2014-12-14T10:49:11Z</time>
      </trkpt>
      <trkpt lat="49.280187" lon="-0.680123">
        <ele>104.6</ele>
        <time>2014-12-14T10:49:15Z</time>
      </trkpt>
      <trkpt lat="49.280198" lon="-0.680357">
        <ele>104.6</ele>
        <time>2014-12-14T10:49:19Z</time>
      </trkpt>
      <trkpt lat="49.280198" lon="-0.680566">
        <ele>105.0</ele>
        <time>2014-12-14T10:49:23Z</time>
      </trkpt>
      <trkpt lat="49.280203" lon="-0.680823">
        <ele>105.0</ele>
        <time>2014-12-14T10:49:27Z</time>
      </trkpt>
      <trkpt lat="49.280243" lon="-0.681057">
        <ele>103.6</ele>
        <time>2014-12-14T10:49:31Z</time>
      </trkpt>
      <trkpt lat="49.280221" lon="-0.681287">
        <ele>104.3</ele>
        <time>2014-12-14T10:49:35Z</time>
      </trkpt>
      <trkpt lat="49.280163" lon="-0.681516">
        <ele>103.9</ele>
        <time>2014-12-14T10:49:39Z</time>
      </trkpt>
      <trkpt lat="49.280147" lon="-0.681795">
        <ele>103.6</ele>
        <time>2014-12-14T10:49:43Z</time>
      </trkpt>
      <trkpt lat="49.280106" lon="-0.682069">
        <ele>104.2</ele>
        <time>2014-12-14T10:49:47Z</time>
      </trkpt>
      <trkpt lat="49.28004" lon="-0.68231">
        <ele>104.5</ele>
        <time>2014-12-14T10:49:51Z</time>
      </trkpt>
      <trkpt lat="49.27996" lon="-0.682581">
        <ele>104.5</ele>
        <time>2014-12-14T10:49:55Z</time>
      </trkpt>
      <trkpt lat="49.27994" lon="-0.682841">
        <ele>103.9</ele>
        <time>2014-12-14T10:49:59Z</time>
      </trkpt>
      <trkpt lat="49.279925" lon="-0.6831">
        <ele>103.3</ele>
        <time>2014-12-14T10:50:03Z</time>
      </trkpt>
      <trkpt lat="49.279897" lon="-0.683347">
        <ele>102.7</ele>
        <time>2014-12-14T10:50:07Z</time>
      </trkpt>
      <trkpt lat="49.279871" lon="-0.683602">
        <ele>103.5</ele>
        <time>2014-12-14T10:50:11Z</time>
      </trkpt>
      <trkpt lat="49.279853" lon="-0.683887">
        <ele>102.5</ele>
        <time>2014-12-14T10:50:15Z</time>
      </trkpt>
      <trkpt lat="49.279837" lon="-0.684173">
        <ele>103.4</ele>
        <time>2014-12-14T10:50:19Z</time>
      </trkpt>
      <trkpt lat="49.279804" lon="-0.684455">
        <ele>103.8</ele>
        <time>2014-12-14T10:50:23Z</time>
      </trkpt>
      <trkpt lat="49.279776" lon="-0.68471">
        <ele>104.1</ele>
        <time>2014-12-14T10:50:27Z</time>
      </trkpt>
      <trkpt lat="49.279738" lon="-0.684925">
        <ele>104.5</ele>
        <time>2014-12-14T10:50:31Z</time>
      </trkpt>
      <trkpt lat="49.279735" lon="-0.685068">
        <ele>104.0</ele>
        <time>2014-12-14T10:50:35Z</time>
      </trkpt>
      <trkpt lat="49.279717" lon="-0.685175">
        <ele>104.6</ele>
        <time>2014-12-14T10:50:39Z</time>
      </trkpt>
      <trkpt lat="49.279707" lon="-0.685328">
        <ele>104.8</ele>
        <time>2014-12-14T10:50:43Z</time>
      </trkpt>
      <trkpt lat="49.279632" lon="-0.685589">
        <ele>105.3</ele>
        <time>2014-12-14T10:50:47Z</time>
      </trkpt>
      <trkpt lat="49.27955" lon="-0.685916">
        <ele>105.3</ele>
        <time>2014-12-14T10:50:51Z</time>
      </trkpt>
      <trkpt lat="49.279458" lon="-0.686263">
        <ele>104.2</ele>
        <time>2014-12-14T10:50:55Z</time>
      </trkpt>
      <trkpt lat="49.279396" lon="-0.686612">
        <ele>104.1</ele>
        <time>2014-12-14T10:50:59Z</time>
      </trkpt>
      <trkpt lat="49.27941" lon="-0.686947">
        <ele>104.1</ele>
        <time>2014-12-14T10:51:03Z</time>
      </trkpt>
      <trkpt lat="49.279415" lon="-0.687265">
        <ele>103.9</ele>
        <time>2014-12-14T10:51:07Z</time>
      </trkpt>
      <trkpt lat="49.279377" lon="-0.687513">
        <ele>103.0</ele>
        <time>2014-12-14T10:51:11Z</time>
      </trkpt>
      <trkpt lat="49.279253" lon="-0.687705">
        <ele>103.0</ele>
        <time>2014-12-14T10:51:15Z</time>
      </trkpt>
      <trkpt lat="49.279089" lon="-0.687942">
        <ele>103.7</ele>
        <time>2014-12-14T10:51:19Z</time>
      </trkpt>
      <trkpt lat="49.278953" lon="-0.688222">
        <ele>104.3</ele>
        <time>2014-12-14T10:51:23Z</time>
      </trkpt>
      <trkpt lat="49.2788" lon="-0.688468">
        <ele>104.4</ele>
        <time>2014-12-14T10:51:27Z</time>
      </trkpt>
      <trkpt lat="49.278715" lon="-0.688774">
        <ele>105.2</ele>
        <time>2014-12-14T10:51:31Z</time>
      </trkpt>
      <trkpt lat="49.278569" lon="-0.688974">
        <ele>103.9</ele>
        <time>2014-12-14T10:51:35Z</time>
      </trkpt>
      <trkpt lat="49.278404" lon="-0.689016">
        <ele>105.0</ele>
        <time>2014-12-14T10:51:39Z</time>
      </trkpt>
      <trkpt lat="49.278232" lon="-0.689055">
        <ele>106.3</ele>
        <time>2014-12-14T10:51:43Z</time>
      </trkpt>
      <trkpt lat="49.278023" lon="-0.689106">
        <ele>107.0</ele>
        <time>2014-12-14T10:51:47Z</time>
      </trkpt>
      <trkpt lat="49.277833" lon="-0.68909">
        <ele>106.3</ele>
        <time>2014-12-14T10:51:51Z</time>
      </trkpt>
      <trkpt lat="49.277622" lon="-0.689113">
        <ele>106.3</ele>
        <time>2014-12-14T10:51:55Z</time>
      </trkpt>
      <trkpt lat="49.277431" lon="-0.689211">
        <ele>106.3</ele>
        <time>2014-12-14T10:51:59Z</time>
      </trkpt>
      <trkpt lat="49.277283" lon="-0.689447">
        <ele>105.6</ele>
        <time>2014-12-14T10:52:03Z</time>
      </trkpt>
      <trkpt lat="49.277151" lon="-0.689671">
        <ele>104.5</ele>
        <time>2014-12-14T10:52:07Z</time>
      </trkpt>
      <trkpt lat="49.277006" lon="-0.689889">
        <ele>104.5</ele>
        <time>2014-12-14T10:52:11Z</time>
      </trkpt>
      <trkpt lat="49.276879" lon="-0.690122">
        <ele>104.8</ele>
        <time>2014-12-14T10:52:15Z</time>
      </trkpt>
      <trkpt lat="49.276761" lon="-0.690315">
        <ele>103.6</ele>
        <time>2014-12-14T10:52:19Z</time>
      </trkpt>
      <trkpt lat="49.276651" lon="-0.69031">
        <ele>103.0</ele>
        <time>2014-12-14T10:52:23Z</time>
      </trkpt>
      <trkpt lat="49.276622" lon="-0.690167">
        <ele>102.9</ele>
        <time>2014-12-14T10:52:27Z</time>
      </trkpt>
      <trkpt lat="49.276568" lon="-0.689963">
        <ele>103.4</ele>
        <time>2014-12-14T10:52:31Z</time>
      </trkpt>
      <trkpt lat="49.276495" lon="-0.6899">
        <ele>104.0</ele>
        <time>2014-12-14T10:52:35Z</time>
      </trkpt>
      <trkpt lat="49.27643" lon="-0.689825">
        <ele>104.0</ele>
        <time>2014-12-14T10:52:39Z</time>
      </trkpt>
      <trkpt lat="49.276362" lon="-0.689818">
        <ele>104.4</ele>
        <time>2014-12-14T10:52:43Z</time>
      </trkpt>
      <trkpt lat="49.276287" lon="-0.689804">
        <ele>104.1</ele>
        <time>2014-12-14T10:52:47Z</time>
      </trkpt>
      <trkpt lat="49.276272" lon="-0.689781">
        <ele>104.0</ele>
        <time>2014-12-14T10:52:51Z</time>
      </trkpt>
      <trkpt lat="49.276354" lon="-0.689772">
        <ele>103.9</ele>
        <time>2014-12-14T10:53:03Z</time>
      </trkpt>
      <trkpt lat="49.276369" lon="-0.689804">
        <ele>104.0</ele>
        <time>2014-12-14T10:53:07Z</time>
      </trkpt>
      <trkpt lat="49.276414" lon="-0.68989">
        <ele>104.0</ele>
        <time>2014-12-14T10:53:11Z</time>
      </trkpt>
      <trkpt lat="49.276447" lon="-0.68995">
        <ele>103.8</ele>
        <time>2014-12-14T10:53:15Z</time>
      </trkpt>
      <trkpt lat="49.27644" lon="-0.689943">
        <ele>104.0</ele>
        <time>2014-12-14T10:53:19Z</time>
      </trkpt>
    </trkseg>
  </trk>
</gpx>
